[[{"header":{"parameterUnit":"m.s-1","parameterCategory":1,"la1":30.6,"la2":29.2853,"lo1":-89.7004,"lo2":-87.6739,"dy":0.0162,"dx":0.0183,"nx":112,"ny":82,"refTime":"2024-12-04T18:00:00:Z","depth":0,"parameterNumber":2,"parameterNumberName":"U-component_of_WINDS"},"data":[0.0,0.0,0.0,0.0,0.0,0.0,0.0,0.0,0.0,0.0,0.0,0.0,0.0,0.0,0.0,0.0,0.0,0.0,0.0,0.0,0.0,0.0,0.0,0.0,0.0,0.0,0.0,0.0,0.0,0.0,0.0,0.0,0.0,0.0,0.0,0.0,0.0,0.0,0.0,0.0,0.0,0.0,0.0,0.0,0.0,0.0,0.0,0.0,0.0,0.0,0.0,0.0,0.0,0.0,0.0,0.0,0.0,0.0,0.0,0.0,0.0,0.0,0.0,0.0,0.0,0.0,0.0,0.0,0.0,0.0,0.0,0.0,0.0,0.0,0.0,0.0,0.0,0.0,0.0,0.0,0.0,0.0,0.0,0.0,0.0,0.0,0.0,0.0,0.0,0.0,0.0,-3.5247,-3.4806,-3.4632,-3.5218,-3.5421,-3.4956,-3.359,0.0,0.0,0.0,0.0,0.0,0.0,0.0,0.0,0.0,0.0,0.0,0.0,0.0,0.0,0.0,0.0,0.0,0.0,0.0,0.0,0.0,0.0,0.0,0.0,0.0,0.0,0.0,0.0,0.0,0.0,0.0,0.0,0.0,0.0,0.0,0.0,0.0,0.0,0.0,0.0,0.0,0.0,0.0,0.0,0.0,0.0,0.0,0.0,0.0,0.0,0.0,0.0,0.0,0.0,0.0,0.0,0.0,0.0,0.0,0.0,0.0,0.0,0.0,0.0,0.0,0.0,0.0,0.0,0.0,0.0,0.0,0.0,0.0,0.0,0.0,0.0,0.0,0.0,0.0,0.0,0.0,0.0,0.0,0.0,0.0,0.0,0.0,0.0,0.0,0.0,0.0,0.0,0.0,0.0,0.0,0.0,0.0,0.0,0.0,0.0,0.0,0.0,0.0,0.0,-3.3997,-3.5247,-3.4806,-3.4457,-3.4545,-3.5532,-3.5386,-3.362,0.0,0.0,0.0,0.0,0.0,0.0,0.0,0.0,0.0,0.0,0.0,0.0,0.0,0.0,0.0,0.0,0.0,0.0,0.0,0.0,0.0,0.0,0.0,0.0,0.0,0.0,0.0,0.0,0.0,0.0,0.0,0.0,0.0,0.0,0.0,0.0,0.0,0.0,0.0,0.0,0.0,0.0,0.0,0.0,0.0,0.0,0.0,0.0,0.0,0.0,0.0,0.0,0.0,0.0,0.0,0.0,0.0,0.0,0.0,0.0,0.0,0.0,0.0,0.0,0.0,0.0,0.0,0.0,0.0,0.0,0.0,0.0,0.0,0.0,0.0,0.0,0.0,0.0,0.0,0.0,0.0,0.0,0.0,0.0,0.0,0.0,0.0,0.0,0.0,0.0,0.0,0.0,0.0,0.0,0.0,0.0,0.0,0.0,0.0,0.0,0.0,0.0,0.0,-3.3587,-3.4196,-3.4777,-3.4574,-3.4399,-3.4399,-3.559,-3.5357,-3.3093,-3.33,0.0,0.0,0.0,0.0,0.0,0.0,0.0,0.0,0.0,0.0,0.0,0.0,0.0,0.0,0.0,0.0,0.0,0.0,0.0,0.0,0.0,0.0,0.0,0.0,0.0,0.0,0.0,0.0,0.0,0.0,0.0,0.0,0.0,0.0,0.0,0.0,0.0,0.0,0.0,0.0,0.0,0.0,0.0,0.0,0.0,0.0,0.0,0.0,0.0,0.0,0.0,0.0,0.0,0.0,0.0,0.0,0.0,0.0,0.0,0.0,0.0,0.0,0.0,0.0,0.0,0.0,0.0,0.0,0.0,0.0,0.0,0.0,0.0,0.0,0.0,0.0,0.0,0.0,0.0,0.0,0.0,0.0,0.0,0.0,0.0,0.0,0.0,0.0,0.0,0.0,0.0,0.0,0.0,0.0,0.0,0.0,0.0,0.0,0.0,0.0,0.0,0.0,-3.4051,-3.4574,-3.4428,-3.4399,-3.4399,-3.4399,-3.5299,-3.4893,-3.2626,-3.2832,0.0,0.0,0.0,0.0,0.0,0.0,0.0,0.0,0.0,0.0,0.0,0.0,0.0,0.0,0.0,0.0,0.0,0.0,0.0,0.0,0.0,0.0,0.0,0.0,0.0,0.0,0.0,0.0,0.0,0.0,0.0,0.0,0.0,0.0,0.0,0.0,0.0,0.0,0.0,0.0,0.0,0.0,0.0,0.0,0.0,0.0,0.0,0.0,0.0,0.0,0.0,0.0,0.0,0.0,0.0,0.0,0.0,0.0,0.0,0.0,0.0,0.0,0.0,0.0,0.0,0.0,0.0,0.0,0.0,0.0,0.0,0.0,0.0,0.0,0.0,0.0,0.0,0.0,0.0,0.0,0.0,0.0,0.0,0.0,0.0,0.0,0.0,0.0,0.0,0.0,0.0,0.0,0.0,0.0,0.0,0.0,0.0,0.0,0.0,0.0,0.0,0.0,-3.4201,-3.5101,-3.4486,-3.4399,-3.4399,-3.4399,-3.4486,-3.3964,-3.2568,-3.1959,0.0,0.0,0.0,0.0,0.0,0.0,0.0,0.0,0.0,0.0,0.0,0.0,0.0,0.0,0.0,0.0,0.0,0.0,0.0,0.0,0.0,0.0,0.0,0.0,0.0,0.0,0.0,0.0,0.0,0.0,0.0,0.0,0.0,0.0,0.0,0.0,0.0,0.0,0.0,0.0,0.0,0.0,0.0,0.0,0.0,0.0,0.0,0.0,0.0,0.0,0.0,0.0,0.0,0.0,0.0,0.0,0.0,0.0,0.0,0.0,0.0,0.0,0.0,0.0,0.0,0.0,0.0,0.0,0.0,0.0,0.0,0.0,0.0,0.0,0.0,0.0,0.0,0.0,0.0,0.0,0.0,0.0,0.0,0.0,0.0,0.0,0.0,0.0,0.0,0.0,0.0,0.0,0.0,0.0,0.0,0.0,0.0,0.0,0.0,0.0,0.0,0.0,-3.408,-3.4835,0.0,-3.4661,-3.4399,-3.4399,-3.4777,-3.4109,-3.1988,0.0,0.0,0.0,0.0,0.0,0.0,0.0,0.0,0.0,0.0,0.0,0.0,0.0,0.0,0.0,0.0,0.0,0.0,0.0,0.0,0.0,0.0,0.0,0.0,0.0,0.0,0.0,0.0,0.0,0.0,0.0,0.0,0.0,0.0,0.0,0.0,0.0,0.0,0.0,0.0,0.0,0.0,0.0,0.0,0.0,0.0,0.0,0.0,0.0,0.0,0.0,0.0,0.0,0.0,0.0,0.0,0.0,0.0,0.0,0.0,0.0,0.0,0.0,0.0,0.0,0.0,0.0,0.0,0.0,0.0,0.0,0.0,0.0,0.0,0.0,0.0,0.0,0.0,0.0,0.0,0.0,0.0,0.0,0.0,0.0,0.0,0.0,0.0,0.0,0.0,0.0,0.0,0.0,0.0,0.0,0.0,0.0,0.0,0.0,0.0,0.0,0.0,-3.3445,-3.4574,-3.5328,0.0,-3.5014,-3.4632,-3.4428,-3.4632,-3.3852,-3.1642,0.0,0.0,0.0,0.0,0.0,0.0,0.0,0.0,0.0,0.0,0.0,0.0,0.0,0.0,0.0,0.0,0.0,0.0,0.0,0.0,0.0,0.0,0.0,0.0,0.0,0.0,0.0,0.0,0.0,0.0,0.0,0.0,0.0,0.0,0.0,0.0,0.0,0.0,0.0,0.0,0.0,0.0,0.0,0.0,0.0,0.0,0.0,0.0,0.0,0.0,0.0,0.0,0.0,0.0,0.0,0.0,0.0,0.0,0.0,0.0,0.0,0.0,0.0,0.0,0.0,0.0,0.0,0.0,0.0,0.0,0.0,0.0,0.0,0.0,0.0,0.0,0.0,0.0,0.0,0.0,0.0,0.0,0.0,0.0,0.0,0.0,0.0,0.0,0.0,0.0,0.0,0.0,0.0,0.0,0.0,0.0,0.0,0.0,0.0,0.0,0.0,0.0,-3.3503,-3.5706,-3.6809,-3.5566,-3.5392,-3.5131,-3.4486,-3.3848,-3.289,0.0,0.0,0.0,0.0,0.0,0.0,0.0,0.0,0.0,0.0,0.0,0.0,0.0,0.0,0.0,0.0,0.0,0.0,0.0,0.0,0.0,0.0,0.0,0.0,0.0,0.0,0.0,0.0,0.0,0.0,0.0,0.0,0.0,0.0,0.0,0.0,0.0,0.0,0.0,0.0,0.0,0.0,0.0,0.0,0.0,0.0,0.0,0.0,0.0,0.0,0.0,0.0,0.0,0.0,0.0,0.0,0.0,0.0,0.0,0.0,0.0,0.0,0.0,0.0,0.0,0.0,0.0,0.0,0.0,0.0,0.0,0.0,0.0,0.0,0.0,0.0,0.0,0.0,0.0,0.0,0.0,0.0,0.0,0.0,0.0,0.0,0.0,0.0,0.0,0.0,0.0,0.0,0.0,0.0,0.0,0.0,0.0,0.0,0.0,0.0,0.0,0.0,0.0,-3.3146,-3.505,-3.6249,-3.5852,-3.5561,-3.5334,-3.5131,-3.4114,-3.2748,-3.1004,0.0,0.0,0.0,0.0,0.0,0.0,0.0,0.0,0.0,0.0,0.0,0.0,0.0,0.0,0.0,0.0,0.0,0.0,0.0,0.0,0.0,0.0,0.0,0.0,0.0,0.0,0.0,0.0,0.0,0.0,0.0,0.0,0.0,0.0,0.0,0.0,0.0,0.0,0.0,0.0,0.0,0.0,0.0,0.0,0.0,0.0,0.0,0.0,0.0,0.0,0.0,0.0,0.0,0.0,0.0,0.0,0.0,0.0,0.0,0.0,0.0,0.0,0.0,0.0,0.0,0.0,0.0,0.0,0.0,0.0,0.0,0.0,0.0,0.0,0.0,0.0,0.0,0.0,0.0,0.0,0.0,0.0,0.0,0.0,0.0,0.0,0.0,0.0,0.0,0.0,0.0,0.0,0.0,0.0,0.0,0.0,0.0,0.0,0.0,0.0,0.0,0.0,-3.2996,-3.4706,-3.5737,-3.5515,-3.505,-3.4703,-3.4448,-3.3514,-3.2127,-3.0199,0.0,0.0,0.0,0.0,0.0,0.0,0.0,0.0,0.0,0.0,0.0,0.0,0.0,0.0,0.0,0.0,0.0,0.0,0.0,0.0,0.0,0.0,0.0,0.0,0.0,0.0,0.0,0.0,0.0,0.0,0.0,0.0,0.0,0.0,0.0,0.0,0.0,0.0,0.0,0.0,0.0,0.0,0.0,0.0,0.0,0.0,0.0,0.0,0.0,0.0,0.0,0.0,0.0,0.0,0.0,0.0,0.0,0.0,0.0,0.0,0.0,0.0,0.0,0.0,0.0,0.0,0.0,0.0,0.0,0.0,0.0,0.0,0.0,0.0,0.0,0.0,0.0,0.0,0.0,0.0,0.0,0.0,0.0,0.0,0.0,0.0,0.0,0.0,0.0,0.0,0.0,0.0,0.0,0.0,0.0,0.0,0.0,0.0,0.0,0.0,0.0,0.0,-3.2828,-3.4443,-3.5278,-3.4725,-3.4221,-3.3675,-3.303,-3.2399,-3.1287,-2.951,0.0,0.0,0.0,0.0,0.0,0.0,0.0,0.0,0.0,0.0,0.0,0.0,0.0,0.0,0.0,0.0,0.0,0.0,0.0,0.0,0.0,0.0,0.0,0.0,0.0,0.0,0.0,0.0,0.0,0.0,0.0,0.0,0.0,0.0,0.0,0.0,0.0,0.0,0.0,0.0,0.0,0.0,0.0,0.0,0.0,0.0,0.0,0.0,0.0,0.0,0.0,0.0,0.0,0.0,0.0,0.0,0.0,0.0,0.0,0.0,-3.4915,0.0,0.0,0.0,0.0,0.0,0.0,0.0,0.0,0.0,0.0,0.0,0.0,0.0,0.0,0.0,0.0,0.0,0.0,0.0,0.0,0.0,0.0,0.0,0.0,0.0,0.0,0.0,0.0,0.0,0.0,0.0,0.0,0.0,0.0,0.0,0.0,0.0,0.0,0.0,0.0,0.0,-3.1992,-3.3606,-3.4635,-3.4462,-3.4151,-3.3837,-3.3702,-3.2254,-3.0945,-3.0072,-2.8622,0.0,0.0,0.0,0.0,0.0,0.0,0.0,0.0,0.0,0.0,0.0,0.0,0.0,0.0,0.0,0.0,0.0,0.0,0.0,0.0,0.0,0.0,0.0,0.0,0.0,0.0,0.0,0.0,0.0,0.0,0.0,0.0,0.0,0.0,0.0,0.0,0.0,0.0,0.0,0.0,0.0,0.0,0.0,0.0,0.0,0.0,0.0,0.0,0.0,0.0,0.0,0.0,0.0,0.0,0.0,0.0,0.0,0.0,0.0,0.0,-3.571,0.0,0.0,0.0,0.0,0.0,0.0,0.0,0.0,0.0,0.0,0.0,0.0,0.0,0.0,0.0,0.0,0.0,0.0,0.0,0.0,0.0,0.0,0.0,0.0,0.0,0.0,0.0,0.0,0.0,0.0,0.0,0.0,0.0,0.0,0.0,0.0,0.0,0.0,0.0,0.0,-3.1622,-3.2942,-3.3793,-3.3793,-3.3149,-3.2686,-3.2686,-3.1313,-3.0205,-2.9631,-2.8697,0.0,0.0,0.0,0.0,0.0,0.0,0.0,0.0,0.0,0.0,0.0,0.0,0.0,0.0,0.0,0.0,0.0,0.0,0.0,0.0,0.0,0.0,0.0,0.0,0.0,0.0,0.0,0.0,0.0,0.0,0.0,0.0,0.0,0.0,0.0,0.0,0.0,0.0,0.0,0.0,0.0,0.0,0.0,0.0,0.0,0.0,0.0,0.0,0.0,0.0,0.0,0.0,0.0,-3.5647,-3.5384,-3.6048,-3.5339,-3.5002,-3.5067,-3.5948,-3.595,-3.5381,-3.5995,0.0,0.0,0.0,0.0,0.0,0.0,0.0,0.0,0.0,0.0,0.0,0.0,0.0,0.0,0.0,0.0,0.0,0.0,0.0,0.0,0.0,0.0,0.0,0.0,-3.337,-3.3698,0.0,0.0,0.0,0.0,0.0,0.0,0.0,0.0,0.0,0.0,0.0,0.0,-3.1538,-3.2469,-3.3111,-3.3111,-3.2064,-3.1386,-3.1386,-3.0407,-2.9578,-2.9063,-2.9003,-2.8582,0.0,0.0,0.0,0.0,0.0,0.0,0.0,0.0,0.0,0.0,0.0,0.0,0.0,0.0,0.0,0.0,0.0,0.0,0.0,0.0,0.0,0.0,0.0,0.0,0.0,0.0,0.0,0.0,0.0,0.0,0.0,0.0,-3.5446,-3.5009,0.0,0.0,0.0,0.0,0.0,0.0,0.0,0.0,0.0,0.0,0.0,0.0,0.0,-3.4309,-3.4675,-3.4973,-3.5361,-3.575,-3.6045,-3.6225,-3.6319,-3.6225,-3.6204,-3.6179,-3.6337,0.0,-3.587,-3.5545,0.0,0.0,0.0,0.0,0.0,0.0,0.0,0.0,0.0,0.0,0.0,0.0,0.0,0.0,0.0,0.0,0.0,0.0,0.0,0.0,0.0,0.0,-3.5067,-3.45,-3.45,-3.4544,0.0,-3.2836,-3.1265,-3.0657,-3.0197,0.0,0.0,0.0,0.0,0.0,0.0,0.0,-3.1513,-3.2469,-3.3111,-3.3111,-3.2064,-3.1386,-3.1386,-3.0407,-2.9754,-2.9679,-2.9202,-2.9122,-2.96,-2.8092,0.0,0.0,0.0,0.0,0.0,0.0,0.0,0.0,0.0,0.0,0.0,0.0,0.0,0.0,0.0,0.0,0.0,0.0,0.0,0.0,0.0,0.0,0.0,0.0,0.0,0.0,0.0,0.0,0.0,-3.4976,-3.4956,-3.4751,-3.468,-3.4508,0.0,0.0,0.0,0.0,0.0,0.0,0.0,0.0,0.0,-3.4579,-3.465,-3.4845,-3.5236,-3.5672,-3.5912,-3.6006,-3.6279,-3.6405,-3.6405,-3.6405,-3.6405,-3.6405,-3.6405,-3.6362,-3.6223,-3.5967,-3.5815,-3.5796,0.0,0.0,0.0,0.0,-3.5585,-3.5436,-3.5738,-3.5529,-3.5046,-3.4701,0.0,0.0,0.0,0.0,0.0,0.0,0.0,0.0,0.0,0.0,-3.5433,-3.5207,-3.5429,-3.5554,-3.5207,-3.4173,-3.2918,0.0,-3.1099,-3.0407,-2.9156,0.0,0.0,0.0,0.0,-3.1746,-3.1939,-3.2626,-3.3111,-3.3111,-3.234,-3.1863,-3.1863,-3.1135,-3.0683,-3.0683,-3.0457,-3.0464,-3.0777,-3.0094,-2.9376,0.0,0.0,0.0,0.0,0.0,0.0,0.0,0.0,0.0,0.0,0.0,0.0,0.0,0.0,0.0,0.0,0.0,0.0,0.0,0.0,0.0,0.0,0.0,0.0,0.0,0.0,0.0,0.0,-3.5077,-3.5253,-3.4931,-3.5086,-3.476,0.0,0.0,0.0,0.0,0.0,0.0,-3.4613,-3.4544,-3.4764,-3.5304,-3.5301,-3.5519,-3.6034,-3.6053,-3.6121,-3.6168,-3.6168,-3.6216,-3.631,-3.631,-3.631,-3.6405,-3.6405,-3.6405,-3.6405,-3.6207,-3.6045,-3.5889,-3.6148,-3.6418,-3.6635,-3.6635,-3.6306,-3.5915,-3.6328,-3.6055,-3.5382,-3.4751,-3.4679,-3.4529,-3.29,0.0,0.0,0.0,0.0,-3.5153,-3.4962,-3.5307,-3.5708,-3.5708,-3.6056,-3.6207,-3.5608,-3.5056,-3.4324,0.0,-3.2089,-3.1085,-2.9428,0.0,0.0,0.0,0.0,-3.2173,-3.2181,-3.2717,-3.3111,-3.3111,-3.2566,-3.2215,-3.2215,-3.1712,-3.1386,-3.1386,-3.1386,-3.1386,-3.1386,-3.1505,-3.1048,-3.0008,0.0,0.0,0.0,0.0,0.0,0.0,0.0,0.0,0.0,0.0,0.0,0.0,0.0,0.0,0.0,0.0,0.0,0.0,0.0,0.0,0.0,0.0,0.0,0.0,0.0,0.0,0.0,0.0,0.0,-3.5583,-3.6171,0.0,0.0,0.0,0.0,-3.4615,-3.4664,-3.5155,-3.6186,-3.6064,-3.6135,-3.667,-3.5959,-3.5693,-3.5989,-3.5527,-3.538,-3.5668,-3.5668,-3.5764,-3.6003,-3.6003,-3.6146,-3.6405,-3.6405,-3.6405,-3.638,-3.5805,-3.5554,-3.55,-3.4997,-3.4841,-3.4836,-3.4836,-3.5143,-3.555,-3.5575,-3.5554,-3.5583,-3.6081,-3.5575,-3.4695,-3.4595,-3.4262,0.0,0.0,-3.467,-3.5479,-3.5458,-3.5906,-3.6355,-3.6355,-3.638,-3.6207,-3.5608,-3.5056,-3.455,0.0,-3.2918,-3.2139,-3.2014,0.0,-3.0773,-3.121,-3.1377,-3.1628,-3.2139,-3.2717,-3.3111,-3.3111,-3.2566,-3.2215,-3.2215,-3.1712,-3.1386,-3.1386,-3.1386,-3.1386,-3.1386,-3.1402,-3.1125,-3.0572,-2.9479,0.0,0.0,0.0,0.0,0.0,0.0,0.0,0.0,0.0,0.0,0.0,0.0,0.0,0.0,0.0,0.0,0.0,0.0,0.0,0.0,0.0,0.0,0.0,0.0,0.0,0.0,0.0,0.0,-3.5946,-3.7021,0.0,-3.5741,-3.5721,-3.5868,-3.6039,-3.5891,-3.5962,-3.6349,-3.6323,-3.637,-3.6563,-3.6106,-3.5915,-3.6013,-3.5649,-3.5524,-3.562,-3.5764,-3.5908,-3.6003,-3.6193,-3.631,-3.6405,-3.6405,-3.6405,-3.638,-3.6157,-3.6081,-3.6081,-3.6232,-3.6081,-3.578,-3.578,-3.5906,-3.6081,-3.6081,-3.6081,-3.6107,-3.6355,-3.5855,-3.5207,-3.5207,-3.5082,-3.4906,-3.4906,-3.5504,-3.6081,-3.6081,-3.6254,-3.6405,-3.6405,-3.6081,-3.578,-3.5533,-3.4826,-3.4148,-3.3947,-3.3294,-3.2541,-3.1813,-3.1964,-3.2014,-3.1461,-3.2014,-3.2541,-3.2742,-3.2943,-3.3111,-3.3111,-3.2893,-3.2767,-3.2767,-3.2591,-3.2466,-3.2466,-3.2466,-3.2466,-3.2466,-3.2466,-3.2215,-3.1662,-3.0909,-2.9528,0.0,0.0,0.0,0.0,0.0,0.0,0.0,0.0,0.0,0.0,0.0,0.0,0.0,0.0,0.0,0.0,0.0,0.0,0.0,0.0,0.0,0.0,0.0,0.0,0.0,0.0,-3.6916,-3.647,-3.7519,-3.7763,-3.6456,-3.66,-3.6838,-3.6931,-3.6777,-3.6747,-3.6916,-3.694,-3.6867,-3.6675,-3.6321,-3.6059,-3.5865,-3.5478,-3.5332,-3.5332,-3.5524,-3.562,-3.5716,-3.6003,-3.6168,-3.6288,-3.6358,-3.6405,-3.6405,-3.6405,-3.6405,-3.6455,-3.6807,-3.6732,-3.6405,-3.6405,-3.6405,-3.6405,-3.6405,-3.6405,-3.6405,-3.6405,-3.6107,-3.5805,-3.5805,-3.5805,-3.5805,-3.5805,-3.6081,-3.6405,-3.6405,-3.6279,-3.6081,-3.6081,-3.5655,-3.5182,-3.4981,-3.4424,-3.3847,-3.3671,-3.3319,-3.2842,-3.2089,-3.2591,-3.2817,-3.2064,-3.2634,-3.3111,-3.3111,-3.3111,-3.3111,-3.3111,-3.3111,-3.3111,-3.3111,-3.2893,-3.2867,-3.3111,-3.2717,-3.2591,-3.2767,-3.2887,-3.2608,-3.1938,-3.121,-3.0131,-2.8674,0.0,0.0,0.0,0.0,0.0,0.0,0.0,0.0,0.0,0.0,0.0,0.0,0.0,0.0,0.0,0.0,0.0,0.0,0.0,0.0,0.0,0.0,0.0,-3.643,-3.667,-3.6995,-3.7188,-3.7816,-3.7735,-3.6579,-3.6697,-3.6955,-3.7204,-3.7228,-3.7445,-3.795,-3.7974,-3.7733,-3.7204,-3.6675,-3.6146,-3.5617,-3.5039,-3.4775,-3.4775,-3.4823,-3.492,-3.5211,-3.5476,-3.5764,-3.6003,-3.6288,-3.6405,-3.6405,-3.6405,-3.6405,-3.6405,-3.6405,-3.6405,-3.6405,-3.6405,-3.6405,-3.6405,-3.6405,-3.6405,-3.6405,-3.6405,-3.6405,-3.6405,-3.6405,-3.6405,-3.6405,-3.6405,-3.6405,-3.6405,-3.6405,-3.5981,-3.5508,-3.5508,-3.5082,-3.4575,-3.4022,-3.3897,-3.3721,-3.3194,-3.3111,-3.3111,-3.3111,-3.3111,-3.3111,-3.3111,-3.3111,0.0,-3.3111,-3.3111,-3.3111,-3.3111,-3.3111,-3.3111,-3.3154,-3.2566,-3.2466,-3.3061,-3.2055,-3.1703,-3.2273,-3.2504,-3.226,-3.1477,-3.0382,-2.9829,-2.9804,0.0,0.0,0.0,0.0,0.0,0.0,0.0,0.0,0.0,0.0,0.0,0.0,0.0,0.0,0.0,0.0,0.0,0.0,0.0,0.0,0.0,-3.5906,-3.6556,-3.6958,-3.8091,-3.8692,-3.8116,-3.9124,-3.95,-3.8502,-3.8335,-3.8268,-3.8359,-3.7998,-3.7829,-3.7974,-3.7974,-3.7733,-3.7204,-3.6675,-3.6146,-3.5617,-3.5039,-3.4775,-3.4775,-3.4969,-3.5114,-3.5211,-3.5476,-3.5764,-3.6003,-3.6098,-3.6241,-3.6405,-3.6405,-3.6405,-3.6405,-3.6405,-3.6405,-3.6405,-3.6405,-3.6405,-3.6405,-3.6405,-3.6405,-3.6405,-3.6405,-3.6405,-3.6405,-3.6405,-3.6405,-3.6405,-3.6405,-3.6405,-3.6405,-3.6405,-3.6304,-3.6031,-3.5583,-3.5082,-3.4575,-3.4022,-3.3596,-3.3269,-3.3119,-3.3111,-3.3111,-3.3111,-3.3111,-3.3111,-3.3111,-3.3111,0.0,-3.3111,-3.3111,-3.3326,-3.3979,-3.3496,-3.3368,-3.3979,-3.3301,-3.2971,-3.3276,-3.2472,-3.2577,-3.3966,-3.2905,-3.2415,-3.2659,-3.1512,-3.0758,0.0,0.0,0.0,0.0,0.0,0.0,0.0,0.0,0.0,0.0,0.0,0.0,0.0,0.0,0.0,0.0,0.0,0.0,0.0,0.0,0.0,0.0,-3.7036,-3.7662,-3.8165,-3.8767,-3.9091,-3.894,-3.9578,-3.9783,-3.9279,-3.8936,-3.8747,-3.864,-3.8219,-3.8027,-3.8133,-3.808,-3.769,-3.7046,-3.6606,-3.605,-3.5304,-3.4992,-3.4775,-3.4775,-3.5066,-3.5235,-3.5211,-3.5572,-3.586,-3.6003,-3.6098,-3.6288,-3.6405,-3.6405,-3.6405,0.0,0.0,0.0,0.0,0.0,-3.6405,-3.6405,-3.6405,-3.6405,-3.6405,-3.6405,-3.6405,-3.6405,-3.6405,-3.6405,-3.6405,-3.6405,-3.6405,-3.6405,-3.6405,-3.6182,-3.5881,-3.5282,-3.4776,-3.4223,-3.3671,-3.3294,-3.3111,-3.3111,-3.3111,0.0,-3.3111,-3.3111,-3.3111,-3.3111,-3.3111,-3.3111,-3.3111,-3.3411,-3.3709,-3.381,-3.4037,-3.4204,-3.4397,-3.3704,0.0,0.0,0.0,-3.3183,-3.4832,-3.3635,0.0,0.0,0.0,0.0,0.0,0.0,0.0,0.0,-3.197,-3.1662,0.0,0.0,0.0,0.0,0.0,0.0,0.0,0.0,0.0,0.0,0.0,0.0,0.0,0.0,0.0,0.0,-3.8492,-3.912,-3.9622,-3.9041,-3.884,-3.9622,-3.9465,-3.931,-3.931,-3.8998,-3.8684,-3.8473,-3.8185,-3.8185,-3.8421,0.0,0.0,0.0,0.0,-3.6006,-3.4896,-3.4872,-3.4872,-3.4872,-3.5114,-3.5235,-3.5259,-3.5716,-3.5955,-3.6003,-3.6241,-3.6358,-3.6405,-3.6405,-3.6405,-3.6405,-3.6405,-3.6405,-3.6405,-3.6405,-3.6405,-3.6405,-3.6405,0.0,0.0,-3.6405,-3.6405,-3.6405,-3.6405,-3.6452,-3.6546,-3.6546,-3.664,-3.6734,-3.6734,-3.6214,-3.5617,-3.4987,-3.4457,-3.3997,-3.3366,-3.3326,-3.3386,-3.3386,-3.3386,-3.3386,-3.3386,-3.324,-3.3111,-3.324,-3.324,-3.324,-3.324,-3.3979,-3.423,-3.3471,0.0,0.0,-3.4703,-3.4106,-3.4299,-3.5573,-3.4111,-3.3846,-3.5181,-3.4748,-3.4835,-3.571,-3.5926,-3.6126,-3.6367,-3.7327,-3.8106,-3.858,-3.4725,-3.3748,0.0,0.0,0.0,0.0,0.0,0.0,0.0,0.0,0.0,0.0,0.0,0.0,0.0,0.0,0.0,-3.7889,-3.8492,-3.912,-3.9622,-3.9545,-3.952,-3.9672,-3.9465,-3.931,-3.931,-3.8998,-3.8788,-3.8736,-3.8684,-3.8684,-3.8736,-3.8684,-3.8194,-3.7167,-3.7068,-3.6504,-3.5476,-3.5476,-3.5476,-3.5476,0.0,0.0,-3.5524,-3.562,-3.5812,-3.6003,-3.6051,-3.6193,-3.6405,-3.6405,-3.6405,-3.6405,-3.6405,-3.6405,-3.6405,-3.6405,-3.6405,-3.6405,-3.6405,-3.6405,-3.6405,-3.6405,-3.6405,-3.6405,-3.6405,-3.6943,0.0,-3.7546,-3.8069,-3.8675,-3.8675,-3.8036,-3.7105,-3.6067,-3.5729,-3.5323,-3.4354,-3.4635,-3.5102,-3.5102,-3.5102,-3.5102,-3.5102,-3.3995,-3.3326,-3.4021,-3.4147,-3.4147,-3.4147,-3.4841,-3.5305,-3.521,-3.5427,-3.5829,-3.6373,-3.564,-3.5382,-3.5885,-3.6222,-3.6193,-3.5699,-3.6603,-3.7174,-3.7192,-3.7219,-3.7531,-3.8066,-3.8684,-3.9288,-3.9922,-3.8114,-3.7555,0.0,0.0,0.0,0.0,0.0,0.0,0.0,0.0,0.0,0.0,0.0,-3.6458,-3.6686,0.0,-3.8216,-3.8768,-3.9094,-3.9371,-3.9647,-3.9697,-3.9697,-3.9697,-3.9594,-3.949,-3.949,-3.9206,-3.905,-3.905,-3.8893,-3.8893,-3.905,-3.8893,-3.8401,-3.7443,-3.7268,-3.6653,-3.562,-3.562,-3.562,-3.562,-3.5716,-3.5812,-3.5812,-3.5955,-3.6073,-3.6193,-3.6193,-3.6288,-3.6405,-3.6405,-3.6405,-3.6477,-3.7249,-3.7079,-3.6405,-3.6405,-3.6687,-3.7083,-3.7083,-3.7381,-3.7795,-3.7795,-3.7795,-3.7795,-3.7795,-3.8134,-3.8496,-3.8496,-3.8854,-3.921,-3.921,-3.8854,-3.8282,-3.7447,-3.695,-3.6455,-3.5645,-3.5561,-3.5628,-3.5628,-3.5628,-3.5628,-3.5628,-3.4897,-3.4511,-3.4924,-3.5006,-3.5006,-3.5006,-3.5709,-3.6108,-3.5669,-3.6385,-3.6922,-3.6883,-3.7231,-3.7259,-3.695,-3.8036,-3.8467,-3.7969,-3.8638,-3.8892,-3.8643,-3.9438,-3.9929,-4.0043,-4.1119,-4.1956,-4.2592,-4.1987,-4.1245,0.0,0.0,0.0,0.0,0.0,0.0,0.0,0.0,-3.6009,-3.6135,-3.6985,-3.7814,-3.8241,-3.8718,-3.917,-3.9622,-3.9697,-3.9697,-3.9697,-3.9697,-3.9697,-3.9697,-3.9697,-3.9697,-3.9697,-3.949,-3.9362,-3.9362,-3.9102,-3.9102,-3.9362,-3.9102,-3.8607,-3.7742,-3.7468,-3.685,-3.5764,-3.5764,-3.5764,-3.5764,-3.5955,-3.6098,-3.6098,-3.631,-3.6405,-3.6405,-3.6405,-3.6405,-3.6405,-3.6593,-3.6687,-3.6807,-3.8246,-3.8048,-3.6943,-3.707,-3.7531,-3.8069,-3.8069,-3.8541,-3.921,-3.921,-3.921,-3.921,-3.921,-3.9343,-3.9475,-3.9475,-3.9607,-3.9738,-3.9738,-3.9607,-3.9355,-3.8796,-3.8261,-3.7672,-3.7003,-3.655,-3.6246,-3.6136,-3.6108,-3.6108,-3.6108,-3.6108,-3.6068,-3.5869,-3.5869,-3.5869,-3.5869,-3.661,-3.6805,-3.5949,-3.7271,-3.7967,-3.7392,-3.8601,-3.9092,-3.8365,-3.9445,-4.0147,-4.0292,-4.0292,-4.032,-4.0322,-4.1603,-4.2278,-4.2232,-4.3545,-4.4472,-4.5082,-4.5082,-4.4129,-3.6034,-3.5056,-3.5027,-3.5956,-3.5855,-3.6009,0.0,0.0,-3.7864,-3.8391,-3.8994,-3.9446,-3.9496,-3.9546,-3.9622,-3.9697,-3.9697,-3.9697,-3.9697,-3.9697,-3.9697,-3.9697,-3.9697,-3.9697,-3.9697,-3.9697,-3.9645,-3.9645,-3.9645,-3.9645,-3.9645,-3.9645,-3.9068,-3.799,-3.7916,-3.739,-3.6335,-3.631,-3.631,-3.631,-3.631,-3.6358,-3.6358,-3.6405,-3.6405,-3.6405,-3.6405,-3.6405,-3.6452,-3.7315,-3.7638,-3.773,-3.8756,-3.9042,-3.8953,-3.9563,-3.9447,-3.9033,-3.9033,-3.9121,-3.921,-3.921,-3.921,-3.921,-3.921,-3.9782,-4.0432,-4.0432,-4.1085,-4.1773,-4.1773,-4.1128,-4.0307,-3.9789,-3.955,-3.9117,-3.7982,-3.8296,-3.863,-3.8025,-3.791,-3.791,-3.791,-3.791,-3.7644,-3.6883,-3.6766,-3.6766,-3.6766,-3.7529,-3.772,-3.6844,-3.7606,-3.8397,-3.8929,-3.9615,-3.9963,-3.9855,-4.0021,-4.0379,-4.096,-4.0989,-4.15,-4.2634,-4.2805,-4.3443,-4.4544,-4.469,-4.514,-4.5779,-4.5779,-4.5178,-3.71,-3.6332,-3.6257,0.0,-3.7161,-3.7739,-3.8668,-3.8944,-3.9044,-3.9295,-4.0049,-4.045,-3.9823,-3.9948,-4.0074,0.0,-3.9697,-3.9697,-3.9697,-3.9697,-3.9697,-3.9697,-3.9697,-3.9697,-3.9697,-3.9697,-3.9697,-3.9697,-3.9697,-3.9697,-3.9697,-3.9697,-3.917,-3.804,-3.8015,-3.7487,-3.6405,-3.6405,-3.6405,-3.6405,-3.6405,-3.6405,-3.6405,-3.6405,-3.6687,-3.7268,-3.7795,-3.8043,-3.8043,-3.845,-3.8585,-3.8774,-4.0079,-4.0348,-3.9984,-3.9704,-3.9782,-4.0043,-4.0043,-4.0417,-4.0873,-4.0873,-4.0873,-4.0873,-4.0873,-4.117,-4.1493,-4.1493,-4.1773,-4.2092,-4.2092,-4.1773,-4.1436,-4.1178,-4.0834,-4.0404,-3.986,-3.9737,-3.9625,-3.9363,-3.9015,-3.8783,-3.8783,-3.8783,-3.8668,-3.8294,-3.7901,-3.7644,-3.7644,-3.7976,-3.8196,-3.8226,-3.8592,-3.9044,-3.9683,-4.0321,-4.067,-4.067,-4.1047,-4.1395,-4.1657,-4.2005,-4.244,-4.2992,-4.3718,-4.4356,-4.4879,-4.5285,-4.5605,-4.5895,-4.6272,-4.6189,-3.714,-3.6835,0.0,-3.7337,-3.814,-3.8969,-3.912,-3.9521,-3.9923,-3.9923,-4.0551,-4.0824,-4.0074,-4.0124,-4.0149,-3.9747,-3.9697,-3.9697,-3.9697,-3.9697,-3.9697,-3.9697,-3.9572,-3.9521,-3.9672,-3.9697,-3.9697,-3.9697,-3.9697,-3.9697,-3.9697,-3.9697,-3.9245,-3.8266,-3.809,-3.7538,-3.6656,-3.648,-3.6405,-3.6405,-3.6687,-3.6781,-3.6803,-3.7036,-3.752,-3.8206,-3.8899,-3.921,-3.921,-3.9475,-3.9607,-3.9722,-4.118,-4.144,-4.093,-4.0216,-4.0417,-4.1015,-4.1015,-4.1493,-4.2092,-4.2092,-4.2092,-4.2092,-4.2092,-4.2092,-4.2092,-4.2092,-4.2092,-4.2092,-4.2092,-4.2092,-4.2092,-4.2092,-4.1715,-4.1337,-4.1134,-4.0728,-4.0321,-4.0147,-3.9741,-3.945,-3.945,-3.945,-3.945,-3.945,-3.9044,-3.8725,-3.8725,-3.8725,-3.8899,-3.9392,-3.9625,-3.9915,-4.035,-4.0989,-4.1366,-4.1366,-4.1976,-4.2353,-4.2353,-4.2934,-4.334,-4.3515,-4.4414,-4.4966,-4.5169,-4.5663,-4.5982,-4.6156,-4.6621,-4.6981,-3.573,-3.5959,-3.6684,-3.7713,-3.8442,-3.907,-3.9546,-4.0099,-4.0501,-4.0501,-4.0526,-4.0526,-4.0501,-4.0074,-3.9722,-3.9697,-3.9697,-3.9697,-3.9697,-3.9697,-3.9697,-3.9697,-3.922,-3.912,0.0,-3.9697,-3.9697,-3.9697,-3.9697,-3.9697,-3.9697,-3.9697,-3.9421,-3.8919,-3.8291,-3.7739,-3.7161,-3.6681,-3.6405,-3.6405,-3.7315,-3.7776,-3.7821,-3.8675,-3.9121,-3.9166,-3.921,-3.921,-3.9299,-4.0173,-4.056,-4.0646,-4.1689,-4.208,-4.2051,-4.2009,-4.2051,-4.2051,-4.2051,-4.2092,-4.2092,-4.2092,-4.2092,-4.2092,-4.2092,-4.2092,-4.2092,-4.2092,-4.2092,-4.2092,-4.2092,-4.2092,-4.2092,-4.2092,-4.2092,-4.1889,-4.125,-4.1076,-4.0873,-4.0234,-4.0089,-4.006,-4.006,-4.006,-4.006,-4.006,-4.006,-4.0031,-4.0031,-4.0031,-4.006,-4.006,-4.0641,-4.1047,-4.1076,-4.1686,-4.2063,-4.2063,-4.2644,-4.2963,-4.2963,-4.3602,-4.424,-4.4821,-4.4879,-4.5198,-4.5866,-4.5866,-4.6214,-4.6749,-4.6778,-4.7445,-3.6031,0.0,-3.7638,-3.8391,-3.8994,-3.9572,-4.0124,-4.0375,-4.0526,-4.0526,-4.0526,-4.04,-4.0049,-3.9823,-3.9697,-3.9697,-3.9697,-3.9697,-3.9697,-3.9697,-3.9697,-3.9697,-3.9521,0.0,0.0,0.0,0.0,-3.9672,-3.9697,-3.9697,-3.9697,-3.9697,-3.9446,-3.8944,-3.8316,-3.8032,-3.8118,-3.6966,-3.7036,-3.827,-3.8585,-3.872,-3.8765,-3.9694,-4.013,-4.0173,-4.083,-4.1085,-4.1156,-4.1451,-4.1577,-4.1619,-4.1968,-4.2092,-4.2092,-4.2092,-4.2092,-4.2092,-4.2092,-4.2092,-4.2092,-4.2092,-4.2092,-4.2092,-4.2092,-4.2382,-4.2702,-4.2702,-4.2702,-4.2702,-4.2702,-4.2382,-4.2092,-4.2092,-4.2092,-4.2034,-4.1802,-4.1773,-4.1686,-4.1453,-4.1076,-4.0757,-4.0757,-4.0757,-4.0902,-4.1366,-4.067,-4.0089,-4.0089,-4.0089,-4.0263,-4.0699,-4.096,-4.1279,-4.1715,-4.2324,-4.2702,-4.2702,-4.3311,-4.366,-4.366,-4.424,-4.4676,-4.4879,-4.5314,-4.5663,-4.5895,-4.6301,-4.6621,-4.6807,-4.7648,-4.8257,-3.6951,-3.7602,-3.8191,-3.8969,-3.9421,-3.9798,-4.0149,-4.0224,-4.0174,-3.9973,-3.9923,-3.9747,-3.9195,-3.9094,-3.9145,-3.9371,-3.9396,-3.9471,-3.9672,-3.9697,-3.9697,-3.9697,-3.9521,-3.9471,0.0,0.0,0.0,-3.9647,-3.9697,-3.9697,-3.9697,-3.9697,-3.9726,-3.9702,-3.8912,-3.881,-3.9441,-3.8095,-3.8179,-3.9694,-3.9694,-3.9869,-4.0244,-4.0845,-4.117,-4.1141,-4.1814,-4.2092,-4.2092,-4.2092,-4.2092,-4.2092,-4.2092,-4.2092,-4.2092,-4.2092,-4.2092,-4.2092,-4.2092,-4.2092,-4.2092,-4.2092,-4.2092,-4.215,-4.2353,-4.2673,-4.305,-4.3282,-4.334,-4.334,-4.334,-4.3079,-4.2702,-4.2469,-4.2411,-4.2353,-4.215,-4.2092,-4.2092,-4.2092,-4.1744,-4.1453,-4.1453,-4.1453,-4.1599,-4.2034,-4.1366,-4.0815,-4.0815,-4.0815,-4.0989,-4.1395,-4.1453,-4.1715,-4.2353,-4.276,-4.3079,-4.334,-4.395,-4.4298,-4.4298,-4.4908,-4.5256,-4.5256,-4.5895,-4.6214,-4.6214,-4.6853,-4.7288,-4.7474,-4.8286,-4.8856,-3.8324,-3.8412,-3.8491,-3.9472,-3.9749,-3.9724,-3.9647,-3.9647,-3.9496,-3.8944,-3.8844,-3.8617,0.0,0.0,-3.8191,-3.8743,-3.8868,-3.9094,-3.9622,-3.9697,-3.9697,0.0,0.0,0.0,0.0,0.0,0.0,-3.9801,0.0,-3.9749,-3.9826,-3.98,-4.0211,-4.1167,-4.0118,-3.9991,-4.102,-3.9897,-3.9782,-4.0603,-4.0646,-4.117,-4.2092,-4.2092,-4.2092,-4.2092,-4.2092,-4.2092,-4.2092,-4.2092,-4.2092,-4.2092,-4.2092,-4.2092,-4.2092,-4.2092,-4.2092,-4.2092,-4.2121,-4.2121,-4.2092,-4.2121,-4.215,-4.2266,-4.2847,-4.3079,-4.3224,-4.3863,-4.4037,-4.4037,-4.4037,-4.4008,-4.3834,-4.3195,-4.305,-4.2876,-4.2324,-4.2208,-4.2208,-4.2208,-4.2208,-4.2179,-4.215,-4.215,-4.2121,-4.2092,-4.2121,-4.2121,-4.2092,-4.2092,-4.2092,-4.2092,-4.2121,-4.2382,-4.2934,-4.305,-4.3369,-4.4008,-4.4618,-4.4937,-4.4937,-4.5547,-4.5895,-4.5895,-4.6505,-4.6778,-4.6778,-4.7491,-4.813,-4.8663,-4.8769,-4.9088,-3.8719,-4.0087,-4.1248,-4.0007,-4.0262,-4.0539,-3.9373,-3.9069,-3.8793,-3.7814,-3.7613,-3.7437,0.0,0.0,0.0,-3.8191,-3.8944,0.0,-3.9672,-3.9697,0.0,-3.9697,0.0,-3.9829,-4.0718,-4.0715,0.0,0.0,-4.0567,-4.0364,-4.1914,-4.1246,-4.1086,-4.1635,-4.0958,-4.083,-4.1341,-4.1354,-4.1085,-4.0603,-4.1339,-4.1856,-4.2092,-4.2092,-4.2092,-4.2092,-4.2092,-4.2092,-4.2092,-4.2092,-4.2092,-4.2092,-4.2092,-4.2092,-4.2092,-4.2092,-4.2092,-4.215,-4.2615,-4.2469,-4.2179,-4.2615,-4.276,-4.2876,-4.3544,-4.4037,-4.4443,-4.4618,-4.4647,-4.4647,-4.4647,-4.4327,-4.395,-4.3776,-4.3747,-4.3689,-4.3544,-4.3515,-4.3515,-4.3515,-4.3515,-4.334,-4.2847,-4.276,-4.2615,-4.2179,-4.2469,-4.2615,-4.215,-4.2092,-4.2092,-4.2092,-4.2498,-4.2818,-4.2992,-4.3863,-4.4472,-4.4647,-4.5256,-4.5634,-4.5634,-4.5808,-4.5895,-4.5895,-4.6505,-4.6778,-4.6778,-4.7927,-4.8566,-4.8692,-4.9204,-4.9524,-4.0286,-4.1268,-4.2151,-4.1267,-4.0937,-4.0549,-3.9488,-3.8638,-3.7814,-3.6709,-3.6458,0.0,-3.5755,-3.6533,0.0,0.0,0.0,0.0,-3.9672,-3.9697,-3.9697,0.0,-3.9697,0.0,-4.1069,-4.1219,-4.1864,0.0,-4.1963,-4.1594,-4.2744,-4.2257,-4.2108,-4.2507,-4.1902,-4.1664,-4.1753,-4.1987,-4.1814,-4.1254,-4.1814,-4.2092,-4.2092,-4.2092,-4.2092,-4.2092,0.0,-4.2092,-4.2092,-4.2092,-4.2092,-4.2092,-4.2092,-4.2266,-4.2498,-4.2498,-4.2673,-4.2963,-4.3311,-4.3224,-4.2992,-4.3311,-4.3427,-4.3544,-4.4182,-4.4618,-4.4937,-4.5256,-4.5314,-4.5314,-4.5314,-4.5082,-4.4763,-4.4443,-4.4385,-4.4298,-4.4037,-4.3979,-4.3979,-4.3979,-4.3979,-4.3863,-4.3485,-4.3427,-4.3311,-4.2963,-4.3224,-4.3311,-4.2963,-4.2934,-4.2934,-4.2934,-4.3224,-4.3544,-4.3805,-4.4472,-4.5024,-4.5314,-4.5663,-4.5895,-4.5895,-4.6156,-4.6301,-4.6301,-4.7201,-4.7619,-4.7619,-4.8653,-4.9146,-4.9146,-4.9494,-4.9717,-4.2104,-4.226,-4.218,-4.2569,-4.1646,-4.0456,-3.9585,-3.8302,-3.6877,-3.5554,0.0,-3.5107,-3.46,-3.5454,-3.648,-3.6985,0.0,-3.912,-3.9622,-3.98,-3.9878,-3.9878,-4.0032,-4.0516,-4.1518,-4.1617,-4.2425,-4.4359,-4.3701,-4.3225,-4.3225,-4.2999,-4.3023,-4.337,-4.2705,-4.228,-4.2092,-4.2092,-4.2092,-4.2092,-4.2092,-4.2092,-4.2092,-4.2092,-4.2092,-4.2092,-4.2092,0.0,-4.2092,-4.2092,-4.2092,-4.2121,-4.2179,-4.2528,-4.2992,-4.3079,-4.3528,-4.4051,-4.4138,-4.4211,-4.4182,-4.4138,-4.4124,-4.4211,-4.4821,-4.5024,-4.514,-4.5721,-4.5895,-4.5895,-4.5895,-4.5895,-4.575,-4.514,-4.5024,-4.4879,-4.4356,-4.424,-4.424,-4.424,-4.424,-4.4211,-4.4124,-4.4124,-4.4066,-4.4008,-4.4066,-4.4124,-4.4124,-4.4037,-4.3979,-4.3979,-4.4066,-4.4327,-4.485,-4.4966,-4.5256,-4.5837,-4.5982,-4.6011,-4.6011,-4.6621,-4.6923,-4.6923,-4.8083,-4.8663,-4.8663,-4.9349,-4.9717,-4.9717,-4.9717,-4.9717,-4.2423,-4.3,-4.3361,-4.2246,-4.1991,-4.137,-3.8688,-3.7892,0.0,0.0,-3.4198,-3.4022,-3.347,-3.465,-3.5855,-3.6455,-3.7888,-3.912,-3.9622,-4.0415,-4.0945,0.0,-4.1716,-4.2647,-4.3673,-4.3768,0.0,0.0,-4.5458,-4.5338,-4.5338,-4.4047,-4.3229,-4.3084,-4.2449,-4.2129,-4.2092,-4.2092,-4.2092,-4.2092,-4.2092,-4.2092,-4.2092,-4.2092,-4.2092,-4.2092,-4.2092,0.0,-4.2092,-4.2092,-4.2092,-4.215,-4.2644,-4.2905,-4.305,-4.3602,-4.4021,-4.4339,-4.4865,-4.517,-4.5257,-4.4865,-4.4734,-4.485,-4.5518,-4.5721,-4.575,-4.5866,-4.5895,-4.5895,-4.5895,-4.5895,-4.5866,-4.575,-4.5721,-4.5692,-4.5576,-4.5547,-4.5547,-4.5547,-4.5547,-4.5372,-4.4821,-4.4734,-4.456,-4.4066,-4.4414,-4.4734,-4.4734,-4.4298,-4.3979,-4.3979,-4.4443,-4.4763,-4.4879,-4.5401,-4.5779,-4.5866,-4.6388,-4.665,-4.665,-4.7288,-4.7608,-4.7608,-4.8333,-4.8663,-4.8663,-4.9349,-4.9717,-4.9717,-4.9717,-4.9717,-4.2697,-4.3085,-4.3387,-4.3036,-4.2205,-4.09,-3.8701,0.0,0.0,0.0,-3.347,-3.3395,-3.3162,-3.4198,0.0,-3.5855,-3.7086,-3.8464,-3.9852,-4.0504,0.0,-4.191,-4.2501,-4.3225,0.0,-4.4312,-4.4759,-4.585,-4.5895,-4.5895,-4.5895,-4.4538,-4.3472,-4.3021,-4.2411,-4.2092,-4.2092,-4.2092,-4.2092,-4.2092,-4.2092,-4.2092,-4.2092,-4.2092,-4.2092,-4.2092,-4.2092,0.0,-4.2092,-4.2216,-4.2216,-4.2192,-4.3052,-4.3491,-4.3786,-4.4557,-4.5112,-4.5521,-4.5888,-4.602,-4.6064,-4.5845,-4.5712,-4.5638,-4.5824,-4.5956,-4.6046,-4.594,-4.5956,-4.6046,-4.594,-4.5895,-4.5895,-4.5895,-4.5895,-4.5895,-4.5895,-4.5895,-4.5895,-4.5895,-4.5895,-4.5779,-4.5459,-4.5401,-4.5314,-4.5024,-4.5227,-4.5401,-4.5401,-4.514,-4.4966,-4.4966,-4.5227,-4.5401,-4.5401,-4.6011,-4.6388,-4.6388,-4.6969,-4.7317,-4.7317,-4.7927,-4.8275,-4.8275,-4.8914,-4.9233,-4.9233,-4.9524,-4.9717,-4.9717,-4.9717,-4.9717,-4.2818,-4.2905,-4.2963,-4.3602,-4.2252,-4.028,-3.869,-3.6844,0.0,0.0,-3.3111,-3.3111,-3.3111,-3.3872,-3.4731,0.0,-3.6546,-3.8041,-4.0103,-4.0795,-4.1587,0.0,-4.3321,0.0,-4.4573,-4.4666,0.0,-4.585,-4.575,0.0,-4.5488,-4.4531,-4.3631,-4.2818,-4.2353,-4.2092,-4.2092,-4.2092,-4.2092,-4.2092,-4.2092,-4.2092,-4.2092,-4.2092,-4.2133,-4.2175,-4.2133,0.0,0.0,-4.2351,-4.2398,-4.2561,-4.3507,-4.4167,-4.4672,-4.5534,-4.6181,-4.6668,-4.6668,-4.6668,-4.6741,-4.6668,-4.6491,-4.6269,-4.609,-4.6135,-4.6269,-4.609,-4.6135,-4.6269,-4.609,-4.6075,-4.603,-4.5956,-4.6027,-4.6098,-4.6098,-4.6185,-4.6301,-4.6301,-4.6301,-4.6301,-4.6301,-4.6301,-4.6301,-4.6301,-4.6301,-4.6301,-4.6301,-4.6301,-4.6301,-4.6301,-4.604,-4.5924,-4.6069,-4.6534,-4.6836,-4.7027,-4.7637,-4.7985,-4.7985,-4.8595,-4.8914,-4.8914,-4.9407,-4.9717,-4.9717,-4.9717,-4.9717,-4.9717,-4.9717,-4.9717,-4.2818,-4.2586,-4.2324,-4.2934,-4.208,-4.0462,-3.8213,0.0,0.0,-3.3555,-3.3111,-3.3111,-3.3111,-3.3571,-3.4324,0.0,-3.6749,-3.8382,-4.0122,-4.1964,-4.338,-4.4088,0.0,0.0,-4.573,-4.573,0.0,-4.5895,0.0,0.0,-4.4182,-4.4066,-4.3427,-4.2208,-4.2121,-4.2092,-4.2092,-4.2092,-4.2092,-4.2092,-4.2092,-4.2092,-4.2092,-4.2092,-4.2216,-4.2351,-4.2175,0.0,0.0,-4.2474,-4.2867,-4.3632,-4.428,-4.4929,-4.5577,-4.6255,-4.6653,-4.6887,-4.6887,-4.7019,-4.7222,-4.6931,-4.6712,-4.6535,-4.6565,-4.6565,-4.6535,-4.6565,-4.6565,-4.6535,-4.6565,-4.6565,-4.6447,-4.6225,-4.6437,-4.6691,-4.6691,-4.7201,-4.7608,-4.7608,-4.7608,-4.7608,-4.7608,-4.7608,-4.7608,-4.7608,-4.7608,-4.7608,-4.7608,-4.7608,-4.7608,-4.7608,-4.6563,-4.6127,-4.6662,-4.6749,-4.7085,-4.7666,-4.8275,-4.8653,-4.8653,-4.9262,-4.9582,-4.9582,-4.9688,-4.9717,-4.9717,-4.9717,-4.9717,-4.9717,-4.9717,-4.9717,-4.2266,-4.2266,-4.215,-4.2382,-4.1453,-4.0129,-3.8738,0.0,-3.6371,-3.4936,-3.4204,-3.4021,-3.4511,-3.4386,-3.4719,-3.6359,-3.7166,-3.838,-4.0795,-4.1813,-4.2879,-4.4486,-4.5033,0.0,0.0,0.0,-4.5895,-4.5895,0.0,0.0,-4.4037,-4.3602,-4.2992,-4.2121,-4.2092,-4.2092,-4.2092,-4.2092,-4.2175,-4.2269,-4.2175,-4.2257,-4.2474,-4.2216,-4.2298,-4.2566,-4.2351,0.0,0.0,-4.2729,-4.3112,-4.3803,-4.4662,-4.5357,-4.5954,-4.6737,-4.7062,-4.7149,-4.7149,-4.7222,-4.7266,-4.7149,-4.733,-4.757,-4.7303,-4.7303,-4.7407,-4.7731,-4.7894,-4.7985,-4.7849,-4.7804,-4.7759,-4.7668,-4.7783,-4.7867,-4.7867,-4.798,-4.8016,-4.8016,-4.7922,-4.7782,-4.7782,-4.7782,-4.7782,-4.7782,-4.7782,-4.7782,-4.7782,-4.7782,-4.7782,-4.7782,-4.7317,-4.7114,-4.7375,-4.7753,-4.8072,-4.8333,-4.8943,-4.9291,-4.9291,-4.9553,-4.9717,-4.9717,-4.9717,-4.9717,-4.9717,-4.9717,-4.9717,-4.9717,-4.9717,-4.9717,-4.1686,-4.1947,-4.2092,-4.2092,-4.1076,-3.9892,0.0,-3.7889,-3.6649,-3.5789,-3.4965,-3.4662,-3.5467,-3.4924,-3.5004,-3.6845,-3.7521,-3.8655,-4.101,-4.1707,-4.2681,0.0,0.0,-4.4879,0.0,-4.5779,-4.5895,-4.5895,0.0,0.0,-4.4008,-4.3195,-4.2528,-4.2121,-4.2092,-4.2092,-4.2092,-4.2175,-4.2257,-4.231,-4.2298,-4.2392,-4.2607,-4.2392,-4.2474,-4.2769,-4.2596,0.0,0.0,-4.3178,-4.3623,-4.4264,-4.5209,-4.5938,-4.6437,-4.7086,-4.7309,-4.7309,-4.7309,-4.7309,-4.7339,-4.7549,-4.7908,-4.8312,-4.8342,-4.8357,-4.8387,-4.8727,-4.8892,-4.8983,-4.8846,-4.8755,-4.8709,-4.8709,-4.8765,-4.8866,-4.8774,-4.8735,-4.8741,-4.8646,-4.8475,-4.8333,-4.8333,-4.8333,-4.8333,-4.8333,-4.8333,-4.8333,-4.8333,-4.8333,-4.8333,-4.8333,-4.8333,-4.8275,-4.8072,-4.8478,-4.875,-4.9001,-4.9436,-4.9717,-4.9717,-4.9717,-4.9717,-4.9717,-4.9717,-4.9717,-4.9717,-4.9717,-4.9717,-4.9717,-4.9717,-4.9717,-4.1105,-4.1599,-4.2092,-4.2092,-4.1076,-3.9892,-3.909,-3.7889,-3.6649,-3.5789,-3.4965,-3.4662,-3.5467,-3.4924,-3.4873,-3.6263,-3.7854,-3.9268,-4.0435,-4.198,-4.3253,0.0,0.0,-4.424,-4.485,-4.5488,-4.5895,-4.5895,0.0,0.0,-4.3979,-4.2789,-4.2121,-4.2092,-4.2092,-4.2092,-4.2092,-4.2298,-4.2298,-4.2092,-4.2514,-4.2566,-4.2392,-4.2607,-4.2809,0.0,0.0,0.0,0.0,-4.3805,-4.4501,-4.5364,-4.6052,-4.6711,-4.7309,-4.7309,-4.7309,-4.7309,-4.7309,-4.7309,-4.7429,-4.8057,-4.8267,-4.8536,-4.9777,-4.9763,-4.9299,-4.9299,-4.9299,-4.9299,-4.9299,-4.9119,-4.8907,-4.8907,-4.9182,-4.9422,-4.9157,-4.9589,-5.0009,-4.9766,-4.9688,-4.9688,-4.9688,-4.9688,-4.9688,-4.9688,-4.9688,-4.9688,-4.9688,-4.9688,-4.9688,-4.9688,-4.9688,-4.9407,-4.8769,-4.8663,-4.9001,-4.964,-4.9717,-4.9717,-4.9717,-4.9717,-4.9717,-4.9717,-4.9717,-4.9717,-4.9717,-4.9717,-4.9717,-4.9717,-4.9717,-4.9717,-4.0292,-4.0554,-4.0728,-4.0728,-4.0089,-3.9402,-3.9168,-3.8428,-3.772,-3.7424,-3.6688,-3.6373,-3.7232,-3.6688,-3.6884,-3.9284,-4.0077,-4.0855,0.0,0.0,0.0,-4.3979,-4.4763,-4.5372,0.0,0.0,-4.5692,0.0,0.0,0.0,-4.334,-4.2528,-4.2092,-4.2092,-4.2257,-4.2339,-4.2339,-4.2514,-4.2648,-4.2729,-4.2688,-4.2809,-4.301,-4.2809,-4.289,0.0,0.0,0.0,0.0,-4.3967,-4.4624,-4.5364,-4.6052,-4.6741,-4.7309,-4.7309,-4.7309,-4.7309,-4.7309,-4.7608,-4.7997,-4.8207,-4.8895,-4.9657,-5.0076,-5.0046,-5.0032,-5.0481,-5.0601,-5.0601,-5.0601,-5.0554,-5.0461,-5.0461,-5.0564,-5.0619,-5.0572,-5.0579,-5.0537,-5.0489,-5.0375,-5.0231,-5.0231,-5.0086,-4.999,-4.999,-4.9815,-4.9717,-4.9717,-4.9717,-4.9717,-4.9717,-4.9717,-4.9582,-4.9378,-4.9378,-4.9465,-4.9717,-4.9717,-4.9717,-4.9717,-4.9717,-4.9717,-4.9717,-4.9717,-4.9717,-4.9717,-4.9717,-4.9717,-4.9717,-4.9717,-4.9717,-3.9596,-3.9915,-4.0089,-4.0089,-3.9654,-3.9189,-3.9189,-3.8667,-3.8202,-3.8202,-3.7529,-3.7183,-3.8052,-3.7491,-3.759,-3.9681,-4.0408,-4.1076,0.0,0.0,0.0,-4.395,0.0,0.0,0.0,-4.575,-4.5605,0.0,0.0,0.0,-4.3148,-4.2536,-4.2257,-4.231,-4.2351,-4.2433,-4.2514,-4.2729,-4.285,-4.289,-4.293,-4.301,-4.317,-4.301,-4.305,0.0,0.0,0.0,0.0,-4.4317,-4.4915,-4.5394,-4.6322,-4.695,-4.7309,-4.7309,-4.7309,-4.7309,-4.7309,-4.7728,-4.8327,-4.8566,-4.9553,-5.0554,-5.0554,-5.0554,-5.0644,-5.1063,-5.1229,-5.1229,-5.1229,-5.1229,-5.1229,-5.1229,-5.1229,-5.1182,-5.1058,-5.0917,-5.0775,-5.068,-5.0567,-5.0453,-5.0357,-5.0183,-5.0086,-4.999,-4.9815,-4.9717,-4.9717,-4.9717,-4.9717,-4.9717,-4.9717,-4.9717,-4.9717,-4.9717,-4.9717,-4.9717,-4.9717,-4.9717,-4.9717,-4.9717,-4.9717,-4.9717,-4.9717,-4.9717,-4.9717,-4.9717,-4.9717,-4.9717,-4.9717,-4.9717,0.0,-3.9538,-3.9973,-3.9973,-3.9538,-3.9131,-3.9131,-3.8638,0.0,-3.8202,-3.7567,-3.726,-3.811,-3.7558,-3.7289,-3.8263,-3.9392,-4.0408,0.0,-4.2266,0.0,0.0,-4.4618,0.0,-4.4966,-4.5488,-4.5547,0.0,0.0,0.0,-4.3257,-4.2714,-4.2514,-4.2729,-4.2555,-4.2555,-4.2729,-4.29,-4.293,-4.2729,-4.313,-4.321,-4.3021,-4.321,-4.329,0.0,0.0,0.0,0.0,-4.4766,-4.5304,-4.5424,-4.677,-4.7309,-4.7309,-4.7309,-4.7309,-4.7309,-4.7369,-4.7818,-4.8476,-4.9209,-5.0242,-5.1229,-5.1229,-5.1229,-5.1229,-5.1229,-5.1229,-5.1229,-5.1229,-5.1229,-5.1229,-5.1229,-5.1229,-5.1105,-5.087,-5.0822,-5.0775,-5.0596,-5.0548,-5.0453,-5.0183,-5.0135,-5.0038,-4.9766,-4.9717,-4.9717,-4.9717,-4.9717,-4.9717,-4.9717,-4.9717,-4.9717,-4.9717,-4.9717,-4.9717,-4.9717,-4.9717,-4.9717,-4.9717,-4.9717,-4.9717,-4.9717,-4.9717,-4.9717,-4.9717,-4.9717,-4.9717,-4.9717,-4.9717,-4.9717,-3.8405,0.0,-3.8638,-3.8638,-3.8551,-3.8434,0.0,-3.8318,-3.8202,-3.8202,-3.8052,-3.8121,-3.8832,-3.8399,-3.8438,-4.0137,-4.067,-4.1105,-4.1773,0.0,0.0,-4.5314,-4.5576,-4.5663,-4.5663,-4.5314,-4.4879,0.0,0.0,-4.3215,-4.2655,-4.2614,-4.2729,-4.29,-4.289,-4.289,-4.29,-4.313,-4.321,-4.317,-4.325,-4.329,-4.325,-4.329,-4.329,0.0,0.0,0.0,-4.3379,-4.4766,-4.5304,-4.5424,-4.677,-4.7309,-4.7309,-4.7309,-4.7309,-4.7369,-4.7878,-4.8476,-4.9224,-5.0391,-5.096,-5.1229,-5.1229,-5.1229,-5.1229,-5.1229,-5.1229,-5.1229,-5.1229,-5.1229,-5.1229,-5.1229,-5.1229,-5.1182,-5.1105,-5.1105,-5.1058,-5.1041,-5.087,-5.0728,-5.0632,-5.0346,-5.0086,-5.0038,-4.9815,-4.9717,-4.9717,-4.9717,-4.9717,-4.9717,-4.9717,-4.9717,-4.9717,-4.9717,-4.9717,-4.9717,-4.9717,-4.9717,-4.9717,-4.9717,-4.9717,-4.9717,-4.9717,-4.9717,-4.9717,-4.9717,-4.9717,-4.9717,-4.9717,-4.9717,-3.8202,-3.8434,-3.8667,-3.8667,-3.8667,-3.8667,-3.8667,-3.8434,-3.8202,-3.8202,-3.8202,-3.8318,-3.8667,-3.8696,-3.9015,-4.006,-4.0728,0.0,0.0,0.0,-4.5111,-4.5808,-4.5895,-4.5895,0.0,0.0,0.0,0.0,0.0,-4.3106,-4.2677,-4.2769,-4.293,-4.313,-4.317,-4.317,-4.317,-4.325,-4.329,-4.329,-4.329,-4.329,-4.329,-4.329,-4.329,0.0,0.0,0.0,-4.3828,-4.4885,-4.5484,-4.5873,-4.689,-4.7309,-4.7309,-4.7309,-4.7489,-4.7818,-4.8147,-4.8925,-4.9883,-5.09,-5.1229,-5.1229,-5.1229,-5.1229,-5.1229,-5.1229,-5.1229,-5.1229,-5.1229,-5.1229,-5.1229,-5.1229,-5.1229,-5.1229,-5.1229,-5.1229,-5.1229,-5.1229,-5.1058,-5.0964,-5.0822,-5.0585,-5.0423,-5.0279,-5.0038,-4.9892,-4.9892,-4.9766,-4.9717,-4.9717,-4.9717,-4.9717,-4.9717,-4.9717,-4.9717,-4.9717,-4.9717,-4.9717,-4.9717,-4.9717,-4.9717,-4.9717,-4.9717,-4.9717,-4.9717,-4.9717,-4.9717,-4.9717,-4.9717,-4.9717,-3.8318,-3.8899,-3.9421,-3.9131,-3.9131,-3.9189,-3.9073,-3.8609,-3.8202,-3.8202,-3.8202,-3.826,-3.8463,-3.8957,-3.9392,-3.9625,0.0,0.0,-4.3863,-4.5053,-4.5779,-4.5866,-4.5895,0.0,-4.575,0.0,0.0,0.0,0.0,-4.3196,-4.301,-4.3021,-4.313,-4.329,-4.329,-4.329,-4.329,-4.329,-4.329,-4.329,-4.329,-4.329,-4.329,-4.329,-4.329,-4.329,0.0,0.0,-4.4377,-4.5035,-4.5693,-4.6381,-4.704,-4.7309,-4.7309,-4.7309,-4.7728,-4.8327,-4.8506,-4.9374,-5.0435,-5.105,-5.1229,-5.1229,-5.1229,-5.1229,-5.1229,-5.1229,-5.1229,-5.1229,-5.1229,-5.1229,-5.1229,-5.1229,-5.1229,-5.1229,-5.1229,-5.1229,-5.1229,-5.1229,-5.1182,-5.1058,-5.087,-5.0775,-5.068,-5.0548,-5.0309,-5.0135,-5.0135,-4.9941,-4.9766,-4.9766,-4.9717,-4.9717,-4.9717,-4.9717,-4.9717,-4.9717,-4.9717,-4.9717,-4.9717,-4.9717,-4.9717,-4.9717,-4.9717,-4.9717,-4.9717,-4.9717,-4.9717,-4.9717,-4.9717,-4.9717,-3.8899,-3.9915,-4.0408,-3.8754,-3.8783,-3.9044,-3.8492,-3.8289,-3.8202,-3.8202,-3.8202,-3.8522,-3.9596,-3.9886,-4.0321,-4.1453,0.0,-4.3195,0.0,0.0,-4.5256,-4.5808,0.0,-4.5663,0.0,0.0,0.0,0.0,0.0,-4.3019,-4.2981,-4.317,-4.325,-4.329,-4.329,-4.329,-4.329,-4.329,-4.329,-4.329,-4.329,-4.329,-4.329,-4.329,-4.329,-4.329,0.0,-4.3678,-4.4377,-4.5035,-4.5693,-4.6381,-4.704,-4.7309,-4.7309,-4.7309,-4.7728,-4.8446,-4.9553,-5.0375,-5.1079,-5.1199,-5.1229,-5.1229,-5.1229,-5.1229,-5.1229,-5.1229,-5.1229,-5.1229,-5.1229,-5.1229,-5.1229,-5.1229,-5.1229,-5.1229,-5.1229,-5.1229,-5.1229,-5.1229,-5.1011,-5.087,-5.0793,-5.0662,-5.0548,-5.0501,-5.0453,-5.0453,-5.0453,-5.0183,-5.0038,-5.0038,-4.9815,-4.9717,-4.9717,-4.9717,-4.9717,-4.9717,-4.9717,-4.9717,-4.9717,-4.9717,-4.9717,-4.9717,-4.9717,-4.9717,-4.9717,-4.9717,-4.9717,-4.9717,-4.9717,-4.9717,-3.858,-3.9363,-3.9944,-3.9363,-4.0002,-4.0583,-3.9915,-3.9479,-3.9218,-3.9218,-3.9218,-3.9421,-3.9973,0.0,-4.1599,-4.2905,0.0,-4.4211,-4.4821,-4.5198,-4.5547,0.0,0.0,-4.5634,0.0,0.0,0.0,0.0,0.0,0.0,-4.317,-4.325,-4.329,-4.329,-4.329,-4.329,-4.329,-4.329,-4.329,-4.329,-4.329,-4.329,-4.329,-4.329,-4.329,-4.3319,0.0,-4.4227,-4.4885,-4.5574,-4.6262,-4.689,-4.7189,-4.7309,-4.7399,-4.8087,-4.8566,-4.9015,-5.0301,-5.096,-5.1229,-5.1229,-5.1229,-5.1229,-5.1229,-5.1229,-5.1229,-5.1229,-5.1229,-5.1229,-5.1229,-5.1229,-5.1229,-5.1229,-5.1229,-5.1229,-5.1229,-5.1229,-5.1229,-5.1229,-5.1105,-5.1011,-5.1011,-5.0947,-5.0852,-5.0852,-5.0692,-5.0501,-5.0501,-5.0135,-4.9892,-4.9892,-4.9766,-4.9717,-4.9717,-4.9717,-4.9717,-4.9717,-4.9717,-4.9717,-4.9717,-4.9717,-4.9717,-4.9717,-4.9717,-4.9717,-4.9717,-4.9717,-4.9921,-5.022,-5.022,-5.0394,-3.8452,-3.8975,-3.9576,-3.9973,-4.0757,-4.1395,-4.1337,-4.0699,-4.0176,-4.0495,-4.0437,-4.0379,0.0,-4.1657,0.0,-4.4037,-4.4705,-4.5111,-4.5111,-4.5576,-4.5895,-4.5895,-4.575,0.0,0.0,0.0,0.0,0.0,0.0,0.0,-4.329,-4.329,-4.329,-4.329,-4.329,-4.329,-4.329,-4.329,-4.329,-4.329,-4.329,-4.329,-4.329,-4.329,-4.3379,-4.3559,-4.4107,-4.4766,-4.5574,-4.6112,-4.6711,-4.7309,-4.7309,-4.7399,-4.7668,-4.888,-4.9419,-4.9643,-5.081,-5.1229,-5.1229,-5.1229,-5.1229,-5.1229,-5.1229,-5.1229,-5.1229,-5.1229,-5.1229,-5.1229,-5.1229,-5.1229,-5.1229,-5.1229,-5.1229,-5.1229,-5.1229,-5.1229,-5.1229,-5.1229,-5.1229,-5.1229,-5.1229,-5.1229,-5.1229,-5.1229,-5.0899,-5.0644,-5.0567,-5.0183,-4.9892,-4.9766,-4.9717,-4.9717,-4.9717,-4.9717,-4.9717,-4.9717,-4.9717,-4.9717,-4.9717,-4.9717,-4.9717,-4.9717,-4.9717,-4.9717,-4.9717,-4.9892,-5.0211,-5.0734,-5.083,-5.1149,-3.927,-3.9837,-4.0295,-4.0128,-3.9741,-3.9857,-4.1628,-4.1018,-4.0437,-4.1686,-4.1453,-4.1221,-4.1831,-4.2992,-4.4066,-4.4705,-4.5372,-4.5808,-4.5808,0.0,-4.5895,-4.5895,0.0,0.0,0.0,0.0,0.0,0.0,0.0,0.0,-4.329,-4.329,-4.329,-4.329,-4.329,-4.329,-4.329,-4.329,-4.329,-4.329,-4.329,-4.329,-4.329,-4.329,-4.3618,-4.4257,-4.4287,-4.5035,-4.6219,-4.6249,-4.6711,-4.7309,-4.7309,-4.7668,-4.8297,-4.906,-4.9643,-5.0226,-5.0913,-5.1229,-5.1229,-5.1229,-5.1229,-5.1229,-5.1229,-5.1229,-5.1229,-5.1229,-5.1229,-5.1229,-5.1229,-5.1229,-5.1229,-5.1229,-5.1229,-5.1229,-5.1229,-5.1229,-5.1229,-5.1229,-5.1229,-5.1229,-5.1229,-5.1229,-5.1229,-5.1229,-5.1182,-5.1058,-5.0822,-5.0567,-5.0357,-5.0086,-4.9844,-4.9717,-4.9717,-4.9717,-4.9717,-4.9717,-4.9717,-4.9717,-4.9717,-4.9717,-4.9717,-4.9717,-4.9717,-4.9717,-4.9717,-5.0307,-5.0627,-5.0685,-5.1265,-5.1585,-3.898,-3.9613,-4.0236,-4.0275,-4.0313,-4.067,-4.1831,-4.1715,-4.1715,-4.3021,-4.3079,-4.2963,-4.3224,0.0,-4.4182,-4.4792,-4.5459,-4.5895,-4.5895,-4.5895,0.0,0.0,0.0,0.0,0.0,0.0,0.0,0.0,0.0,0.0,-4.329,-4.329,-4.329,-4.329,-4.329,-4.329,-4.329,-4.329,-4.329,-4.329,-4.329,-4.329,-4.329,-4.329,-4.3648,-4.4347,-4.4736,-4.5454,-4.6309,-4.677,-4.707,-4.7309,-4.7309,-4.7698,-4.8356,-4.906,-4.9673,-5.0285,-5.099,-5.1229,-5.1229,-5.1229,-5.1229,-5.1229,-5.1229,-5.1229,-5.1229,-5.1229,-5.1229,-5.1229,-5.1229,-5.1229,-5.1229,-5.1229,-5.1229,-5.1229,-5.1229,-5.1229,-5.1229,-5.1229,-5.1229,-5.1229,-5.1229,-5.1229,-5.1229,-5.1229,-5.1058,-5.0917,-5.0793,-5.0614,-5.0453,-5.0357,-5.0086,-4.9892,-4.9717,-4.9717,-4.9717,-4.9717,-4.9717,-4.9717,-4.9717,-4.9717,-4.9717,-4.9717,-5.0075,-5.0307,-5.0307,-5.0946,-5.1468,-5.1897,-5.2107,-5.2426,-3.9092,-3.9589,-4.013,-4.0256,-4.0596,-4.1157,-4.2121,-4.2382,-4.2731,-4.4008,-4.4124,-4.3921,-4.3718,0.0,0.0,0.0,-4.5314,-4.5895,-4.5895,0.0,0.0,0.0,0.0,0.0,0.0,0.0,0.0,0.0,0.0,0.0,0.0,-4.329,-4.329,-4.329,-4.329,-4.329,-4.329,-4.329,-4.329,-4.329,-4.329,-4.329,-4.329,-4.3499,-4.3977,-4.4646,-4.5334,-4.5992,-4.6681,-4.713,-4.7309,-4.7339,-4.7549,-4.8027,-4.8686,-4.9344,-4.9972,-5.0554,-5.105,-5.1229,-5.1229,-5.1229,-5.1229,-5.1229,-5.1229,-5.1229,-5.1229,-5.1229,-5.1229,-5.1229,-5.1229,-5.1229,-5.1229,-5.1229,-5.1229,-5.1229,-5.1229,-5.1229,-5.1229,-5.1229,-5.1229,-5.1229,-5.1229,-5.1229,-5.1229,-5.1229,-5.1058,-5.0917,-5.0793,-5.068,-5.0567,-5.0501,-5.0231,-5.0038,-4.9815,-4.9921,-5.0037,-5.0037,-5.0162,-5.0191,-4.9988,-5.0191,-5.0278,-5.0278,-5.0743,-5.0975,-5.0975,-5.1614,-5.2136,-5.2623,-5.2775,-5.3094,-3.9912,-3.995,-4.0098,-4.01,-4.0275,-4.0879,-4.2598,-4.2992,-4.3369,-4.4647,-4.4414,-4.3805,-4.3137,-4.3544,0.0,-4.4008,-4.5053,-4.5866,0.0,0.0,0.0,0.0,0.0,0.0,0.0,0.0,0.0,0.0,0.0,0.0,0.0,-4.329,-4.329,-4.329,-4.329,-4.329,-4.329,-4.329,-4.329,-4.329,-4.329,-4.329,-4.3319,-4.3977,-4.4676,-4.5334,-4.6022,-4.6681,-4.7309,-4.7309,-4.7309,-4.7369,-4.8027,-4.8686,-4.9389,-5.0002,-5.0614,-5.1229,-5.1229,-5.1229,-5.1229,-5.1229,-5.1229,-5.1229,-5.1229,-5.1229,-5.1229,-5.1229,-5.1229,-5.1229,-5.1229,-5.1229,-5.1229,-5.1229,-5.1229,-5.1229,-5.1229,-5.1229,-5.1229,-5.1229,-5.1229,-5.1229,-5.1229,-5.1229,-5.1229,-5.1229,-5.1229,-5.1135,-5.087,-5.0822,-5.0757,-5.0548,-5.026,-5.0116,-5.0116,-5.0455,-5.0685,-5.0685,-5.1265,-5.1352,-5.0714,-5.1294,-5.1614,-5.1614,-5.1643,-5.1643,-5.1643,-5.2281,-5.2623,-5.2652,-5.321,-5.35,-3.9645,-3.992,-4.0353,-4.0519,-4.1376,-4.2378,-4.2847,-4.334,-4.4066,-4.5314,-4.5082,-4.456,-4.4356,-4.4472,0.0,-4.4618,-4.4937,-4.5198,0.0,0.0,0.0,0.0,0.0,0.0,0.0,0.0,0.0,0.0,0.0,0.0,0.0,-4.329,-4.329,-4.329,-4.329,-4.329,-4.329,-4.329,-4.329,-4.329,-4.329,-4.329,-4.3319,-4.3977,-4.4676,-4.5334,-4.6022,-4.6681,-4.7309,-4.7309,-4.7309,-4.7369,-4.8027,-4.8686,-4.9389,-5.0002,-5.0614,-5.1229,-5.1229,-5.1229,-5.1229,-5.1229,-5.1229,-5.1229,-5.1229,-5.1229,-5.1229,-5.1229,-5.1229,-5.1229,-5.1229,-5.1229,-5.1229,-5.1229,-5.1229,-5.1229,-5.1229,-5.1229,-5.1229,-5.1229,-5.1229,-5.1229,-5.1229,-5.1229,-5.1229,-5.1229,-5.1618,-5.2019,-5.2449,-5.2479,-5.2316,-5.1906,-5.1758,-5.1561,-5.1212,-5.1287,-5.1323,-5.1323,-5.1933,-5.1991,-5.1381,-5.1527,-5.1614,-5.1614,-5.2049,-5.2281,-5.2281,-5.292,-5.3239,-5.3239,-5.3442,-5.35,-4.0285,-4.0436,-4.0754,-4.1557,-4.2439,-4.3322,-4.4079,-4.4414,-4.4778,-4.5707,-4.5461,-4.4953,-4.4632,-4.4531,0.0,-4.4182,-4.4443,0.0,0.0,0.0,0.0,0.0,0.0,0.0,0.0,0.0,0.0,0.0,0.0,0.0,0.0,-4.329,-4.329,-4.329,-4.329,-4.329,-4.329,-4.329,-4.329,-4.329,-4.329,-4.329,-4.3319,-4.4287,-4.4915,-4.5334,-4.6292,-4.695,-4.7309,-4.7309,-4.7309,-4.7399,-4.8327,-4.897,-4.9419,-5.0301,-5.0823,-5.1229,-5.1229,-5.1229,-5.1229,-5.1229,-5.1229,-5.1229,-5.1229,-5.1229,-5.1229,-5.1229,-5.1229,-5.1229,-5.1229,-5.1229,-5.1229,-5.1229,-5.1229,-5.1229,-5.1229,-5.1229,-5.1229,-5.1229,-5.1229,-5.1229,-5.1229,-5.1229,-5.1319,-5.1558,-5.2157,-5.2725,-5.3144,-5.3174,-5.3058,-5.2615,-5.2466,-5.2218,-5.1816,-5.1897,-5.1991,-5.1991,-5.2601,-5.2775,-5.2397,-5.2368,-5.2368,-5.2368,-5.2746,-5.2949,-5.2949,-5.3326,-5.35,-5.35,-5.35,-5.35,-4.141,-4.1283,-4.1332,-4.3113,-4.3516,-4.3972,-4.5727,-4.5683,-4.5347,-4.5752,0.0,-4.4952,-4.4182,-4.4022,-4.3819,-4.3251,0.0,0.0,0.0,0.0,0.0,0.0,0.0,0.0,0.0,0.0,0.0,0.0,0.0,0.0,0.0,-4.329,-4.329,-4.329,-4.329,-4.329,-4.329,-4.329,-4.329,-4.329,-4.329,-4.329,-4.3349,-4.4706,-4.5364,-4.5544,-4.677,-4.7309,-4.7309,-4.7309,-4.7309,-4.7429,-4.879,-4.9299,-4.9479,-5.075,-5.1229,-5.1229,-5.1229,-5.1229,-5.1229,-5.1229,-5.1229,-5.1229,-5.1229,-5.1229,-5.1229,-5.1229,-5.1229,-5.1229,-5.1229,-5.1229,-5.1229,-5.1229,-5.1229,-5.1229,-5.1229,-5.1229,-5.1229,-5.1229,-5.1229,-5.1229,-5.1229,-5.1229,-5.1468,-5.2187,-5.2845,-5.3294,-5.3354,-5.3354,-5.3256,-5.304,-5.2743,-5.2444,-5.2214,-5.2464,-5.271,-5.271,-5.321,-5.35,-5.35,-5.35,-5.35,-5.35,-5.35,-5.35,-5.35,-5.35,-5.35,-5.35,-5.35,-5.35,-4.139,-4.1632,-4.2288,-4.4164,-4.4853,-4.5226,-4.5638,-4.5355,-4.5132,-4.5391,-4.4792,-4.4283,-4.4266,-4.4237,-4.4264,0.0,0.0,0.0,0.0,0.0,0.0,0.0,0.0,0.0,0.0,0.0,0.0,0.0,0.0,0.0,-4.329,-4.329,-4.329,-4.329,-4.329,-4.329,-4.329,-4.329,-4.329,0.0,-4.329,-4.329,-4.3349,-4.4706,-4.5873,-4.689,-4.7189,-4.7309,-4.7309,-4.7309,-4.7309,-4.7429,-4.879,-4.9299,-4.9479,-5.075,-5.1229,-5.1229,-5.1229,-5.1229,-5.1229,-5.1229,-5.1229,-5.1229,-5.1229,-5.1229,-5.1229,-5.1229,-5.1229,-5.1229,-5.1229,-5.1229,-5.1229,-5.1229,-5.1229,-5.1229,-5.1229,-5.1229,-5.1229,-5.1229,-5.1229,-5.1229,-5.1229,-5.1229,-5.1618,-5.2785,-5.3563,-5.4192,-5.47,-5.476,-5.466,-5.4408,-5.4073,-5.3789,-5.348,-5.3367,-5.3326,-5.3326,-5.3442,-5.35,-5.35,-5.35,-5.35,-5.35,-5.35,-5.35,-5.35,-5.35,-5.35,-5.35,-5.35,-5.35,-4.1352,-4.1793,-4.2376,-4.43,-4.5306,-4.5677,-4.5395,-4.4832,-4.4406,-4.4647,-4.4579,-4.4376,-4.4082,-4.4024,0.0,0.0,0.0,0.0,0.0,0.0,0.0,0.0,0.0,0.0,0.0,0.0,0.0,0.0,0.0,-4.329,-4.329,-4.329,-4.329,-4.329,-4.329,-4.329,-4.329,-4.329,-4.329,-4.329,-4.329,-4.3618,-4.4287,-4.4975,-4.6022,-4.7309,-4.7309,-4.7309,-4.7309,-4.7309,-4.7489,-4.7878,-4.891,-4.9464,-4.9853,-5.084,-5.1229,-5.1229,-5.1229,-5.1229,-5.1229,-5.1229,-5.1229,-5.1229,-5.1229,-5.1229,-5.1229,-5.1229,-5.1229,-5.1229,-5.1229,-5.1229,-5.1229,-5.1229,-5.1229,-5.1229,-5.1229,-5.1229,-5.1229,-5.1229,-5.1229,-5.1229,-5.1229,-5.1738,-5.2486,-5.3533,-5.4251,-5.479,-5.5149,-5.5179,-5.5108,-5.4854,-5.4619,-5.4436,-5.4097,-5.3942,-5.3815,-5.371,-5.371,-5.3605,-5.35,-5.35,-5.35,-5.35,-5.35,-5.35,-5.35,-5.35,-5.35,-5.35,-5.35,-5.35,-4.0969,-4.1863,-4.2562,-4.4275,-4.5302,0.0,-4.5054,-4.4235,-4.3678,-4.3842,-4.4258,-4.4383,-4.3714,0.0,0.0,0.0,0.0,0.0,0.0,0.0,0.0,0.0,0.0,0.0,0.0,0.0,0.0,0.0,0.0,-4.329,-4.329,-4.329,-4.329,-4.329,-4.329,-4.329,-4.329,-4.329,-4.329,-4.329,-4.329,-4.4018,-4.5304,-4.5304,-4.6022,-4.7309,-4.7309,-4.7309,-4.7309,-4.7309,-4.7698,-4.8356,-4.906,-4.9673,-5.0255,-5.0913,-5.1229,-5.1229,-5.1229,-5.1229,-5.1229,-5.1229,-5.1229,-5.1229,-5.1229,-5.1229,-5.1229,-5.1229,-5.1229,-5.1229,-5.1229,-5.1229,-5.1229,-5.1229,-5.1229,-5.1229,-5.1229,-5.1229,-5.1229,-5.1229,-5.1319,-5.1379,-5.1379,-5.2486,-5.3563,-5.4132,-5.476,-5.5179,-5.5179,-5.5179,-5.5078,-5.4905,-5.4854,-5.4671,-5.4406,-5.4304,-5.4149,-5.389,-5.3867,-5.371,-5.35,-5.35,-5.35,-5.35,-5.35,-5.35,-5.35,-5.35,-5.35,-5.35,-5.35,-5.35,-3.9636,0.0,-4.4176,0.0,-4.5281,-4.5233,0.0,0.0,-4.3359,0.0,-4.3178,-4.3046,0.0,0.0,0.0,0.0,0.0,0.0,0.0,0.0,0.0,0.0,0.0,0.0,0.0,0.0,0.0,0.0,-4.329,-4.329,-4.329,-4.329,-4.329,-4.329,-4.329,-4.329,-4.329,-4.329,-4.329,-4.329,-4.329,-4.4018,-4.5304,-4.5304,-4.6022,-4.7309,-4.7309,-4.7309,-4.7309,-4.7309,-4.7698,-4.8356,-4.906,-4.9673,-5.0255,-5.0913,-5.1229,-5.1229,-5.1229,-5.1229,-5.1229,-5.1229,-5.1229,-5.1229,-5.1229,-5.1229,-5.1229,-5.1229,-5.1229,-5.1229,-5.1229,-5.1229,-5.1229,-5.1229,-5.1229,-5.1229,-5.1229,-5.1229,-5.1229,-5.1229,-5.1678,-5.2067,-5.2067,-5.3174,-5.4102,-5.4192,-5.476,-5.5179,-5.5179,-5.5179,-5.5209,-5.5128,-5.4955,-5.4803,-5.4751,-5.423,-5.3942,-5.3919,-5.3658,-5.3553,-5.35,-5.35,-5.35,-5.35,-5.35,-5.35,-5.35,-5.35,-5.35,-5.35,-5.35,-5.35,-4.0008,-4.1833,-4.3479,0.0,-4.4736,-4.4556,-4.3858,0.0,-4.329,-4.329,-4.317,0.0,0.0,0.0,0.0,0.0,0.0,0.0,0.0,0.0,0.0,0.0,0.0,0.0,0.0,0.0,0.0,0.0,-4.329,-4.329,-4.329,-4.329,-4.329,-4.329,-4.329,-4.329,-4.329,-4.329,-4.329,-4.329,-4.329,-4.4018,-4.5304,-4.5304,-4.6022,-4.7309,-4.7309,-4.7309,-4.7309,-4.7309,-4.7908,-4.891,-4.9209,-4.9883,-5.0794,-5.1109,-5.1229,-5.1229,-5.1229,-5.1229,-5.1229,-5.1229,-5.1229,-5.1229,-5.1229,-5.1229,-5.1229,-5.1229,-5.1229,-5.1229,-5.1229,-5.1229,-5.1229,-5.1229,-5.1498,-5.1768,-5.1768,-5.1768,-5.1887,-5.2247,-5.2546,-5.2875,-5.3264,-5.3832,-5.4341,-5.47,-5.4999,-5.5179,-5.5179,-5.5179,-5.5179,-5.5179,-5.5078,-5.4955,-5.4803,-5.4568,-5.423,-5.3919,-5.3815,-5.3658,-5.35,-5.35,-5.35,-5.35,-5.35,-5.35,-5.35,-5.35,-5.35,-5.35,-5.35,-5.35,0.0,0.0,-4.1961,-4.324,-4.3808,-4.3888,0.0,0.0,-4.329,0.0,0.0,0.0,0.0,0.0,0.0,0.0,0.0,0.0,0.0,0.0,0.0,0.0,0.0,0.0,0.0,0.0,0.0,0.0,-4.329,-4.329,-4.329,-4.329,-4.329,-4.329,-4.329,-4.329,-4.329,-4.3527,-4.3527,-4.329,-4.3527,-4.4218,-4.5304,-4.5304,-4.6149,-4.7624,-4.7396,-4.7309,-4.7309,-4.7309,-4.8087,-4.9299,-4.9299,-5.0062,-5.1229,-5.1229,-5.1229,-5.1229,-5.1229,-5.1229,-5.1229,-5.1229,-5.1229,-5.1229,-5.1229,-5.1229,-5.1229,-5.1229,-5.1229,-5.1229,-5.1229,-5.1229,-5.1259,-5.1439,-5.1858,-5.2247,-5.2426,-5.2456,-5.2606,-5.3084,-5.3324,-5.3593,-5.4132,-5.4341,-5.461,-5.5119,-5.5179,-5.5179,-5.5179,-5.5179,-5.5179,-5.5179,-5.5179,-5.5128,-5.4905,-5.4854,-5.4568,-5.4075,-5.3942,-5.3762,-5.35,-5.35,-5.35,-5.35,-5.35,-5.35,-5.35,-5.35,-5.35,-5.35,-5.35,-5.35,0.0,-3.905,0.0,-4.1205,-4.2462,0.0,0.0,0.0,0.0,0.0,0.0,0.0,0.0,0.0,0.0,0.0,0.0,0.0,0.0,0.0,0.0,0.0,0.0,0.0,0.0,0.0,0.0,0.0,-4.329,-4.329,-4.329,-4.329,-4.329,-4.329,-4.329,-4.329,-4.329,-4.4082,-4.4082,-4.329,-4.4082,-4.4743,-4.5304,-4.5304,-4.6494,-4.849,-4.7666,-4.7309,-4.7309,-4.7309,-4.8087,-4.9299,-4.9299,-5.0062,-5.1229,-5.1229,-5.1229,-5.1229,-5.1229,-5.1229,-5.1229,-5.1229,-5.1229,-5.1229,-5.1229,-5.1229,-5.1229,-5.1229,-5.1229,-5.1229,-5.1229,-5.1229,-5.1379,-5.2007,-5.2187,-5.2366,-5.2995,-5.3144,-5.3144,-5.3174,-5.3713,-5.4162,-5.4192,-5.473,-5.5149,-5.5179,-5.5179,-5.5179,-5.5179,-5.5179,-5.5179,-5.5179,-5.5179,-5.5179,-5.5179,-5.4955,-5.4671,-5.4304,-5.4045,-5.3762,-5.35,-5.35,-5.35,-5.35,-5.35,-5.35,-5.35,-5.35,-5.35,-5.35,-5.35,-5.35,0.0,0.0,0.0,-4.0307,-4.1414,-4.2192,-4.2611,-4.303,-4.329,0.0,0.0,0.0,0.0,0.0,0.0,0.0,0.0,0.0,0.0,0.0,0.0,0.0,0.0,0.0,0.0,0.0,0.0,0.0,0.0,-4.329,-4.329,-4.329,-4.329,-4.329,-4.329,-4.3566,-4.4082,-4.4887,-4.4887,-4.4082,-4.4358,-4.4782,-4.5304,-4.5304,-4.6494,-4.8573,-4.7666,-4.7624,-4.8103,-4.7538,-4.8087,-4.9299,-4.9299,-5.0062,-5.1229,-5.1229,-5.1229,-5.1229,-5.1229,-5.1229,-5.1229,-5.1229,-5.1229,-5.1229,-5.1229,-5.1229,-5.1319,-5.1738,-5.1858,-5.1947,-5.2366,-5.2486,-5.2636,-5.3324,-5.3473,-5.3683,-5.4341,-5.4132,-5.3952,-5.4401,-5.467,-5.485,-5.485,-5.5029,-5.5179,-5.5179,-5.5179,-5.5179,-5.5179,-5.5179,-5.5179,-5.5179,-5.5179,-5.5158,-5.4955,-5.4854,-5.4671,-5.4304,-5.42,-5.4045,-5.3762,-5.3762,-5.3658,-5.35,-5.35,-5.35,-5.35,-5.35,-5.35,-5.35,-5.35,-5.35,-3.6357,0.0,0.0,0.0,0.0,-4.0995,-4.2141,0.0,0.0,0.0,0.0,0.0,0.0,0.0,0.0,0.0,0.0,0.0,0.0,0.0,0.0,0.0,0.0,0.0,0.0,0.0,0.0,0.0,0.0,0.0,-4.329,-4.329,-4.3448,-4.3693,-4.3693,-4.4082,-4.4887,-4.5697,-4.552,-4.451,-4.5005,-4.5295,-4.5346,-4.586,-4.72,-4.8953,-4.8103,-4.8061,-4.8573,-4.8219,-4.8544,-4.9329,-4.9899,-5.0516,-5.1229,-5.1572,-5.1479,-5.1276,-5.1572,-5.1479,-5.1229,-5.1229,-5.1229,-5.1229,-5.1229,-5.1379,-5.1648,-5.2067,-5.2366,-5.2636,-5.3054,-5.3354,-5.3653,-5.4102,-5.4371,-5.467,-5.5089,-5.485,-5.467,-5.5089,-5.5179,-5.5179,-5.5179,-5.5179,-5.5179,-5.5179,-5.5179,-5.5179,-5.5179,-5.5179,-5.5179,-5.5179,-5.5179,-5.5158,-5.4955,-5.4955,-5.4773,-5.4487,-5.4487,-5.4282,-5.3919,-5.3919,-5.3762,-5.35,-5.35,-5.35,-5.35,-5.35,-5.35,-5.35,-5.35,-5.35,0.0,0.0,0.0,0.0,0.0,0.0,0.0,0.0,0.0,0.0,0.0,0.0,0.0,0.0,0.0,0.0,0.0,0.0,0.0,0.0,0.0,0.0,0.0,0.0,0.0,0.0,0.0,0.0,-4.329,-4.329,-4.329,-4.329,-4.3654,-4.4472,-4.451,-4.4924,-4.5733,-4.648,-4.606,-4.4548,-4.606,-4.6281,-4.5357,-4.6952,-4.8478,-4.9765,-4.8953,-4.8656,-4.8728,-4.9334,-4.9517,-4.9494,-5.0992,-5.1439,-5.1339,-5.2245,-5.2048,-5.1386,-5.229,-5.2002,-5.1229,-5.1229,-5.1229,-5.1229,-5.1229,-5.1678,-5.2217,-5.2247,-5.2725,-5.3204,-5.3234,-5.3743,-5.4251,-5.4251,-5.473,-5.5179,-5.5179,-5.5179,-5.5179,-5.5179,-5.5179,-5.5179,-5.5179,-5.5179,-5.5179,-5.5179,-5.5179,-5.5179,-5.5179,-5.5179,-5.5179,-5.5179,-5.5179,-5.5179,-5.5179,-5.5179,-5.5108,-5.4854,-5.4803,-5.4517,-5.3971,-5.389,-5.3762,-5.35,-5.35,-5.35,-5.35,-5.35,-5.35,-5.35,-5.35,-5.35,-3.519,0.0,0.0,0.0,0.0,0.0,0.0,0.0,0.0,0.0,0.0,0.0,0.0,0.0,0.0,0.0,0.0,0.0,0.0,0.0,0.0,0.0,0.0,0.0,0.0,0.0,0.0,0.0,-4.329,-4.329,-4.329,-4.329,-4.3654,-4.4472,-4.5073,-4.5733,-4.6515,-4.727,-4.6862,-4.5369,-4.6343,-4.6612,-4.6263,-4.7223,-4.8815,-5.0653,-4.9197,-4.9278,-5.037,-4.9832,-4.9831,-5.0275,-5.1256,-5.1843,-5.2245,-5.2516,-5.2426,-5.2245,-5.2516,-5.2002,-5.1229,-5.1229,-5.1229,-5.1319,-5.1798,-5.2067,-5.2396,-5.3384,-5.3773,-5.4042,-5.4521,-5.476,-5.491,-5.491,-5.5059,-5.5179,-5.5179,-5.5179,-5.5179,-5.5179,-5.5179,-5.5179,-5.5179,-5.5179,-5.5179,-5.5179,-5.5179,-5.5179,-5.5179,-5.5179,-5.5179,-5.5179,-5.5179,-5.5179,-5.5179,-5.5179,-5.5179,-5.5078,-5.4905,-5.4619,-5.42,-5.3993,-5.3762,-5.35,-5.35,-5.35,-5.35,-5.35,-5.35,-5.35,-5.35,-5.35,-3.528,0.0,0.0,0.0,0.0,0.0,0.0,-3.9709,0.0,0.0,0.0,0.0,0.0,0.0,0.0,0.0,0.0,0.0,0.0,0.0,0.0,0.0,0.0,0.0,0.0,-4.329,-4.329,-4.329,-4.3606,-4.381,-4.381,-4.412,-4.451,-4.4999,-4.5737,-4.6515,-4.7303,-4.777,-4.7371,-4.6163,-4.6931,-4.722,-4.7099,-4.8238,-4.9595,-5.1027,-5.0073,-5.0384,-5.1643,-5.128,-5.0892,-5.0667,-5.2457,-5.2941,-5.2651,-5.302,-5.2962,-5.2606,-5.2606,-5.2002,-5.1229,-5.1229,-5.1409,-5.1708,-5.2097,-5.2606,-5.3204,-5.3982,-5.4401,-5.47,-5.5089,-5.5179,-5.5179,-5.5179,-5.5179,-5.5179,-5.5179,-5.5179,-5.5179,-5.5179,-5.5179,-5.5179,-5.5179,-5.5179,-5.5179,-5.5179,-5.5179,-5.5179,-5.5179,-5.5179,-5.5179,-5.5179,-5.5179,-5.5179,-5.5179,-5.5179,-5.5179,-5.5179,-5.4955,-5.4671,-5.4304,-5.4045,-5.3762,-5.35,-5.35,-5.35,-5.35,-5.35,-5.35,-5.35,-5.35,-5.35,-3.5699,-3.5729,0.0,0.0,0.0,0.0,-3.8721,-3.914,-3.9379,0.0,0.0,0.0,0.0,0.0,0.0,0.0,0.0,0.0,0.0,0.0,0.0,0.0,0.0,0.0,-4.329,-4.329,-4.329,-4.329,-4.4043,-4.4548,-4.4624,-4.5295,-4.5733,-4.5805,-4.648,-4.7202,-4.8001,-4.8001,-4.7605,-4.6828,-4.7704,-4.8017,-4.7908,-4.9559,-5.0626,-5.1102,-5.1102,-5.161,-5.2428,-5.3035,-5.2299,-5.1126,-5.4118,-5.4327,-5.2976,-5.3719,-5.3459,-5.274,-5.2651,-5.2002,-5.1229,-5.1229,-5.1648,-5.2217,-5.2276,-5.3204,-5.4221,-5.4311,-5.473,-5.5179,-5.5179,-5.5179,-5.5179,-5.5179,-5.5179,-5.5179,-5.5179,-5.5179,-5.5179,-5.5179,-5.5179,-5.5179,-5.5179,-5.5179,-5.5179,-5.5179,-5.5179,-5.5179,-5.5179,-5.5179,-5.5179,-5.5179,-5.5179,-5.5179,-5.5179,-5.5179,-5.5209,-5.5128,-5.4875,-5.4619,-5.4252,-5.3993,-5.3762,-5.35,-5.35,-5.35,-5.35,-5.35,-5.35,-5.35,-5.35,-5.35,-3.6896,-3.7045,0.0,0.0,0.0,0.0,-3.7075,-3.7434,-3.7973,0.0,0.0,0.0,0.0,0.0,0.0,0.0,0.0,0.0,0.0,0.0,0.0,0.0,0.0,0.0,-4.329,-4.329,-4.329,-4.329,-4.4043,-4.4774,-4.5442,-4.5624,-4.5985,-4.6585,-4.6724,-4.7202,-4.8001,-4.8001,-4.7605,-4.6828,-4.823,-4.8851,-4.8788,-5.0366,-5.1086,-5.1102,-5.1102,-5.1539,-5.2275,-5.3,-5.3082,-5.2853,-5.46,-5.5076,-5.4704,-5.419,-5.3891,-5.3632,-5.2843,-5.2002,-5.1229,-5.1229,-5.1648,-5.2306,-5.2815,-5.3563,-5.4311,-5.485,-5.5089,-5.5179,-5.5179,-5.5179,-5.5179,-5.5179,-5.5179,-5.5179,-5.5179,-5.5179,-5.5179,-5.5179,-5.5179,-5.5179,-5.5179,-5.5179,-5.5179,-5.5179,-5.5179,-5.5179,-5.5179,-5.5179,-5.5179,-5.5179,-5.5179,-5.5179,-5.5179,-5.5179,-5.5108,-5.4905,-5.459,-5.4252,-5.3993,-5.371,-5.3553,-5.35,-5.35,-5.35,-5.35,-5.35,-5.35,-5.35,-5.35,-5.35,-3.7045,-3.7165,0.0,-3.7015,0.0,0.0,0.0,-3.6956,-3.7225,-3.8182,0.0,0.0,0.0,0.0,0.0,0.0,0.0,0.0,0.0,0.0,0.0,0.0,0.0,0.0,-4.4396,-4.4159,-4.4205,-4.5005,-4.541,-4.5809,-4.6234,-4.662,-4.6828,-4.6828,-4.7202,-4.7605,-4.8001,-4.8001,-4.777,-4.7404,-4.8563,-4.9255,-4.9634,-5.0777,-5.1432,-5.1762,-5.1762,-5.2155,-5.2843,-5.3601,-5.4088,-5.4508,-5.5595,-5.5716,-5.5158,-5.4317,-5.4274,-5.4443,-5.3064,-5.229,-5.1972,-5.2305,-5.2554,-5.2815,-5.3503,-5.4162,-5.476,-5.5089,-5.5179,-5.5179,-5.5179,-5.5179,-5.5179,-5.5179,-5.5179,-5.5179,-5.5179,-5.5179,-5.5179,-5.5179,-5.5179,-5.5179,-5.5179,-5.5179,-5.5179,-5.5179,-5.5179,-5.5179,-5.5179,-5.5179,-5.5179,-5.5179,-5.5179,-5.5179,-5.5179,-5.5179,-5.5108,-5.4803,-5.4487,-5.42,-5.3919,-5.3658,-5.35,-5.35,-5.35,-5.35,-5.35,-5.35,-5.35,-5.35,-5.35,-5.35,0.0,0.0,0.0,0.0,0.0,-3.7045,0.0,0.0,0.0,-3.7644,0.0,0.0,0.0,0.0,0.0,0.0,0.0,0.0,0.0,0.0,0.0,0.0,0.0,0.0,0.0,-4.4701,-4.4991,-4.6657,-4.6664,-4.67,-4.7033,-4.7638,-4.7704,-4.7033,-4.7671,-4.8001,-4.8001,-4.8001,-4.8001,-4.8001,-4.8895,-4.9624,-5.0253,-5.1082,-5.174,-5.2158,-5.247,-5.2897,-5.3445,-5.4353,-5.5156,-5.5885,-5.6448,-5.6139,-5.5158,-5.4317,-5.4443,-5.4787,-5.2976,-5.2426,-5.2684,-5.3178,-5.3364,-5.3503,-5.4192,-5.476,-5.5179,-5.5179,-5.5179,-5.5179,-5.5179,-5.5179,-5.5179,-5.5179,-5.5179,-5.5179,-5.5179,-5.5179,-5.5179,-5.5179,-5.5179,-5.5179,-5.5179,-5.5179,-5.5179,-5.5179,-5.5179,-5.5179,-5.5179,-5.5179,-5.5179,-5.5179,-5.5179,-5.5179,-5.5179,-5.5179,-5.5108,-5.4803,-5.4539,-5.4282,-5.389,-5.3658,-5.35,-5.35,-5.35,-5.35,-5.35,-5.35,-5.35,-5.35,-5.35,-5.35,0.0,0.0,0.0,0.0,-3.8242,0.0,0.0,0.0,-3.6357,-3.5938,0.0,0.0,0.0,0.0,0.0,0.0,0.0,0.0,0.0,0.0,0.0,0.0,0.0,0.0,0.0,-4.358,-4.4424,-4.6625,-4.6178,-4.6417,-4.777,-4.7968,-4.7968,-4.7869,-4.7968,-4.8001,-4.8001,-4.8001,-4.8001,-4.8034,-4.9425,-5.0121,-5.0253,-5.1645,-5.1915,-5.1317,-5.2712,-5.3329,-5.3408,-5.4853,-5.5918,-5.6581,-5.6647,-5.6139,-5.5158,-5.4317,-5.4062,-5.3891,-5.2002,-5.1911,-5.2594,-5.242,-5.3151,-5.4221,-5.488,-5.5119,-5.5179,-5.5179,-5.5179,-5.5179,-5.5179,-5.5179,-5.5179,-5.5179,-5.5179,-5.5179,-5.5179,-5.5179,-5.5179,-5.5179,-5.5179,-5.5179,-5.5179,-5.5179,-5.5179,-5.5179,-5.5179,-5.5179,-5.5179,-5.5179,-5.5179,-5.5179,-5.5179,-5.5179,-5.5179,-5.5179,-5.5108,-5.4803,-5.4751,-5.4517,-5.3919,-5.3658,-5.35,-5.35,-5.35,-5.35,-5.35,-5.35,-5.35,-5.35,-5.35,-5.35,0.0,0.0,0.0,0.0,0.0,0.0,-3.6507,0.0,-3.6417,0.0,0.0,0.0,0.0,0.0,0.0,0.0,0.0,0.0,0.0,0.0,0.0,0.0,0.0,0.0,0.0,0.0,0.0,0.0,-4.6553,-4.6684,-4.7338,-4.7769,-4.8001,-4.8001,-4.8001,-4.8001,-4.8001,-4.8001,-4.8001,-4.8034,-4.9525,-5.022,-5.0253,-5.1711,-5.2194,-5.1904,-5.2957,-5.3647,-5.4076,-5.517,-5.6051,-5.668,-5.668,-5.6139,-5.5158,-5.4317,-5.4317,-5.4495,-5.262,-5.2651,-5.3339,-5.292,-5.3683,-5.482,-5.5089,-5.5179,-5.5179,-5.5179,-5.5179,-5.5179,-5.5179,-5.5179,-5.5179,-5.5179,-5.5179,-5.5179,-5.5179,-5.5179,-5.5179,-5.5179,-5.5179,-5.5179,-5.5179,-5.5179,-5.5179,-5.5179,-5.5179,-5.5179,-5.5179,-5.5179,-5.5179,-5.5179,-5.5179,-5.5179,-5.5179,-5.5179,-5.5108,-5.4803,-5.4466,-5.4178,-5.3919,-5.3658,-5.35,-5.35,-5.35,-5.35,-5.35,-5.35,-5.35,-5.35,-5.35,-5.35,-3.911,0.0,0.0,0.0,0.0,0.0,0.0,0.0,0.0,0.0,0.0,0.0,0.0,0.0,0.0,0.0,0.0,0.0,0.0,0.0,0.0,0.0,0.0,0.0,0.0,0.0,0.0,0.0,0.0,-4.6477,-4.6874,-4.7404,-4.7802,-4.8001,-4.8001,-4.8001,-4.8001,-4.8001,-4.8001,-4.8034,-4.9525,-5.022,-5.0253,-5.1711,-5.2473,-5.2705,-5.34,-5.4092,-5.4854,-5.562,-5.6216,-5.668,-5.668,-5.6139,-5.5198,-5.4611,-5.4443,-5.4369,-5.3064,-5.3121,-5.3765,-5.3658,-5.4318,-5.5179,-5.5179,-5.5179,-5.5179,-5.5179,-5.5179,-5.5179,-5.5179,-5.5179,-5.5179,-5.5179,-5.5179,-5.5179,-5.5179,-5.5179,-5.5179,-5.5179,-5.5179,-5.5179,-5.5179,-5.5179,-5.5179,-5.5179,-5.5179,-5.5179,-5.5179,-5.5179,-5.5179,-5.5179,-5.5179,-5.5179,-5.5179,-5.5179,-5.5108,-5.4803,-5.4282,-5.3993,-5.3919,-5.3658,-5.35,-5.35,-5.35,-5.35,-5.35,-5.35,-5.35,-5.35,-5.35,-5.35,0.0,0.0,0.0,-3.8093,0.0,0.0,0.0,0.0,-3.7375,0.0,0.0,0.0,0.0,0.0,0.0,0.0,0.0,0.0,0.0,0.0,0.0,0.0,0.0,0.0,0.0,0.0,0.0,0.0,0.0,0.0,-4.6808,-4.6908,-4.7272,-4.7968,-4.8001,-4.8001,-4.8001,-4.8001,-4.8001,-4.8034,-4.9525,-5.022,-5.0253,-5.1711,-5.2738,-5.3434,-5.4162,-5.4854,-5.5615,-5.6349,-5.668,-5.668,-5.668,-5.6139,-5.5312,-5.5271,-5.4158,-5.2695,-5.2606,-5.29,-5.3357,-5.4293,-5.4855,-5.5179,-5.5179,-5.5179,-5.5179,-5.5179,-5.5179,-5.5179,-5.5179,-5.5179,-5.5179,-5.5179,-5.5179,-5.5179,-5.5179,-5.5179,-5.5179,-5.5179,-5.5179,-5.5179,-5.5179,-5.5179,-5.5179,-5.5179,-5.5179,-5.5179,-5.5179,-5.5179,-5.5179,-5.5179,-5.5179,-5.5179,-5.5179,-5.5179,-5.5108,-5.4803,-5.4487,-5.4149,-5.3919,-5.3658,-5.35,-5.35,-5.35,-5.35,-5.35,-5.35,-5.35,-5.35,-5.35,-5.35,0.0,0.0,-4.1542,-3.929,0.0,0.0,0.0,0.0,0.0,0.0,0.0,0.0,0.0,0.0,0.0,0.0,0.0,0.0,0.0,0.0,0.0,0.0,0.0,0.0,0.0,0.0,0.0,0.0,-4.5549,0.0,0.0,-4.7371,-4.7736,-4.8001,-4.8001,-4.8001,-4.8001,-4.8001,-4.8233,-4.8763,-4.9756,-5.0452,-5.0949,-5.1978,-5.2771,-5.3467,-5.4158,-5.492,-5.5648,-5.6382,-5.668,-5.668,-5.668,-5.6139,-5.5312,-5.5312,-5.4911,-5.4369,-5.4369,-5.4278,-5.4152,-5.4481,-5.4855,-5.5179,-5.5179,-5.5179,-5.5179,-5.5179,-5.5179,-5.5299,-5.5718,-5.5837,-5.5957,-5.6346,-5.6466,-5.6346,-5.5927,-5.6166,-5.6196,-5.5359,-5.5538,-5.5718,-5.5269,-5.5179,-5.5179,-5.5179,-5.5179,-5.5179,-5.5179,-5.5179,-5.5179,-5.5179,-5.5179,-5.5179,-5.5179,-5.5057,-5.4905,-5.4803,-5.4333,-5.3993,-5.3919,-5.3658,-5.35,-5.35,-5.35,-5.35,-5.35,-5.35,-5.35,-5.35,-5.35,-5.35,-4.2073,-4.2372,0.0,-4.0885,-4.0648,0.0,-3.8897,0.0,0.0,0.0,0.0,0.0,0.0,0.0,0.0,0.0,0.0,0.0,0.0,0.0,0.0,0.0,0.0,0.0,0.0,0.0,-4.4522,-4.4986,0.0,0.0,0.0,0.0,-4.7736,-4.8001,-4.8001,-4.8001,-4.8001,-4.8001,-4.8365,-4.9127,-4.9856,-5.0585,-5.1348,-5.2307,-5.3135,-5.3827,-5.4556,-5.5322,-5.6051,-5.6481,-5.668,-5.668,-5.668,-5.6336,-5.5829,-5.5829,-5.5595,-5.5304,-5.5233,-5.4907,-5.4652,-5.4898,-5.5086,-5.5179,-5.5179,-5.5179,-5.5179,-5.5179,-5.5179,-5.5329,-5.6068,-5.6218,-5.6316,-5.6944,-5.7094,-5.6974,-5.6585,-5.6825,-5.6795,-5.5748,-5.5867,-5.5957,-5.5299,-5.5179,-5.5179,-5.5179,-5.5179,-5.5179,-5.5179,-5.5179,-5.5179,-5.5179,-5.5179,-5.5128,-5.5057,-5.4905,-5.47,-5.4466,-5.4126,-5.3867,-5.3762,-5.3605,-5.35,-5.35,-5.35,-5.35,-5.35,-5.35,-5.35,-5.35,-5.35,-5.35]},{"header":{"parameterUnit":"m.s-1","parameterCategory":1,"la1":30.6,"la2":29.2853,"lo1":-89.7004,"lo2":-87.6739,"dy":0.0162,"dx":0.0183,"nx":112,"ny":82,"refTime":"2024-12-04T18:00:00:Z","depth":0,"parameterNumber":3,"parameterNumberName":"V-component_of_WINDS"},"data":[0.0,0.0,0.0,0.0,0.0,0.0,0.0,0.0,0.0,0.0,0.0,0.0,0.0,0.0,0.0,0.0,0.0,0.0,0.0,0.0,0.0,0.0,0.0,0.0,0.0,0.0,0.0,0.0,0.0,0.0,0.0,0.0,0.0,0.0,0.0,0.0,0.0,0.0,0.0,0.0,0.0,0.0,0.0,0.0,0.0,0.0,0.0,0.0,0.0,0.0,0.0,0.0,0.0,0.0,0.0,0.0,0.0,0.0,0.0,0.0,0.0,0.0,0.0,0.0,0.0,0.0,0.0,0.0,0.0,0.0,0.0,0.0,0.0,0.0,0.0,0.0,0.0,0.0,0.0,0.0,0.0,0.0,0.0,0.0,0.0,0.0,0.0,0.0,0.0,0.0,0.0,3.1667,3.1339,3.1182,3.1641,3.1823,3.1406,3.0179,0.0,0.0,0.0,0.0,0.0,0.0,0.0,0.0,0.0,0.0,0.0,0.0,0.0,0.0,0.0,0.0,0.0,0.0,0.0,0.0,0.0,0.0,0.0,0.0,0.0,0.0,0.0,0.0,0.0,0.0,0.0,0.0,0.0,0.0,0.0,0.0,0.0,0.0,0.0,0.0,0.0,0.0,0.0,0.0,0.0,0.0,0.0,0.0,0.0,0.0,0.0,0.0,0.0,0.0,0.0,0.0,0.0,0.0,0.0,0.0,0.0,0.0,0.0,0.0,0.0,0.0,0.0,0.0,0.0,0.0,0.0,0.0,0.0,0.0,0.0,0.0,0.0,0.0,0.0,0.0,0.0,0.0,0.0,0.0,0.0,0.0,0.0,0.0,0.0,0.0,0.0,0.0,0.0,0.0,0.0,0.0,0.0,0.0,0.0,0.0,0.0,0.0,0.0,0.0,3.0544,3.1667,3.1339,3.1026,3.1104,3.1993,3.1862,3.0205,0.0,0.0,0.0,0.0,0.0,0.0,0.0,0.0,0.0,0.0,0.0,0.0,0.0,0.0,0.0,0.0,0.0,0.0,0.0,0.0,0.0,0.0,0.0,0.0,0.0,0.0,0.0,0.0,0.0,0.0,0.0,0.0,0.0,0.0,0.0,0.0,0.0,0.0,0.0,0.0,0.0,0.0,0.0,0.0,0.0,0.0,0.0,0.0,0.0,0.0,0.0,0.0,0.0,0.0,0.0,0.0,0.0,0.0,0.0,0.0,0.0,0.0,0.0,0.0,0.0,0.0,0.0,0.0,0.0,0.0,0.0,0.0,0.0,0.0,0.0,0.0,0.0,0.0,0.0,0.0,0.0,0.0,0.0,0.0,0.0,0.0,0.0,0.0,0.0,0.0,0.0,0.0,0.0,0.0,0.0,0.0,0.0,0.0,0.0,0.0,0.0,0.0,0.0,3.0241,3.079,3.1313,3.113,3.0973,3.0973,3.2045,3.1836,2.9797,2.9918,0.0,0.0,0.0,0.0,0.0,0.0,0.0,0.0,0.0,0.0,0.0,0.0,0.0,0.0,0.0,0.0,0.0,0.0,0.0,0.0,0.0,0.0,0.0,0.0,0.0,0.0,0.0,0.0,0.0,0.0,0.0,0.0,0.0,0.0,0.0,0.0,0.0,0.0,0.0,0.0,0.0,0.0,0.0,0.0,0.0,0.0,0.0,0.0,0.0,0.0,0.0,0.0,0.0,0.0,0.0,0.0,0.0,0.0,0.0,0.0,0.0,0.0,0.0,0.0,0.0,0.0,0.0,0.0,0.0,0.0,0.0,0.0,0.0,0.0,0.0,0.0,0.0,0.0,0.0,0.0,0.0,0.0,0.0,0.0,0.0,0.0,0.0,0.0,0.0,0.0,0.0,0.0,0.0,0.0,0.0,0.0,0.0,0.0,0.0,0.0,0.0,0.0,3.066,3.113,3.0999,3.0973,3.0973,3.0973,3.1784,3.1418,2.9441,2.9562,0.0,0.0,0.0,0.0,0.0,0.0,0.0,0.0,0.0,0.0,0.0,0.0,0.0,0.0,0.0,0.0,0.0,0.0,0.0,0.0,0.0,0.0,0.0,0.0,0.0,0.0,0.0,0.0,0.0,0.0,0.0,0.0,0.0,0.0,0.0,0.0,0.0,0.0,0.0,0.0,0.0,0.0,0.0,0.0,0.0,0.0,0.0,0.0,0.0,0.0,0.0,0.0,0.0,0.0,0.0,0.0,0.0,0.0,0.0,0.0,0.0,0.0,0.0,0.0,0.0,0.0,0.0,0.0,0.0,0.0,0.0,0.0,0.0,0.0,0.0,0.0,0.0,0.0,0.0,0.0,0.0,0.0,0.0,0.0,0.0,0.0,0.0,0.0,0.0,0.0,0.0,0.0,0.0,0.0,0.0,0.0,0.0,0.0,0.0,0.0,0.0,0.0,3.0727,3.1536,3.1052,3.0973,3.0973,3.0973,3.1052,3.0581,2.9388,2.8839,0.0,0.0,0.0,0.0,0.0,0.0,0.0,0.0,0.0,0.0,0.0,0.0,0.0,0.0,0.0,0.0,0.0,0.0,0.0,0.0,0.0,0.0,0.0,0.0,0.0,0.0,0.0,0.0,0.0,0.0,0.0,0.0,0.0,0.0,0.0,0.0,0.0,0.0,0.0,0.0,0.0,0.0,0.0,0.0,0.0,0.0,0.0,0.0,0.0,0.0,0.0,0.0,0.0,0.0,0.0,0.0,0.0,0.0,0.0,0.0,0.0,0.0,0.0,0.0,0.0,0.0,0.0,0.0,0.0,0.0,0.0,0.0,0.0,0.0,0.0,0.0,0.0,0.0,0.0,0.0,0.0,0.0,0.0,0.0,0.0,0.0,0.0,0.0,0.0,0.0,0.0,0.0,0.0,0.0,0.0,0.0,0.0,0.0,0.0,0.0,0.0,0.0,3.0686,3.1365,0.0,3.1209,3.0973,3.0973,3.1313,3.0712,2.8865,0.0,0.0,0.0,0.0,0.0,0.0,0.0,0.0,0.0,0.0,0.0,0.0,0.0,0.0,0.0,0.0,0.0,0.0,0.0,0.0,0.0,0.0,0.0,0.0,0.0,0.0,0.0,0.0,0.0,0.0,0.0,0.0,0.0,0.0,0.0,0.0,0.0,0.0,0.0,0.0,0.0,0.0,0.0,0.0,0.0,0.0,0.0,0.0,0.0,0.0,0.0,0.0,0.0,0.0,0.0,0.0,0.0,0.0,0.0,0.0,0.0,0.0,0.0,0.0,0.0,0.0,0.0,0.0,0.0,0.0,0.0,0.0,0.0,0.0,0.0,0.0,0.0,0.0,0.0,0.0,0.0,0.0,0.0,0.0,0.0,0.0,0.0,0.0,0.0,0.0,0.0,0.0,0.0,0.0,0.0,0.0,0.0,0.0,0.0,0.0,0.0,0.0,3.0048,3.113,3.181,0.0,3.1458,3.1182,3.0999,3.1182,3.0414,2.849,0.0,0.0,0.0,0.0,0.0,0.0,0.0,0.0,0.0,0.0,0.0,0.0,0.0,0.0,0.0,0.0,0.0,0.0,0.0,0.0,0.0,0.0,0.0,0.0,0.0,0.0,0.0,0.0,0.0,0.0,0.0,0.0,0.0,0.0,0.0,0.0,0.0,0.0,0.0,0.0,0.0,0.0,0.0,0.0,0.0,0.0,0.0,0.0,0.0,0.0,0.0,0.0,0.0,0.0,0.0,0.0,0.0,0.0,0.0,0.0,0.0,0.0,0.0,0.0,0.0,0.0,0.0,0.0,0.0,0.0,0.0,0.0,0.0,0.0,0.0,0.0,0.0,0.0,0.0,0.0,0.0,0.0,0.0,0.0,0.0,0.0,0.0,0.0,0.0,0.0,0.0,0.0,0.0,0.0,0.0,0.0,0.0,0.0,0.0,0.0,0.0,0.0,3.01,3.215,3.3143,3.1954,3.1797,3.1562,3.1052,3.0477,2.9614,0.0,0.0,0.0,0.0,0.0,0.0,0.0,0.0,0.0,0.0,0.0,0.0,0.0,0.0,0.0,0.0,0.0,0.0,0.0,0.0,0.0,0.0,0.0,0.0,0.0,0.0,0.0,0.0,0.0,0.0,0.0,0.0,0.0,0.0,0.0,0.0,0.0,0.0,0.0,0.0,0.0,0.0,0.0,0.0,0.0,0.0,0.0,0.0,0.0,0.0,0.0,0.0,0.0,0.0,0.0,0.0,0.0,0.0,0.0,0.0,0.0,0.0,0.0,0.0,0.0,0.0,0.0,0.0,0.0,0.0,0.0,0.0,0.0,0.0,0.0,0.0,0.0,0.0,0.0,0.0,0.0,0.0,0.0,0.0,0.0,0.0,0.0,0.0,0.0,0.0,0.0,0.0,0.0,0.0,0.0,0.0,0.0,0.0,0.0,0.0,0.0,0.0,0.0,3.1523,3.3261,3.4324,3.3948,3.2657,3.1745,3.1562,3.0649,2.9422,2.7855,0.0,0.0,0.0,0.0,0.0,0.0,0.0,0.0,0.0,0.0,0.0,0.0,0.0,0.0,0.0,0.0,0.0,0.0,0.0,0.0,0.0,0.0,0.0,0.0,0.0,0.0,0.0,0.0,0.0,0.0,0.0,0.0,0.0,0.0,0.0,0.0,0.0,0.0,0.0,0.0,0.0,0.0,0.0,0.0,0.0,0.0,0.0,0.0,0.0,0.0,0.0,0.0,0.0,0.0,0.0,0.0,0.0,0.0,0.0,0.0,0.0,0.0,0.0,0.0,0.0,0.0,0.0,0.0,0.0,0.0,0.0,0.0,0.0,0.0,0.0,0.0,0.0,0.0,0.0,0.0,0.0,0.0,0.0,0.0,0.0,0.0,0.0,0.0,0.0,0.0,0.0,0.0,0.0,0.0,0.0,0.0,0.0,0.0,0.0,0.0,0.0,0.0,3.2073,3.418,3.5581,3.5361,3.3995,3.3004,3.2761,3.1873,3.0554,2.8783,0.0,0.0,0.0,0.0,0.0,0.0,0.0,0.0,0.0,0.0,0.0,0.0,0.0,0.0,0.0,0.0,0.0,0.0,0.0,0.0,0.0,0.0,0.0,0.0,0.0,0.0,0.0,0.0,0.0,0.0,0.0,0.0,0.0,0.0,0.0,0.0,0.0,0.0,0.0,0.0,0.0,0.0,0.0,0.0,0.0,0.0,0.0,0.0,0.0,0.0,0.0,0.0,0.0,0.0,0.0,0.0,0.0,0.0,0.0,0.0,0.0,0.0,0.0,0.0,0.0,0.0,0.0,0.0,0.0,0.0,0.0,0.0,0.0,0.0,0.0,0.0,0.0,0.0,0.0,0.0,0.0,0.0,0.0,0.0,0.0,0.0,0.0,0.0,0.0,0.0,0.0,0.0,0.0,0.0,0.0,0.0,0.0,0.0,0.0,0.0,0.0,0.0,3.219,3.5049,3.6852,3.6354,3.5592,3.4871,3.4353,3.355,3.2398,3.0693,0.0,0.0,0.0,0.0,0.0,0.0,0.0,0.0,0.0,0.0,0.0,0.0,0.0,0.0,0.0,0.0,0.0,0.0,0.0,0.0,0.0,0.0,0.0,0.0,0.0,0.0,0.0,0.0,0.0,0.0,0.0,0.0,0.0,0.0,0.0,0.0,0.0,0.0,0.0,0.0,0.0,0.0,0.0,0.0,0.0,0.0,0.0,0.0,0.0,0.0,0.0,0.0,0.0,0.0,0.0,0.0,0.0,0.0,0.0,0.0,3.6712,0.0,0.0,0.0,0.0,0.0,0.0,0.0,0.0,0.0,0.0,0.0,0.0,0.0,0.0,0.0,0.0,0.0,0.0,0.0,0.0,0.0,0.0,0.0,0.0,0.0,0.0,0.0,0.0,0.0,0.0,0.0,0.0,0.0,0.0,0.0,0.0,0.0,0.0,0.0,0.0,0.0,3.3129,3.596,3.7881,3.7774,3.6145,3.504,3.4899,3.3473,3.2185,3.1345,2.9704,0.0,0.0,0.0,0.0,0.0,0.0,0.0,0.0,0.0,0.0,0.0,0.0,0.0,0.0,0.0,0.0,0.0,0.0,0.0,0.0,0.0,0.0,0.0,0.0,0.0,0.0,0.0,0.0,0.0,0.0,0.0,0.0,0.0,0.0,0.0,0.0,0.0,0.0,0.0,0.0,0.0,0.0,0.0,0.0,0.0,0.0,0.0,0.0,0.0,0.0,0.0,0.0,0.0,0.0,0.0,0.0,0.0,0.0,0.0,0.0,3.7141,0.0,0.0,0.0,0.0,0.0,0.0,0.0,0.0,0.0,0.0,0.0,0.0,0.0,0.0,0.0,0.0,0.0,0.0,0.0,0.0,0.0,0.0,0.0,0.0,0.0,0.0,0.0,0.0,0.0,0.0,0.0,0.0,0.0,0.0,0.0,0.0,0.0,0.0,0.0,0.0,3.4284,3.6989,3.8789,3.8789,3.7222,3.6222,3.6222,3.4777,3.362,3.298,3.1454,0.0,0.0,0.0,0.0,0.0,0.0,0.0,0.0,0.0,0.0,0.0,0.0,0.0,0.0,0.0,0.0,0.0,0.0,0.0,0.0,0.0,0.0,0.0,0.0,0.0,0.0,0.0,0.0,0.0,0.0,0.0,0.0,0.0,0.0,0.0,0.0,0.0,0.0,0.0,0.0,0.0,0.0,0.0,0.0,0.0,0.0,0.0,0.0,0.0,0.0,0.0,0.0,0.0,4.1008,4.1338,4.0656,4.1377,4.1713,4.1607,3.9749,3.9061,3.9209,3.8432,0.0,0.0,0.0,0.0,0.0,0.0,0.0,0.0,0.0,0.0,0.0,0.0,0.0,0.0,0.0,0.0,0.0,0.0,0.0,0.0,0.0,0.0,0.0,0.0,3.9768,3.9542,0.0,0.0,0.0,0.0,0.0,0.0,0.0,0.0,0.0,0.0,0.0,0.0,3.5258,3.7766,3.9373,3.9373,3.8212,3.7404,3.7404,3.6237,3.525,3.4713,3.3585,3.2449,0.0,0.0,0.0,0.0,0.0,0.0,0.0,0.0,0.0,0.0,0.0,0.0,0.0,0.0,0.0,0.0,0.0,0.0,0.0,0.0,0.0,0.0,0.0,0.0,0.0,0.0,0.0,0.0,0.0,0.0,0.0,0.0,4.1594,4.0991,0.0,0.0,0.0,0.0,0.0,0.0,0.0,0.0,0.0,0.0,0.0,0.0,0.0,4.1528,4.1324,4.2144,4.2329,4.195,4.2673,4.2981,4.2902,4.2981,4.305,4.3021,4.2733,0.0,3.9925,3.9218,0.0,0.0,0.0,0.0,0.0,0.0,0.0,0.0,0.0,0.0,0.0,0.0,0.0,0.0,0.0,0.0,0.0,0.0,0.0,0.0,0.0,0.0,4.1607,4.1115,4.1115,4.1077,0.0,3.8531,3.6688,3.5974,3.4358,0.0,0.0,0.0,0.0,0.0,0.0,0.0,3.5385,3.7766,3.9373,3.9373,3.8212,3.7404,3.7404,3.6237,3.5459,3.537,3.4648,3.3947,3.3165,3.1474,0.0,0.0,0.0,0.0,0.0,0.0,0.0,0.0,0.0,0.0,0.0,0.0,0.0,0.0,0.0,0.0,0.0,0.0,0.0,0.0,0.0,0.0,0.0,0.0,0.0,0.0,0.0,0.0,0.0,4.1224,4.1752,4.1414,4.1422,4.0853,0.0,0.0,0.0,0.0,0.0,0.0,0.0,0.0,0.0,4.2417,4.241,4.2554,4.2839,4.2986,4.2989,4.291,4.314,4.329,4.329,4.329,4.329,4.329,4.329,4.2763,4.1853,4.1558,4.0393,3.8724,0.0,0.0,0.0,0.0,3.7745,3.8418,3.8831,3.9286,3.9613,3.9136,0.0,0.0,0.0,0.0,0.0,0.0,0.0,0.0,0.0,0.0,4.2321,4.2051,4.2222,4.2372,4.2051,4.0726,3.923,0.0,3.6573,3.5211,3.3763,0.0,0.0,0.0,0.0,3.5961,3.6985,3.8454,3.9373,3.9373,3.8542,3.7973,3.7973,3.7105,3.6567,3.6567,3.6297,3.5985,3.5718,3.424,3.2841,0.0,0.0,0.0,0.0,0.0,0.0,0.0,0.0,0.0,0.0,0.0,0.0,0.0,0.0,0.0,0.0,0.0,0.0,0.0,0.0,0.0,0.0,0.0,0.0,0.0,0.0,0.0,0.0,4.1803,4.2013,4.1722,4.2,4.161,0.0,0.0,0.0,0.0,0.0,0.0,4.2743,4.2849,4.3122,4.3791,4.3593,4.3667,4.4104,4.3735,4.3527,4.3488,4.3488,4.3448,4.3369,4.3369,4.3369,4.329,4.329,4.329,4.329,4.315,4.211,4.0744,4.1037,4.0535,3.9545,3.9545,4.0058,4.0774,4.1243,4.1844,4.2261,4.1414,4.0604,3.9547,3.7598,0.0,0.0,0.0,0.0,4.035,4.139,4.2171,4.265,4.265,4.297,4.315,4.253,4.1871,4.0905,0.0,3.8242,3.7045,3.507,0.0,0.0,0.0,0.0,3.7092,3.8267,3.899,3.9373,3.9373,3.8811,3.8392,3.8392,3.7793,3.7404,3.7404,3.7404,3.7404,3.7404,3.6483,3.5482,3.4368,0.0,0.0,0.0,0.0,0.0,0.0,0.0,0.0,0.0,0.0,0.0,0.0,0.0,0.0,0.0,0.0,0.0,0.0,0.0,0.0,0.0,0.0,0.0,0.0,0.0,0.0,0.0,0.0,0.0,4.25,4.3587,0.0,0.0,0.0,0.0,4.2841,4.2902,4.351,4.4786,4.5035,4.5428,4.61,4.5716,4.5379,4.5244,4.4564,4.4181,4.3949,4.3949,4.3871,4.3675,4.3675,4.3557,4.329,4.329,4.329,4.326,4.2671,4.2372,4.2213,4.1615,4.1338,4.1241,4.1241,4.1697,4.2273,4.2303,4.2372,4.25,4.3,4.2303,4.1257,4.1137,4.0651,0.0,0.0,4.1227,4.2282,4.2351,4.2791,4.323,4.323,4.326,4.315,4.253,4.1871,4.1175,0.0,3.923,3.8302,3.8153,0.0,3.6593,3.7195,3.731,3.7609,3.8302,3.899,3.9373,3.9373,3.8811,3.8392,3.8392,3.7793,3.7404,3.7404,3.7404,3.7404,3.7404,3.734,3.7011,3.6354,3.4976,0.0,0.0,0.0,0.0,0.0,0.0,0.0,0.0,0.0,0.0,0.0,0.0,0.0,0.0,0.0,0.0,0.0,0.0,0.0,0.0,0.0,0.0,0.0,0.0,0.0,0.0,0.0,0.0,4.3317,4.481,0.0,4.394,4.4408,4.4891,4.5105,4.5222,4.5515,4.6006,4.6076,4.6238,4.6484,4.58,4.5353,4.5275,4.4517,4.4065,4.3988,4.3871,4.3754,4.3675,4.3518,4.3369,4.329,4.329,4.329,4.326,4.309,4.3,4.3,4.318,4.3,4.2641,4.2641,4.2791,4.3,4.3,4.3,4.303,4.323,4.2731,4.2051,4.2051,4.1901,4.1692,4.1692,4.2312,4.3,4.3,4.311,4.329,4.329,4.3,4.2641,4.244,4.1504,4.0696,4.0457,3.9679,3.8781,3.7913,3.8093,3.8153,3.7494,3.8153,3.8781,3.902,3.926,3.9373,3.9373,3.92,3.905,3.905,3.8841,3.8691,3.8691,3.8691,3.8691,3.8691,3.8691,3.8392,3.7734,3.6836,3.519,0.0,0.0,0.0,0.0,0.0,0.0,0.0,0.0,0.0,0.0,0.0,0.0,0.0,0.0,0.0,0.0,0.0,0.0,0.0,0.0,0.0,0.0,0.0,0.0,0.0,0.0,4.4288,4.3948,4.5615,4.6323,4.512,4.5807,4.6416,4.6741,4.6862,4.7034,4.725,4.7281,4.7188,4.6942,4.6177,4.5638,4.5393,4.4602,4.422,4.422,4.4065,4.3988,4.391,4.3675,4.3488,4.3438,4.3329,4.329,4.329,4.329,4.329,4.3349,4.3768,4.3678,4.329,4.329,4.329,4.329,4.329,4.329,4.329,4.329,4.303,4.2671,4.2671,4.2671,4.2671,4.2671,4.3,4.329,4.329,4.314,4.3,4.3,4.2491,4.2021,4.1782,4.1025,4.0337,4.0127,3.9709,3.914,3.8242,3.8841,3.911,3.8212,3.8805,3.9373,3.9373,3.9373,3.9373,3.9373,3.9373,3.9373,3.9373,3.92,3.917,3.9373,3.899,3.8841,3.905,3.8591,3.8264,3.8063,3.7195,3.5908,3.4173,0.0,0.0,0.0,0.0,0.0,0.0,0.0,0.0,0.0,0.0,0.0,0.0,0.0,0.0,0.0,0.0,0.0,0.0,0.0,0.0,0.0,0.0,0.0,4.3319,4.4188,4.468,4.4417,4.5977,4.6598,4.5272,4.5929,4.6772,4.7619,4.765,4.7927,4.8573,4.8604,4.8296,4.7619,4.6942,4.6265,4.5588,4.4949,4.461,4.461,4.4572,4.4496,4.4266,4.4104,4.3871,4.3675,4.3438,4.329,4.329,4.329,4.329,4.329,4.329,4.329,4.329,4.329,4.329,4.329,4.329,4.329,4.329,4.329,4.329,4.329,4.329,4.329,4.329,4.329,4.329,4.329,4.329,4.288,4.241,4.241,4.1901,4.1205,4.0546,4.0397,4.0187,3.9559,3.9373,3.9373,3.9373,3.9373,3.9373,3.9373,3.9373,0.0,3.9373,3.9373,3.9373,3.9373,3.9373,3.9373,3.9337,3.8811,3.8691,3.9313,3.8118,3.7699,3.8292,3.7063,3.6705,3.743,3.6207,3.5549,3.5519,0.0,0.0,0.0,0.0,0.0,0.0,0.0,0.0,0.0,0.0,0.0,0.0,0.0,0.0,0.0,0.0,0.0,0.0,0.0,0.0,0.0,4.2791,4.3469,4.3947,4.5495,4.6419,4.6033,4.7885,4.8888,4.8187,4.8519,4.887,4.9097,4.8635,4.8419,4.8604,4.8604,4.8296,4.7619,4.6942,4.6265,4.5588,4.4949,4.461,4.461,4.4458,4.4343,4.4266,4.4104,4.3871,4.3675,4.3596,4.3478,4.329,4.329,4.329,4.329,4.329,4.329,4.329,4.329,4.329,4.329,4.329,4.329,4.329,4.329,4.329,4.329,4.329,4.329,4.329,4.329,4.329,4.329,4.329,4.317,4.294,4.25,4.1901,4.1205,4.0546,4.0038,3.9649,3.9469,3.9373,3.9373,3.9373,3.9373,3.9373,3.9373,3.9373,0.0,3.9373,3.9373,3.9192,3.8575,3.9046,3.9156,3.8575,3.8905,3.8775,3.7944,3.802,3.7724,3.6745,3.7439,3.8121,3.8835,3.7554,3.6656,0.0,0.0,0.0,0.0,0.0,0.0,0.0,0.0,0.0,0.0,0.0,0.0,0.0,0.0,0.0,0.0,0.0,0.0,0.0,0.0,0.0,0.0,4.4137,4.4784,4.5484,4.6406,4.7001,4.6924,4.8119,4.891,4.8614,4.884,4.904,4.9124,4.8809,4.8563,4.848,4.8521,4.8132,4.7098,4.6748,4.6142,4.5187,4.4787,4.461,4.461,4.4381,4.4297,4.4266,4.4026,4.3793,4.3675,4.3596,4.3438,4.329,4.329,4.329,0.0,0.0,0.0,0.0,0.0,4.329,4.329,4.329,4.329,4.329,4.329,4.329,4.329,4.329,4.329,4.329,4.329,4.329,4.329,4.329,4.312,4.2761,4.2141,4.1444,4.0786,4.0127,3.9679,3.9373,3.9373,3.9373,0.0,3.9373,3.9373,3.9373,3.9373,3.9373,3.9373,3.9373,3.9119,3.8863,3.8723,3.8472,3.8323,3.8202,3.8348,0.0,0.0,0.0,3.6773,3.5214,3.6306,0.0,0.0,0.0,0.0,0.0,0.0,0.0,0.0,3.7267,3.7734,0.0,0.0,0.0,0.0,0.0,0.0,0.0,0.0,0.0,0.0,0.0,0.0,0.0,0.0,0.0,0.0,4.5873,4.6518,4.7219,4.6941,4.6803,4.7219,4.7452,4.7581,4.7581,4.7837,4.8091,4.826,4.8438,4.8438,4.8301,0.0,0.0,0.0,0.0,4.5878,4.4564,4.4534,4.4534,4.4534,4.4343,4.4297,4.4228,4.391,4.3714,4.3675,4.3478,4.3329,4.329,4.329,4.329,4.329,4.329,4.329,4.329,4.329,4.329,4.329,4.329,0.0,0.0,4.329,4.329,4.329,4.329,4.325,4.317,4.317,4.309,4.301,4.301,4.2684,4.2166,4.142,4.0793,4.0159,3.9414,3.9192,3.909,3.909,3.909,3.909,3.909,3.9265,3.9373,3.9265,3.9265,3.9265,3.9265,3.8575,3.8352,3.9017,0.0,0.0,3.7872,3.7465,3.7023,3.6676,3.6182,3.5356,3.4197,3.4748,3.5759,3.7141,3.7041,3.7986,3.9949,3.9162,3.9117,3.969,3.8906,3.9602,0.0,0.0,0.0,0.0,0.0,0.0,0.0,0.0,0.0,0.0,0.0,0.0,0.0,0.0,0.0,4.5155,4.5873,4.6518,4.7219,4.7233,4.7203,4.7279,4.7452,4.7581,4.7581,4.7837,4.8007,4.8049,4.8091,4.8091,4.8049,4.8091,4.7482,4.6103,4.6082,4.5483,4.4104,4.4104,4.4104,4.4104,0.0,0.0,4.4065,4.3988,4.3832,4.3675,4.3636,4.3518,4.329,4.329,4.329,4.329,4.329,4.329,4.329,4.329,4.329,4.329,4.329,4.329,4.329,4.329,4.329,4.329,4.329,4.278,0.0,4.2252,4.1728,4.1113,4.1113,4.16,4.1755,4.0587,4.0208,3.9837,3.866,3.7881,3.7396,3.7396,3.7396,3.7396,3.7396,3.8509,3.9192,3.8538,3.8427,3.8427,3.8427,3.7691,3.7204,3.7347,3.7088,3.6699,3.6215,3.6665,3.648,3.5264,3.4524,3.4723,3.617,3.6206,3.6851,3.8262,3.829,3.8695,3.9591,3.9971,4.0419,4.0892,3.9815,4.0449,0.0,0.0,0.0,0.0,0.0,0.0,0.0,0.0,0.0,0.0,0.0,4.3449,4.3818,0.0,4.5544,4.6202,4.6591,4.692,4.7249,4.7309,4.7309,4.7309,4.7396,4.7482,4.7482,4.7666,4.7794,4.7794,4.7922,4.7922,4.7794,4.7922,4.7315,4.5828,4.592,4.5363,4.3988,4.3988,4.3988,4.3988,4.391,4.3832,4.3832,4.3714,4.3566,4.3518,4.3518,4.3438,4.329,4.329,4.329,4.328,4.3135,4.3127,4.329,4.329,4.305,4.2659,4.2659,4.2345,4.1976,4.1976,4.1976,4.1976,4.1976,4.1616,4.1281,4.1281,4.0944,4.0603,4.0603,4.0944,4.1053,4.0069,3.9624,3.9179,3.8225,3.7392,3.6894,3.6894,3.6894,3.6894,3.6894,3.7587,3.7994,3.7615,3.7539,3.7539,3.7539,3.6816,3.6425,3.6855,3.6148,3.5655,3.5696,3.5954,3.5981,3.5683,3.516,3.5326,3.6427,3.6347,3.6988,3.8475,3.8335,3.8727,3.9782,3.9969,4.034,4.0862,4.0194,4.1066,0.0,0.0,0.0,0.0,0.0,0.0,0.0,0.0,4.301,4.3159,4.4077,4.5065,4.5574,4.6142,4.6681,4.7219,4.7309,4.7309,4.7309,4.7309,4.7309,4.7309,4.7309,4.7309,4.7309,4.7482,4.7538,4.7538,4.7752,4.7752,4.7538,4.7752,4.7147,4.5582,4.5757,4.5203,4.3871,4.3871,4.3871,4.3871,4.3714,4.3596,4.3596,4.3369,4.329,4.329,4.329,4.329,4.329,4.313,4.305,4.3,4.2569,4.2536,4.278,4.2928,4.2421,4.1728,4.1728,4.1239,4.0603,4.0603,4.0603,4.0603,4.0603,4.0475,4.0346,4.0346,4.0216,4.0087,4.0087,4.0216,4.0135,3.9479,3.902,3.8503,3.7737,3.7032,3.6563,3.6452,3.6425,3.6425,3.6425,3.6425,3.6464,3.666,3.666,3.666,3.666,3.5976,3.5776,3.6582,3.5291,3.4714,3.5561,3.5526,3.5742,3.6407,3.6224,3.6149,3.6279,3.6279,3.6946,3.8431,3.8206,3.8741,4.0164,3.9902,4.0043,4.0592,4.0592,4.1512,4.1912,4.1871,4.1743,4.2851,4.2731,4.301,0.0,0.0,4.5125,4.5753,4.6471,4.701,4.707,4.713,4.7219,4.7309,4.7309,4.7309,4.7309,4.7309,4.7309,4.7309,4.7309,4.7309,4.7309,4.7309,4.7352,4.7352,4.7352,4.7352,4.7352,4.7352,4.6766,4.5376,4.5387,4.4758,4.3399,4.3369,4.3369,4.3369,4.3369,4.3329,4.3329,4.329,4.329,4.329,4.329,4.329,4.325,4.2456,4.217,4.2087,4.1198,4.0873,4.0958,4.1509,4.1297,4.0774,4.0774,4.0689,4.0603,4.0603,4.0603,4.0603,4.0603,4.0043,3.9387,3.9387,3.8819,3.8194,3.8194,3.8774,3.9179,3.8592,3.8444,3.8106,3.692,3.6026,3.5321,3.4767,3.4662,3.4662,3.4662,3.4662,3.495,3.5696,3.5816,3.5816,3.5816,3.5073,3.4868,3.5736,3.4991,3.4648,3.5283,3.5748,3.6062,3.6122,3.6114,3.6358,3.6881,3.6907,3.7449,3.8641,3.8626,3.9202,4.0372,4.0327,4.0644,4.1219,4.1219,4.1762,4.3057,4.3299,4.321,0.0,4.4287,4.4975,4.6082,4.6411,4.6531,4.683,4.7728,4.8207,4.7459,4.7608,4.7758,0.0,4.7309,4.7309,4.7309,4.7309,4.7309,4.7309,4.7309,4.7309,4.7309,4.7309,4.7309,4.7309,4.7309,4.7309,4.7309,4.7309,4.6681,4.5334,4.5304,4.4676,4.329,4.329,4.329,4.329,4.329,4.329,4.329,4.329,4.305,4.2496,4.1976,4.1699,4.1699,4.1323,4.1197,4.1128,4.0519,4.0085,3.9897,4.0668,4.0482,3.9782,3.9782,3.9458,3.9042,3.9042,3.9042,3.9042,3.9042,3.8729,3.844,3.844,3.8194,3.79,3.79,3.8194,3.8387,3.8148,3.7829,3.7431,3.6927,3.6253,3.5678,3.5443,3.5129,3.492,3.492,3.492,3.5047,3.5398,3.5189,3.495,3.495,3.4647,3.4695,3.5414,3.5131,3.5155,3.573,3.6305,3.6619,3.6619,3.6959,3.7273,3.7508,3.7821,3.8214,3.871,3.9364,3.9939,4.0409,4.0775,4.1063,4.1324,4.1664,4.2047,4.3486,4.3898,0.0,4.4496,4.5454,4.6339,4.6518,4.71,4.7578,4.7578,4.8327,4.876,4.7758,4.7818,4.7848,4.7369,4.7309,4.7309,4.7309,4.7309,4.7309,4.7309,4.716,4.71,4.7279,4.7309,4.7309,4.7309,4.7309,4.7309,4.7309,4.7309,4.677,4.5603,4.5394,4.4736,4.3589,4.3379,4.329,4.329,4.305,4.297,4.29,4.2699,4.2222,4.1603,4.0901,4.0603,4.0603,4.0346,4.0216,4.0158,3.9681,3.9239,3.8926,3.9607,3.9458,3.8836,3.8836,3.844,3.79,3.79,3.79,3.79,3.79,3.79,3.79,3.79,3.79,3.79,3.79,3.79,3.79,3.79,3.756,3.722,3.7037,3.6671,3.6305,3.6149,3.5783,3.5521,3.5521,3.5521,3.5521,3.5521,3.5155,3.4868,3.4868,3.4868,3.5025,3.5469,3.5678,3.594,3.6332,3.6907,3.7246,3.7246,3.7795,3.8135,3.8135,3.8658,3.9024,3.9181,3.9991,4.0488,4.0671,4.1115,4.1402,4.1559,4.1977,4.2395,4.2581,4.295,4.3718,4.4945,4.5813,4.6459,4.713,4.7788,4.8267,4.8267,4.8297,4.8297,4.8267,4.7758,4.7339,4.7309,4.7309,4.7309,4.7309,4.7309,4.7309,4.7309,4.6741,4.6621,0.0,4.7309,4.7309,4.7309,4.7309,4.7309,4.7309,4.7309,4.698,4.6279,4.5633,4.4975,4.4287,4.3618,4.329,4.329,4.2456,4.2046,4.2005,4.1113,4.0689,4.0646,4.0603,4.0603,4.0518,3.9651,3.9254,3.9166,3.8285,3.7972,3.7946,3.7992,3.7946,3.7946,3.7946,3.79,3.79,3.79,3.79,3.79,3.79,3.79,3.79,3.79,3.79,3.79,3.79,3.79,3.79,3.79,3.79,3.7717,3.7142,3.6985,3.6802,3.6227,3.6096,3.607,3.607,3.607,3.607,3.607,3.607,3.6044,3.6044,3.6044,3.607,3.607,3.6593,3.6959,3.6985,3.7534,3.7874,3.7874,3.8397,3.8684,3.8684,3.9259,3.9834,4.0357,4.0409,4.0697,4.1298,4.1298,4.1611,4.2185,4.2211,4.2813,4.294,0.0,4.4855,4.5753,4.6471,4.716,4.7818,4.8117,4.8297,4.8297,4.8297,4.8147,4.7728,4.7459,4.7309,4.7309,4.7309,4.7309,4.7309,4.7309,4.7309,4.7309,4.71,0.0,0.0,0.0,0.0,4.7279,4.7309,4.7309,4.7309,4.7309,4.701,4.6309,4.5663,4.4727,4.3466,4.3377,4.2699,4.1491,4.1197,4.1071,4.1029,4.013,3.9694,3.9651,3.9087,3.8819,3.88,3.8485,3.8349,3.8304,3.8037,3.79,3.79,3.79,3.79,3.79,3.79,3.79,3.79,3.79,3.79,3.79,3.79,3.8161,3.8449,3.8449,3.8449,3.8449,3.8449,3.8161,3.79,3.79,3.79,3.7848,3.7639,3.7612,3.7534,3.7325,3.6985,3.6698,3.6698,3.6698,3.6828,3.7246,3.6619,3.6096,3.6096,3.6096,3.6253,3.6645,3.6881,3.7168,3.756,3.8109,3.8449,3.8449,3.8998,3.9311,3.9311,3.9834,4.0226,4.0409,4.0801,4.1115,4.1324,4.169,4.1977,4.2238,4.2996,4.3546,4.2979,4.4221,4.5514,4.6441,4.698,4.7429,4.7848,4.7938,4.7878,4.7638,4.7578,4.7369,4.6711,4.6591,4.6651,4.692,4.695,4.704,4.7279,4.7309,4.7309,4.7309,4.71,4.704,0.0,0.0,0.0,4.7249,4.7309,4.7309,4.7309,4.7309,4.6927,4.6178,4.526,4.4158,4.2855,4.2495,4.1574,4.013,4.013,3.9956,3.9634,3.9015,3.8729,3.8702,3.8148,3.79,3.79,3.79,3.79,3.79,3.79,3.79,3.79,3.79,3.79,3.79,3.79,3.79,3.79,3.79,3.79,3.7952,3.8135,3.8423,3.8762,3.8972,3.9024,3.9024,3.9024,3.8789,3.8449,3.824,3.8187,3.8135,3.7952,3.79,3.79,3.79,3.7586,3.7325,3.7325,3.7325,3.7456,3.7848,3.7246,3.675,3.675,3.675,3.6907,3.7273,3.7325,3.756,3.8135,3.8501,3.8789,3.9024,3.9573,3.9886,3.9886,4.0435,4.0749,4.0749,4.1324,4.1611,4.1611,4.2186,4.2579,4.2839,4.3572,4.399,4.2656,4.4091,4.5568,4.6937,4.7266,4.7236,4.7249,4.7249,4.707,4.6309,4.619,4.6022,0.0,0.0,4.5514,4.6172,4.6322,4.6591,4.7219,4.7309,4.7309,0.0,0.0,0.0,0.0,0.0,0.0,4.7119,0.0,4.7266,4.7149,4.7222,4.677,4.5721,4.4458,4.3357,4.2385,4.1135,4.0043,3.921,3.9166,3.8729,3.79,3.79,3.79,3.79,3.79,3.79,3.79,3.79,3.79,3.79,3.79,3.79,3.79,3.79,3.79,3.79,3.7926,3.7926,3.79,3.7926,3.7952,3.8057,3.8579,3.8789,3.8919,3.9494,3.9651,3.9651,3.9651,3.9625,3.9468,3.8893,3.8762,3.8606,3.8109,3.8004,3.8004,3.8004,3.8004,3.7978,3.7952,3.7952,3.7926,3.79,3.7926,3.7926,3.79,3.79,3.79,3.79,3.7926,3.8161,3.8658,3.8762,3.905,3.9625,4.0174,4.0461,4.0461,4.101,4.1324,4.1324,4.1873,4.2211,4.2211,4.2762,4.3337,4.3912,4.3912,4.4199,4.272,4.3747,4.5014,4.6842,4.6726,4.6226,4.6509,4.6561,4.6232,4.5065,4.4825,4.4616,0.0,0.0,0.0,4.5514,4.6411,0.0,4.7279,4.7309,0.0,4.7309,0.0,4.684,4.6226,4.602,0.0,0.0,4.6462,4.6638,4.5144,4.5808,4.5531,4.4067,4.3255,4.2189,4.0803,3.933,3.8819,3.921,3.8549,3.8103,3.79,3.79,3.79,3.79,3.79,3.79,3.79,3.79,3.79,3.79,3.79,3.79,3.79,3.79,3.79,3.7952,3.837,3.824,3.7978,3.837,3.8501,3.8606,3.9207,3.9651,4.0017,4.0174,4.02,4.02,4.02,3.9913,3.9573,3.9416,3.939,3.9337,3.9207,3.9181,3.9181,3.9181,3.9181,3.9024,3.8579,3.8501,3.837,3.7978,3.824,3.837,3.7952,3.79,3.79,3.79,3.8266,3.8553,3.871,3.9494,4.0043,4.02,4.0749,4.1089,4.1089,4.1246,4.1324,4.1324,4.1873,4.2211,4.2211,4.3154,4.3729,4.3939,4.4304,4.4591,4.19,4.3015,4.4224,4.5631,4.5665,4.5331,4.5226,4.534,4.5065,4.3748,4.3449,0.0,4.2611,4.3539,0.0,0.0,0.0,0.0,4.7279,4.7309,4.7309,0.0,4.7309,0.0,4.5913,4.5779,4.519,0.0,4.5098,4.5492,4.4359,4.4823,4.4372,4.2787,4.2177,4.1032,3.9192,3.8306,3.8148,3.8639,3.8148,3.79,3.79,3.79,3.79,3.79,0.0,3.79,3.79,3.79,3.79,3.79,3.79,3.8057,3.8266,3.8266,3.8423,3.8684,3.8998,3.8919,3.871,3.8998,3.9102,3.9207,3.9782,4.0174,4.0461,4.0749,4.0801,4.0801,4.0801,4.0592,4.0305,4.0017,3.9965,3.9886,3.9651,3.9599,3.9599,3.9599,3.9599,3.9494,3.9155,3.9102,3.8998,3.8684,3.8919,3.8998,3.8684,3.8658,3.8658,3.8658,3.8919,3.9207,3.9442,4.0043,4.054,4.0801,4.1115,4.1324,4.1324,4.1559,4.169,4.169,4.25,4.297,4.297,4.3807,4.4251,4.4251,4.4565,4.4668,4.0748,4.1984,4.311,4.3985,4.4271,4.415,4.3675,4.3772,4.3658,4.2372,0.0,4.1931,4.1235,4.2252,4.3379,4.4077,0.0,4.6518,4.7219,4.7222,4.7106,4.7106,4.6975,4.6506,4.5508,4.5417,4.461,4.2744,4.3416,4.389,4.389,4.3948,4.3211,4.1518,4.097,3.9773,3.79,3.79,3.79,3.79,3.79,3.79,3.79,3.79,3.79,3.79,3.79,0.0,3.79,3.79,3.79,3.7926,3.7978,3.8292,3.871,3.8789,3.9107,3.9577,3.9655,3.9633,3.9607,3.9655,3.973,3.9808,4.0357,4.054,4.0644,4.1167,4.1324,4.1324,4.1324,4.1324,4.1193,4.0644,4.054,4.0409,3.9939,3.9834,3.9834,3.9834,3.9834,3.9808,3.973,3.973,3.9677,3.9625,3.9677,3.973,3.973,3.9651,3.9599,3.9599,3.9677,3.9913,4.0383,4.0488,4.0749,4.1272,4.1402,4.1428,4.1428,4.1977,4.2342,4.2342,4.3389,4.3912,4.3912,4.4434,4.4668,4.4668,4.4668,4.4668,4.07,4.0717,4.079,4.299,4.2638,4.1824,4.2221,4.2361,0.0,0.0,4.0756,4.0546,3.9888,4.1294,4.2731,4.3349,4.5053,4.6518,4.7219,4.6594,4.6077,0.0,4.5326,4.4452,4.3388,4.3293,0.0,0.0,4.1746,4.1819,4.1819,4.2166,4.1383,3.9307,3.8727,3.8267,3.79,3.79,3.79,3.79,3.79,3.79,3.79,3.79,3.79,3.79,3.79,0.0,3.79,3.79,3.79,3.7952,3.8397,3.8632,3.8762,3.9259,3.9377,3.9314,3.978,3.9788,3.9689,4.0132,4.0278,4.0383,4.0984,4.1167,4.1193,4.1298,4.1324,4.1324,4.1324,4.1324,4.1298,4.1193,4.1167,4.1141,4.1036,4.101,4.101,4.101,4.101,4.0853,4.0357,4.0278,4.0122,3.9677,3.9991,4.0278,4.0278,3.9886,3.9599,3.9599,4.0017,4.0305,4.0409,4.088,4.1219,4.1298,4.1768,4.2004,4.2004,4.2579,4.2866,4.2866,4.352,4.3912,4.3912,4.4434,4.4668,4.4668,4.4668,4.4668,3.9555,3.948,3.9496,4.1019,4.0757,4.0193,4.0605,0.0,0.0,0.0,3.9888,3.9798,3.9433,4.0756,0.0,4.2731,4.4197,4.5436,4.5945,4.558,0.0,4.5041,4.4591,4.389,0.0,4.2792,4.2382,4.1374,4.1324,4.1324,4.1324,4.0901,4.0097,3.8736,3.8187,3.79,3.79,3.79,3.79,3.79,3.79,3.79,3.79,3.79,3.79,3.79,3.79,0.0,3.79,3.7762,3.7762,3.7906,3.8173,3.8562,3.8995,3.9421,3.9736,3.9921,4.0155,4.0182,4.0131,4.0382,4.0532,4.0733,4.1169,4.1198,4.1097,4.1274,4.1198,4.1097,4.1274,4.1324,4.1324,4.1324,4.1324,4.1324,4.1324,4.1324,4.1324,4.1324,4.1324,4.1219,4.0932,4.088,4.0801,4.054,4.0723,4.088,4.088,4.0644,4.0488,4.0488,4.0723,4.088,4.088,4.1428,4.1768,4.1768,4.2291,4.2605,4.2605,4.3154,4.3467,4.3467,4.4042,4.433,4.433,4.4591,4.4668,4.4668,4.4668,4.4668,3.8553,3.8632,3.8684,3.9259,3.9057,3.8813,3.92,3.9081,0.0,0.0,3.9373,3.9373,3.9373,4.0367,4.1482,0.0,4.317,4.4051,4.4734,4.4422,4.4112,0.0,4.3796,0.0,4.2577,4.2479,0.0,4.1374,4.1193,0.0,4.0958,4.0095,3.9285,3.8553,3.8135,3.79,3.79,3.79,3.79,3.79,3.79,3.79,3.79,3.79,3.7854,3.7808,3.7854,0.0,0.0,3.7551,3.7675,3.7904,3.8071,3.8563,3.9349,3.9669,4.0056,4.0389,4.0389,4.0389,4.0364,4.0389,4.0593,4.0846,4.1047,4.0997,4.0846,4.1047,4.0997,4.0846,4.1047,4.1123,4.1174,4.1198,4.1352,4.1507,4.1507,4.1585,4.169,4.169,4.169,4.169,4.169,4.169,4.169,4.169,4.169,4.169,4.169,4.169,4.169,4.169,4.1455,4.135,4.1481,4.1899,4.2264,4.2343,4.2892,4.3206,4.3206,4.3755,4.4042,4.4042,4.4487,4.4668,4.4668,4.4668,4.4668,4.4668,4.4668,4.4668,3.8553,3.8344,3.8109,3.8658,3.7972,3.7484,3.8464,0.0,0.0,3.9201,3.9373,3.9373,3.9373,4.0008,4.0905,0.0,4.2275,4.2815,4.456,4.3266,4.2351,4.2855,0.0,0.0,4.1448,4.1448,0.0,4.1324,0.0,0.0,3.9782,3.9677,3.9102,3.8004,3.7926,3.79,3.79,3.79,3.79,3.79,3.79,3.79,3.79,3.79,3.7762,3.7551,3.7808,0.0,0.0,3.7413,3.7676,3.7928,3.8492,3.9056,3.962,4.0209,4.0287,4.0134,4.0134,3.9981,3.98,4.0083,4.0338,4.0542,4.0567,4.0567,4.0542,4.0567,4.0567,4.0542,4.0567,4.0567,4.0643,4.0896,4.1538,4.2133,4.2133,4.25,4.2866,4.2866,4.2866,4.2866,4.2866,4.2866,4.2866,4.2866,4.2866,4.2866,4.2866,4.2866,4.2866,4.2866,4.1925,4.1533,4.2107,4.2185,4.2396,4.2918,4.3467,4.3807,4.3807,4.4356,4.4643,4.4643,4.4642,4.4668,4.4668,4.4668,4.4668,4.4668,4.4668,4.4668,3.8057,3.8057,3.7952,3.8161,3.7325,3.6691,3.7655,0.0,3.677,3.7711,3.8323,3.8538,3.7994,3.8527,3.9329,4.0115,4.0118,4.0532,4.1786,4.127,4.0958,4.1302,4.0995,0.0,0.0,0.0,4.1324,4.1324,0.0,0.0,3.9651,3.9259,3.871,3.7926,3.79,3.79,3.79,3.79,3.7808,3.7644,3.7808,3.7716,3.7413,3.7762,3.767,3.7248,3.7551,0.0,0.0,3.7062,3.7394,3.791,3.8229,3.8738,3.9422,3.9829,3.9929,3.9826,3.9826,3.98,3.9749,3.9826,4.0157,4.0539,4.0849,4.0849,4.0848,4.131,4.136,4.1255,4.1412,4.1464,4.1516,4.162,4.1904,4.2163,4.2163,4.2449,4.2762,4.2762,4.2866,4.3023,4.3023,4.3023,4.3023,4.3023,4.3023,4.3023,4.3023,4.3023,4.3023,4.3023,4.2605,4.2422,4.2657,4.2997,4.3284,4.352,4.4068,4.4382,4.4382,4.4617,4.4668,4.4668,4.4668,4.4668,4.4668,4.4668,4.4668,4.4668,4.4668,4.4668,3.7534,3.7769,3.79,3.79,3.6985,3.6314,0.0,3.651,3.5936,3.6738,3.7577,3.791,3.7049,3.7615,3.8284,3.8488,3.8432,3.874,3.9689,3.9752,3.9801,0.0,0.0,4.0409,0.0,4.1219,4.1324,4.1324,0.0,0.0,3.9625,3.8893,3.8292,3.7926,3.79,3.79,3.79,3.7808,3.7716,3.7598,3.767,3.7505,3.7201,3.7505,3.7413,3.7015,3.7273,0.0,0.0,3.6959,3.734,3.7973,3.8188,3.8718,3.9399,3.9598,3.9697,3.9697,3.9697,3.9697,3.9722,3.9898,4.0199,4.0629,4.1379,4.1301,4.1145,4.1709,4.1757,4.1651,4.1811,4.1917,4.197,4.197,4.2204,4.2385,4.2492,4.2833,4.3122,4.3228,4.3361,4.352,4.352,4.352,4.352,4.352,4.352,4.352,4.352,4.352,4.352,4.352,4.352,4.3467,4.3284,4.365,4.3991,4.4121,4.4513,4.4668,4.4668,4.4668,4.4668,4.4668,4.4668,4.4668,4.4668,4.4668,4.4668,4.4668,4.4668,4.4668,3.7011,3.7456,3.79,3.79,3.6985,3.6314,3.7176,3.651,3.5936,3.6738,3.7577,3.791,3.7049,3.7615,3.814,3.7964,3.7607,3.7838,3.9047,3.8891,3.8945,0.0,0.0,3.9834,4.0383,4.0958,4.1324,4.1324,0.0,0.0,3.9599,3.8527,3.7926,3.79,3.79,3.79,3.79,3.767,3.767,3.79,3.7366,3.7248,3.7505,3.7201,3.6968,0.0,0.0,0.0,0.0,3.7248,3.7756,3.8065,3.8642,3.9195,3.9697,3.9697,3.9697,3.9697,3.9697,3.9697,3.9798,4.0325,4.0501,4.0727,4.1861,4.1756,4.1275,4.1275,4.1275,4.1275,4.1275,4.149,4.1679,4.1679,4.2378,4.3056,4.33,4.3873,4.4341,4.4613,4.4642,4.4642,4.4642,4.4642,4.4642,4.4642,4.4642,4.4642,4.4642,4.4642,4.4642,4.4642,4.4642,4.4487,4.3912,4.3912,4.4121,4.4696,4.4668,4.4668,4.4668,4.4668,4.4668,4.4668,4.4668,4.4668,4.4668,4.4668,4.4668,4.4668,4.4668,4.4668,3.6279,3.6515,3.6671,3.6671,3.6096,3.5634,3.5891,3.5368,3.4868,3.5128,3.5896,3.6215,3.5332,3.5896,3.6643,3.7198,3.7209,3.7519,0.0,0.0,0.0,3.9599,4.0305,4.0853,0.0,0.0,4.1141,0.0,0.0,0.0,3.9024,3.8292,3.79,3.79,3.7716,3.7624,3.7624,3.7366,3.7155,3.7062,3.7108,3.6968,3.6734,3.6968,3.6875,0.0,0.0,0.0,0.0,3.7056,3.761,3.8065,3.8642,3.922,3.9697,3.9697,3.9697,3.9697,3.9697,3.9948,4.0275,4.045,4.1028,4.176,4.2112,4.2087,4.1982,4.2359,4.2459,4.2459,4.2459,4.2514,4.2624,4.2624,4.2806,4.3042,4.3098,4.339,4.3738,4.3793,4.3984,4.4148,4.4148,4.4313,4.4422,4.4422,4.4559,4.4668,4.4668,4.4668,4.4668,4.4668,4.4668,4.4643,4.446,4.446,4.4539,4.4668,4.4668,4.4668,4.4668,4.4668,4.4668,4.4668,4.4668,4.4668,4.4668,4.4668,4.4668,4.4668,4.4668,4.4668,3.5652,3.594,3.6096,3.6096,3.5704,3.5286,3.5286,3.4816,3.4397,3.4397,3.5073,3.544,3.4564,3.5114,3.5749,3.5965,3.6384,3.6985,0.0,0.0,0.0,3.9573,0.0,0.0,0.0,4.1193,4.1063,0.0,0.0,0.0,3.8595,3.8048,3.7716,3.7598,3.7551,3.7459,3.7366,3.7062,3.6922,3.6875,3.6828,3.6734,3.6546,3.6734,3.6687,0.0,0.0,0.0,0.0,3.7186,3.7688,3.809,3.8868,3.9396,3.9697,3.9697,3.9697,3.9697,3.9697,4.0049,4.0551,4.0752,4.158,4.2514,4.2514,4.2514,4.259,4.2942,4.2986,4.2986,4.2986,4.2986,4.2986,4.2986,4.2986,4.3042,4.3129,4.3295,4.3462,4.3572,4.3764,4.3955,4.4064,4.4203,4.4313,4.4422,4.4559,4.4668,4.4668,4.4668,4.4668,4.4668,4.4668,4.4668,4.4668,4.4668,4.4668,4.4668,4.4668,4.4668,4.4668,4.4668,4.4668,4.4668,4.4668,4.4668,4.4668,4.4668,4.4668,4.4668,4.4668,4.4668,0.0,3.56,3.5992,3.5992,3.56,3.5234,3.5234,3.4789,0.0,3.4397,3.5032,3.5359,3.4616,3.51,3.5386,3.468,3.5469,3.6384,0.0,3.8057,0.0,0.0,4.0174,0.0,4.0488,4.0958,4.101,0.0,0.0,0.0,3.8355,3.779,3.7366,3.7062,3.732,3.732,3.7062,3.6803,3.6828,3.7062,3.6593,3.6499,3.6662,3.6499,3.6405,0.0,0.0,0.0,0.0,3.7563,3.8015,3.8115,3.9245,3.9697,3.9697,3.9697,3.9697,3.9697,3.9747,4.0124,4.0676,4.12,4.2158,4.2986,4.2986,4.2986,4.2986,4.2986,4.2986,4.2986,4.2986,4.2986,4.2986,4.2986,4.2986,4.3073,4.3351,4.3406,4.3462,4.3789,4.3844,4.3955,4.4203,4.4258,4.4367,4.4613,4.4668,4.4668,4.4668,4.4668,4.4668,4.4668,4.4668,4.4668,4.4668,4.4668,4.4668,4.4668,4.4668,4.4668,4.4668,4.4668,4.4668,4.4668,4.4668,4.4668,4.4668,4.4668,4.4668,4.4668,4.4668,4.4668,3.458,0.0,3.4789,3.4789,3.4711,3.4607,0.0,3.4502,3.4397,3.4397,3.4564,3.4778,3.5041,3.4879,3.5068,3.6219,3.6619,3.7011,3.7612,0.0,0.0,4.0801,4.1036,4.1115,4.1115,4.0801,4.0409,0.0,0.0,3.8402,3.7738,3.7371,3.7062,3.6803,3.6875,3.6875,3.6803,3.6593,3.6499,3.6546,3.6452,3.6405,3.6452,3.6405,3.6405,0.0,0.0,0.0,3.648,3.7563,3.8015,3.8115,3.9245,3.9697,3.9697,3.9697,3.9697,3.9747,4.0174,4.0676,4.1304,4.2283,4.276,4.2986,4.2986,4.2986,4.2986,4.2986,4.2986,4.2986,4.2986,4.2986,4.2986,4.2986,4.2986,4.3042,4.3073,4.3073,4.3129,4.3209,4.3351,4.3517,4.3628,4.3958,4.4313,4.4367,4.4559,4.4668,4.4668,4.4668,4.4668,4.4668,4.4668,4.4668,4.4668,4.4668,4.4668,4.4668,4.4668,4.4668,4.4668,4.4668,4.4668,4.4668,4.4668,4.4668,4.4668,4.4668,4.4668,4.4668,4.4668,4.4668,3.4397,3.4607,3.4816,3.4816,3.4816,3.4816,3.4816,3.4607,3.4397,3.4397,3.4397,3.4502,3.4816,3.4842,3.5129,3.607,3.6671,0.0,0.0,0.0,4.0618,4.1246,4.1324,4.1324,0.0,0.0,0.0,0.0,0.0,3.8054,3.718,3.7015,3.6828,3.6593,3.6546,3.6546,3.6546,3.6452,3.6405,3.6405,3.6405,3.6405,3.6405,3.6405,3.6405,0.0,0.0,0.0,3.6857,3.7663,3.8165,3.8492,3.9346,3.9697,3.9697,3.9697,3.9848,4.0124,4.04,4.1053,4.1856,4.271,4.2986,4.2986,4.2986,4.2986,4.2986,4.2986,4.2986,4.2986,4.2986,4.2986,4.2986,4.2986,4.2986,4.2986,4.2986,4.2986,4.2986,4.2986,4.3129,4.324,4.3406,4.3683,4.3929,4.4094,4.4367,4.4531,4.4531,4.4613,4.4668,4.4668,4.4668,4.4668,4.4668,4.4668,4.4668,4.4668,4.4668,4.4668,4.4668,4.4668,4.4668,4.4668,4.4668,4.4668,4.4668,4.4668,4.4668,4.4668,4.4668,4.4668,3.4502,3.5025,3.5495,3.5234,3.5234,3.5286,3.5182,3.4763,3.4397,3.4397,3.4397,3.445,3.4633,3.5077,3.5469,3.5678,0.0,0.0,3.9494,4.0566,4.1219,4.1298,4.1324,0.0,4.1193,0.0,0.0,0.0,0.0,3.7715,3.6734,3.6662,3.6593,3.6405,3.6405,3.6405,3.6405,3.6405,3.6405,3.6405,3.6405,3.6405,3.6405,3.6405,3.6405,3.6405,0.0,0.0,3.7236,3.7789,3.8341,3.8919,3.9471,3.9697,3.9697,3.9697,4.0049,4.0551,4.0701,4.143,4.2414,4.2836,4.2986,4.2986,4.2986,4.2986,4.2986,4.2986,4.2986,4.2986,4.2986,4.2986,4.2986,4.2986,4.2986,4.2986,4.2986,4.2986,4.2986,4.2986,4.3042,4.3129,4.3351,4.3462,4.3572,4.3844,4.4119,4.4258,4.4258,4.4476,4.4613,4.4613,4.4668,4.4668,4.4668,4.4668,4.4668,4.4668,4.4668,4.4668,4.4668,4.4668,4.4668,4.4668,4.4668,4.4668,4.4668,4.4668,4.4668,4.4668,4.4668,4.4668,3.5025,3.594,3.6384,3.4894,3.492,3.5155,3.4659,3.4476,3.4397,3.4397,3.4397,3.4685,3.5652,3.5913,3.6305,3.7325,0.0,3.8893,0.0,0.0,4.0749,4.1246,0.0,4.1115,0.0,0.0,0.0,0.0,0.0,3.6904,3.6709,3.6546,3.6452,3.6405,3.6405,3.6405,3.6405,3.6405,3.6405,3.6405,3.6405,3.6405,3.6405,3.6405,3.6405,3.6405,0.0,3.6732,3.7236,3.7789,3.8341,3.8919,3.9471,3.9697,3.9697,3.9697,4.0049,4.0651,4.158,4.2363,4.2861,4.2961,4.2986,4.2986,4.2986,4.2986,4.2986,4.2986,4.2986,4.2986,4.2986,4.2986,4.2986,4.2986,4.2986,4.2986,4.2986,4.2986,4.2986,4.2986,4.3184,4.3351,4.3381,4.3653,4.3844,4.3899,4.3955,4.3955,4.3955,4.4203,4.4367,4.4367,4.4559,4.4668,4.4668,4.4668,4.4668,4.4668,4.4668,4.4668,4.4668,4.4668,4.4668,4.4668,4.4668,4.4668,4.4668,4.4668,4.4668,4.4668,4.4668,4.4668,3.4737,3.5443,3.5966,3.5443,3.6018,3.6541,3.594,3.5547,3.5312,3.5312,3.5312,3.5495,3.5992,0.0,3.7456,3.8632,0.0,3.9808,4.0357,4.0697,4.101,0.0,0.0,4.1089,0.0,0.0,0.0,0.0,0.0,0.0,3.6546,3.6452,3.6405,3.6405,3.6405,3.6405,3.6405,3.6405,3.6405,3.6405,3.6405,3.6405,3.6405,3.6405,3.6405,3.643,0.0,3.7111,3.7663,3.8241,3.8818,3.9346,3.9597,3.9697,3.9772,4.035,4.0752,4.1128,4.2208,4.276,4.2986,4.2986,4.2986,4.2986,4.2986,4.2986,4.2986,4.2986,4.2986,4.2986,4.2986,4.2986,4.2986,4.2986,4.2986,4.2986,4.2986,4.2986,4.2986,4.2986,4.3073,4.3184,4.3184,4.3321,4.3432,4.3432,4.3679,4.3899,4.3899,4.4258,4.4531,4.4531,4.4613,4.4668,4.4668,4.4668,4.4668,4.4668,4.4668,4.4668,4.4668,4.4668,4.4668,4.4668,4.4668,4.4668,4.4668,4.4668,4.485,4.5218,4.5218,4.5375,3.447,3.494,3.5557,3.5992,3.6698,3.7273,3.722,3.6645,3.6175,3.6462,3.641,3.6358,0.0,3.7508,0.0,3.9651,4.0252,4.0618,4.0618,4.1036,4.1324,4.1324,4.1193,0.0,0.0,0.0,0.0,0.0,0.0,0.0,3.6405,3.6405,3.6405,3.6405,3.6405,3.6405,3.6405,3.6405,3.6405,3.6405,3.6405,3.6405,3.6405,3.6405,3.648,3.6631,3.701,3.7563,3.8241,3.8693,3.9195,3.9697,3.9697,3.9772,3.9998,4.0924,4.1376,4.1656,4.2635,4.2986,4.2986,4.2986,4.2986,4.2986,4.2986,4.2986,4.2986,4.2986,4.2986,4.2986,4.2986,4.2986,4.2986,4.2986,4.2986,4.2986,4.2986,4.2986,4.2986,4.2986,4.2986,4.2986,4.2986,4.2986,4.2986,4.2986,4.3376,4.3734,4.3764,4.4203,4.4531,4.4613,4.4668,4.4668,4.4668,4.4668,4.4668,4.4668,4.4668,4.4668,4.4668,4.4668,4.4668,4.4668,4.4668,4.4668,4.4668,4.4824,4.5111,4.5581,4.5767,4.6055,3.4667,3.5323,3.5807,3.6053,3.5783,3.5887,3.7482,3.6933,3.641,3.7534,3.7325,3.7116,3.7665,3.871,3.9677,4.0252,4.0853,4.1246,4.1246,0.0,4.1324,4.1324,0.0,0.0,0.0,0.0,0.0,0.0,0.0,0.0,3.6405,3.6405,3.6405,3.6405,3.6405,3.6405,3.6405,3.6405,3.6405,3.6405,3.6405,3.6405,3.6405,3.6405,3.6681,3.7136,3.7161,3.7789,3.8869,3.8894,3.9195,3.9697,3.9697,3.9998,4.0526,4.1075,4.1656,4.2238,4.2816,4.2986,4.2986,4.2986,4.2986,4.2986,4.2986,4.2986,4.2986,4.2986,4.2986,4.2986,4.2986,4.2986,4.2986,4.2986,4.2986,4.2986,4.2986,4.2986,4.2986,4.2986,4.2986,4.2986,4.2986,4.2986,4.2986,4.2986,4.3042,4.3129,4.3406,4.3764,4.4064,4.4313,4.4585,4.4668,4.4668,4.4668,4.4668,4.4668,4.4668,4.4668,4.4668,4.4668,4.4668,4.4668,4.4668,4.4668,4.4668,4.5297,4.5584,4.5637,4.6159,4.6447,3.4109,3.5046,3.5991,3.5947,3.6139,3.6619,3.7665,3.756,3.756,3.8736,3.8789,3.8684,3.8919,0.0,3.9782,4.0331,4.0932,4.1324,4.1324,4.1324,0.0,0.0,0.0,0.0,0.0,0.0,0.0,0.0,0.0,0.0,3.6405,3.6405,3.6405,3.6405,3.6405,3.6405,3.6405,3.6405,3.6405,3.6405,3.6405,3.6405,3.6405,3.6405,3.6707,3.7211,3.7538,3.814,3.8944,3.9245,3.9496,3.9697,3.9697,4.0023,4.0576,4.1075,4.1681,4.2288,4.2785,4.2986,4.2986,4.2986,4.2986,4.2986,4.2986,4.2986,4.2986,4.2986,4.2986,4.2986,4.2986,4.2986,4.2986,4.2986,4.2986,4.2986,4.2986,4.2986,4.2986,4.2986,4.2986,4.2986,4.2986,4.2986,4.2986,4.2986,4.3129,4.3295,4.3381,4.3708,4.3955,4.4064,4.4313,4.4531,4.4668,4.4668,4.4668,4.4668,4.4668,4.4668,4.4668,4.4668,4.4668,4.4668,4.5088,4.5297,4.5297,4.5872,4.6342,4.6626,4.6917,4.7205,3.3982,3.4719,3.5582,3.5851,3.6233,3.6895,3.7926,3.8161,3.8475,3.9625,3.973,3.9547,3.9364,0.0,0.0,0.0,4.0801,4.1324,4.1324,0.0,0.0,0.0,0.0,0.0,0.0,0.0,0.0,0.0,0.0,0.0,0.0,3.6405,3.6405,3.6405,3.6405,3.6405,3.6405,3.6405,3.6405,3.6405,3.6405,3.6405,3.6405,3.6581,3.6983,3.7462,3.804,3.8592,3.917,3.9546,3.9697,3.9722,3.9898,4.03,4.0852,4.1404,4.1932,4.2514,4.2836,4.2986,4.2986,4.2986,4.2986,4.2986,4.2986,4.2986,4.2986,4.2986,4.2986,4.2986,4.2986,4.2986,4.2986,4.2986,4.2986,4.2986,4.2986,4.2986,4.2986,4.2986,4.2986,4.2986,4.2986,4.2986,4.2986,4.2986,4.3129,4.3295,4.3381,4.3572,4.3764,4.3899,4.4148,4.4367,4.4559,4.485,4.4955,4.4955,4.5166,4.5192,4.5009,4.5192,4.5271,4.5271,4.5689,4.5898,4.5898,4.6473,4.6944,4.7278,4.7519,4.7806,3.4466,3.4423,3.455,3.5791,3.5947,3.6326,3.8272,3.871,3.905,4.02,3.9991,3.9442,3.8841,3.9207,0.0,3.9625,4.0566,4.1298,0.0,0.0,0.0,0.0,0.0,0.0,0.0,0.0,0.0,0.0,0.0,0.0,0.0,3.6405,3.6405,3.6405,3.6405,3.6405,3.6405,3.6405,3.6405,3.6405,3.6405,3.6405,3.643,3.6983,3.7487,3.804,3.8617,3.917,3.9697,3.9697,3.9697,3.9747,4.03,4.0852,4.1351,4.1957,4.2564,4.2986,4.2986,4.2986,4.2986,4.2986,4.2986,4.2986,4.2986,4.2986,4.2986,4.2986,4.2986,4.2986,4.2986,4.2986,4.2986,4.2986,4.2986,4.2986,4.2986,4.2986,4.2986,4.2986,4.2986,4.2986,4.2986,4.2986,4.2986,4.2986,4.2986,4.3098,4.3351,4.3406,4.3543,4.3844,4.4174,4.4338,4.4338,4.5132,4.5637,4.5637,4.6159,4.6238,4.5663,4.6186,4.6473,4.6473,4.6499,4.6499,4.6499,4.7074,4.7278,4.7304,4.7911,4.8172,3.3637,3.4397,3.5388,3.5613,3.6767,3.799,3.8579,3.9024,3.9677,4.0801,4.0592,4.0122,3.9939,4.0043,0.0,4.0174,4.0461,4.0697,0.0,0.0,0.0,0.0,0.0,0.0,0.0,0.0,0.0,0.0,0.0,0.0,0.0,3.6405,3.6405,3.6405,3.6405,3.6405,3.6405,3.6405,3.6405,3.6405,3.6405,3.6405,3.643,3.6983,3.7487,3.804,3.8617,3.917,3.9697,3.9697,3.9697,3.9747,4.03,4.0852,4.1351,4.1957,4.2564,4.2986,4.2986,4.2986,4.2986,4.2986,4.2986,4.2986,4.2986,4.2986,4.2986,4.2986,4.2986,4.2986,4.2986,4.2986,4.2986,4.2986,4.2986,4.2986,4.2986,4.2986,4.2986,4.2986,4.2986,4.2986,4.2986,4.2986,4.2986,4.2986,4.3313,4.3746,4.4206,4.4231,4.4485,4.5022,4.5191,4.5417,4.5809,4.6077,4.6212,4.6212,4.6761,4.6813,4.6264,4.6395,4.6473,4.6473,4.6865,4.7074,4.7074,4.7649,4.7937,4.7937,4.812,4.8172,3.4331,3.4996,3.5819,3.6444,3.7629,3.8752,3.9429,3.9641,4.0054,4.1065,4.0754,4.021,4.0099,4.0095,0.0,3.9782,3.9842,0.0,0.0,0.0,0.0,0.0,0.0,0.0,0.0,0.0,0.0,0.0,0.0,0.0,0.0,3.6405,3.6405,3.6405,3.6405,3.6405,3.6405,3.6405,3.6405,3.6405,3.6405,3.6405,3.643,3.7161,3.7688,3.804,3.8843,3.9396,3.9697,3.9697,3.9697,3.9772,4.0551,4.1,4.1376,4.2208,4.274,4.2986,4.2986,4.2986,4.2986,4.2986,4.2986,4.2986,4.2986,4.2986,4.2986,4.2986,4.2986,4.2986,4.2986,4.2986,4.2986,4.2986,4.2986,4.2986,4.2986,4.2986,4.2986,4.2986,4.2986,4.2986,4.2986,4.2986,4.3062,4.3263,4.3765,4.4242,4.4593,4.4618,4.4817,4.5336,4.5508,4.5794,4.6247,4.6626,4.6813,4.6813,4.7362,4.7519,4.7179,4.7153,4.7153,4.7153,4.7492,4.7675,4.7675,4.8015,4.8172,4.8172,4.8172,4.8172,3.5839,3.5808,3.5929,3.7809,3.8415,3.8903,4.0456,4.0329,4.0119,4.1015,0.0,3.9858,3.9607,3.9551,3.9368,3.8773,0.0,0.0,0.0,0.0,0.0,0.0,0.0,0.0,0.0,0.0,0.0,0.0,0.0,0.0,0.0,3.6405,3.6405,3.6405,3.6405,3.6405,3.6405,3.6405,3.6405,3.6405,3.6405,3.6405,3.6455,3.7513,3.8065,3.8216,3.9245,3.9697,3.9697,3.9697,3.9697,3.9798,4.0849,4.1275,4.1426,4.2585,4.2986,4.2986,4.2986,4.2986,4.2986,4.2986,4.2986,4.2986,4.2986,4.2986,4.2986,4.2986,4.2986,4.2986,4.2986,4.2986,4.2986,4.2986,4.2986,4.2986,4.2986,4.2986,4.2986,4.2986,4.2986,4.2986,4.2986,4.2986,4.3187,4.379,4.4342,4.4719,4.4769,4.4769,4.4885,4.52,4.5547,4.5891,4.6093,4.6929,4.7357,4.7357,4.7911,4.8172,4.8172,4.8172,4.8172,4.8172,4.8172,4.8172,4.8172,4.8172,4.8172,4.8172,4.8172,4.8172,3.4962,3.54,3.6197,3.797,3.8905,3.9488,3.9848,3.934,3.906,4.007,3.9979,3.9611,3.9336,3.931,3.9162,0.0,0.0,0.0,0.0,0.0,0.0,0.0,0.0,0.0,0.0,0.0,0.0,0.0,0.0,0.0,3.6405,3.6405,3.6405,3.6405,3.6405,3.6405,3.6405,3.6405,3.6405,0.0,3.6405,3.6405,3.6455,3.7513,3.8492,3.9346,3.9597,3.9697,3.9697,3.9697,3.9697,3.9798,4.0849,4.1275,4.1426,4.2585,4.2986,4.2986,4.2986,4.2986,4.2986,4.2986,4.2986,4.2986,4.2986,4.2986,4.2986,4.2986,4.2986,4.2986,4.2986,4.2986,4.2986,4.2986,4.2986,4.2986,4.2986,4.2986,4.2986,4.2986,4.2986,4.2986,4.2986,4.2986,4.3313,4.4292,4.4945,4.5472,4.5899,4.5949,4.6069,4.6366,4.6696,4.6964,4.7315,4.7736,4.8015,4.8015,4.812,4.8172,4.8172,4.8172,4.8172,4.8172,4.8172,4.8172,4.8172,4.8172,4.8172,4.8172,4.8172,4.8172,3.5007,3.5694,3.6514,3.8171,3.9038,3.9445,3.9114,3.863,3.8347,3.8725,3.8923,3.8917,3.8659,3.8608,0.0,0.0,0.0,0.0,0.0,0.0,0.0,0.0,0.0,0.0,0.0,0.0,0.0,0.0,0.0,3.6405,3.6405,3.6405,3.6405,3.6405,3.6405,3.6405,3.6405,3.6405,3.6405,3.6405,3.6405,3.6681,3.7161,3.7739,3.8617,3.9697,3.9697,3.9697,3.9697,3.9697,3.9848,4.0174,4.0949,4.1505,4.1831,4.266,4.2986,4.2986,4.2986,4.2986,4.2986,4.2986,4.2986,4.2986,4.2986,4.2986,4.2986,4.2986,4.2986,4.2986,4.2986,4.2986,4.2986,4.2986,4.2986,4.2986,4.2986,4.2986,4.2986,4.2986,4.2986,4.2986,4.2986,4.3413,4.4041,4.492,4.5522,4.5974,4.6276,4.6301,4.6446,4.6746,4.6959,4.7112,4.7442,4.7619,4.7821,4.7938,4.7938,4.8055,4.8172,4.8172,4.8172,4.8172,4.8172,4.8172,4.8172,4.8172,4.8172,4.8172,4.8172,4.8172,3.4914,3.5912,3.6836,3.8319,3.8863,0.0,3.831,3.7947,3.7636,3.7445,3.78,3.8074,3.7833,0.0,0.0,0.0,0.0,0.0,0.0,0.0,0.0,0.0,0.0,0.0,0.0,0.0,0.0,0.0,0.0,3.6405,3.6405,3.6405,3.6405,3.6405,3.6405,3.6405,3.6405,3.6405,3.6405,3.6405,3.6405,3.6935,3.8015,3.8015,3.8617,3.9697,3.9697,3.9697,3.9697,3.9697,4.0023,4.0576,4.1075,4.1681,4.2263,4.2816,4.2986,4.2986,4.2986,4.2986,4.2986,4.2986,4.2986,4.2986,4.2986,4.2986,4.2986,4.2986,4.2986,4.2986,4.2986,4.2986,4.2986,4.2986,4.2986,4.2986,4.2986,4.2986,4.2986,4.2986,4.3062,4.3112,4.3112,4.4041,4.4945,4.5422,4.5949,4.6301,4.6301,4.6301,4.6421,4.6686,4.6746,4.69,4.7087,4.7205,4.7383,4.7677,4.7762,4.7938,4.8172,4.8172,4.8172,4.8172,4.8172,4.8172,4.8172,4.8172,4.8172,4.8172,4.8172,4.8172,3.3406,0.0,3.7232,0.0,3.8164,3.8039,0.0,0.0,3.6625,0.0,3.6959,3.7173,0.0,0.0,0.0,0.0,0.0,0.0,0.0,0.0,0.0,0.0,0.0,0.0,0.0,0.0,0.0,0.0,3.6405,3.6405,3.6405,3.6405,3.6405,3.6405,3.6405,3.6405,3.6405,3.6405,3.6405,3.6405,3.6405,3.6935,3.8015,3.8015,3.8617,3.9697,3.9697,3.9697,3.9697,3.9697,4.0023,4.0576,4.1075,4.1681,4.2263,4.2816,4.2986,4.2986,4.2986,4.2986,4.2986,4.2986,4.2986,4.2986,4.2986,4.2986,4.2986,4.2986,4.2986,4.2986,4.2986,4.2986,4.2986,4.2986,4.2986,4.2986,4.2986,4.2986,4.2986,4.2986,4.3363,4.3689,4.3689,4.4618,4.5397,4.5472,4.5949,4.6301,4.6301,4.6301,4.6326,4.6361,4.6626,4.6806,4.6866,4.7349,4.7619,4.7703,4.7997,4.8114,4.8172,4.8172,4.8172,4.8172,4.8172,4.8172,4.8172,4.8172,4.8172,4.8172,4.8172,4.8172,3.3571,3.5102,3.6483,0.0,3.7538,3.7387,3.6883,0.0,3.6405,3.6405,3.6546,0.0,0.0,0.0,0.0,0.0,0.0,0.0,0.0,0.0,0.0,0.0,0.0,0.0,0.0,0.0,0.0,0.0,3.6405,3.6405,3.6405,3.6405,3.6405,3.6405,3.6405,3.6405,3.6405,3.6405,3.6405,3.6405,3.6405,3.6935,3.8015,3.8015,3.8617,3.9697,3.9697,3.9697,3.9697,3.9697,4.0199,4.0949,4.12,4.1856,4.2715,4.2886,4.2986,4.2986,4.2986,4.2986,4.2986,4.2986,4.2986,4.2986,4.2986,4.2986,4.2986,4.2986,4.2986,4.2986,4.2986,4.2986,4.2986,4.2986,4.3212,4.3438,4.3438,4.3438,4.3539,4.384,4.4091,4.4367,4.4694,4.5171,4.5598,4.5899,4.615,4.6301,4.6301,4.6301,4.6301,4.6301,4.6421,4.6626,4.6806,4.7019,4.7349,4.7703,4.7821,4.7997,4.8172,4.8172,4.8172,4.8172,4.8172,4.8172,4.8172,4.8172,4.8172,4.8172,4.8172,4.8172,0.0,0.0,3.5132,3.6282,3.6759,3.6908,0.0,0.0,3.6405,0.0,0.0,0.0,0.0,0.0,0.0,0.0,0.0,0.0,0.0,0.0,0.0,0.0,0.0,0.0,0.0,0.0,0.0,0.0,3.6405,3.6405,3.6405,3.6405,3.6405,3.6405,3.6405,3.6405,3.6405,3.6121,3.6121,3.6405,3.6121,3.6694,3.8015,3.8015,3.8467,3.9258,3.9594,3.9697,3.9697,3.9697,4.035,4.1275,4.1275,4.2007,4.2986,4.2986,4.2986,4.2986,4.2986,4.2986,4.2986,4.2986,4.2986,4.2986,4.2986,4.2986,4.2986,4.2986,4.2986,4.2986,4.2986,4.2986,4.3011,4.3162,4.3514,4.384,4.3991,4.4016,4.4141,4.4543,4.4744,4.497,4.5422,4.5598,4.5824,4.625,4.6301,4.6301,4.6301,4.6301,4.6301,4.6301,4.6301,4.6361,4.6686,4.6746,4.7019,4.7527,4.7619,4.788,4.8172,4.8172,4.8172,4.8172,4.8172,4.8172,4.8172,4.8172,4.8172,4.8172,4.8172,4.8172,0.0,3.2767,0.0,3.4575,3.5629,0.0,0.0,0.0,0.0,0.0,0.0,0.0,0.0,0.0,0.0,0.0,0.0,0.0,0.0,0.0,0.0,0.0,0.0,0.0,0.0,0.0,0.0,0.0,3.6405,3.6405,3.6405,3.6405,3.6405,3.6405,3.6405,3.6405,3.6405,3.5379,3.5379,3.6405,3.5379,3.599,3.8015,3.8015,3.7987,3.8056,3.9206,3.9697,3.9697,3.9697,4.035,4.1275,4.1275,4.2007,4.2986,4.2986,4.2986,4.2986,4.2986,4.2986,4.2986,4.2986,4.2986,4.2986,4.2986,4.2986,4.2986,4.2986,4.2986,4.2986,4.2986,4.2986,4.3112,4.3639,4.379,4.394,4.4468,4.4593,4.4593,4.4618,4.507,4.5447,4.5472,4.5924,4.6276,4.6301,4.6301,4.6301,4.6301,4.6301,4.6301,4.6301,4.6301,4.6301,4.6301,4.6626,4.69,4.7205,4.7501,4.788,4.8172,4.8172,4.8172,4.8172,4.8172,4.8172,4.8172,4.8172,4.8172,4.8172,4.8172,4.8172,0.0,0.0,0.0,3.3822,3.4751,3.5403,3.5755,3.6107,3.6405,0.0,0.0,0.0,0.0,0.0,0.0,0.0,0.0,0.0,0.0,0.0,0.0,0.0,0.0,0.0,0.0,0.0,0.0,0.0,0.0,3.6405,3.6405,3.6405,3.6405,3.6405,3.6405,3.6073,3.5379,3.4288,3.4288,3.5379,3.4969,3.5942,3.8015,3.8015,3.7987,3.795,3.9206,3.9258,3.8607,3.9362,4.035,4.1275,4.1275,4.2007,4.2986,4.2986,4.2986,4.2986,4.2986,4.2986,4.2986,4.2986,4.2986,4.2986,4.2986,4.2986,4.3062,4.3413,4.3514,4.3589,4.394,4.4041,4.4166,4.4744,4.4869,4.5045,4.5598,4.5422,4.5271,4.5648,4.5874,4.6024,4.6024,4.6175,4.6301,4.6301,4.6301,4.6301,4.6301,4.6301,4.6301,4.6301,4.6301,4.6386,4.6626,4.6746,4.69,4.7205,4.7324,4.7501,4.788,4.788,4.7997,4.8172,4.8172,4.8172,4.8172,4.8172,4.8172,4.8172,4.8172,4.8172,3.0507,0.0,0.0,0.0,0.0,3.4399,3.5282,0.0,0.0,0.0,0.0,0.0,0.0,0.0,0.0,0.0,0.0,0.0,0.0,0.0,0.0,0.0,0.0,0.0,0.0,0.0,0.0,0.0,0.0,0.0,3.6405,3.6405,3.6216,3.5858,3.5858,3.5379,3.4288,3.3201,3.3377,3.4775,3.4068,3.523,3.7965,3.7219,3.7043,3.7394,3.8607,3.8659,3.795,3.896,4.0106,4.13,4.1042,4.1828,4.2986,4.2513,4.2625,4.293,4.2513,4.2625,4.2986,4.2986,4.2986,4.2986,4.2986,4.3112,4.3338,4.3689,4.394,4.4166,4.4518,4.4769,4.502,4.5397,4.5623,4.5874,4.6225,4.6024,4.5874,4.6225,4.6301,4.6301,4.6301,4.6301,4.6301,4.6301,4.6301,4.6301,4.6301,4.6301,4.6301,4.6301,4.6301,4.6386,4.6626,4.6626,4.678,4.7053,4.7053,4.729,4.7703,4.7703,4.788,4.8172,4.8172,4.8172,4.8172,4.8172,4.8172,4.8172,4.8172,4.8172,0.0,0.0,0.0,0.0,0.0,0.0,0.0,0.0,0.0,0.0,0.0,0.0,0.0,0.0,0.0,0.0,0.0,0.0,0.0,0.0,0.0,0.0,0.0,0.0,0.0,0.0,0.0,0.0,3.6405,3.6405,3.6405,3.6405,3.5906,3.4824,3.4775,3.4239,3.3151,3.2095,3.2627,3.4727,3.2627,3.3857,3.7891,3.5703,3.5221,3.624,3.7394,3.7844,3.7814,3.8371,3.9653,4.1164,4.0561,4.1377,4.2793,4.1558,4.1866,4.2737,4.1501,4.1923,4.2986,4.2986,4.2986,4.2986,4.2986,4.3363,4.3815,4.384,4.4242,4.4644,4.4669,4.5095,4.5522,4.5522,4.5924,4.6301,4.6301,4.6301,4.6301,4.6301,4.6301,4.6301,4.6301,4.6301,4.6301,4.6301,4.6301,4.6301,4.6301,4.6301,4.6301,4.6301,4.6301,4.6301,4.6301,4.6301,4.6446,4.6746,4.6806,4.7078,4.7645,4.7677,4.788,4.8172,4.8172,4.8172,4.8172,4.8172,4.8172,4.8172,4.8172,4.8172,2.9528,0.0,0.0,0.0,0.0,0.0,0.0,0.0,0.0,0.0,0.0,0.0,0.0,0.0,0.0,0.0,0.0,0.0,0.0,0.0,0.0,0.0,0.0,0.0,0.0,0.0,0.0,0.0,3.6405,3.6405,3.6405,3.6405,3.5906,3.4824,3.4042,3.3151,3.2044,3.0991,3.1534,3.3648,3.2224,3.3401,3.6717,3.5343,3.4819,3.5057,3.7073,3.6965,3.5598,3.7722,3.9195,4.0081,4.0226,4.087,4.1558,4.1215,4.1329,4.1558,4.1215,4.1923,4.2986,4.2986,4.2986,4.3062,4.3463,4.3689,4.3966,4.4794,4.5121,4.5347,4.5748,4.5949,4.6075,4.6075,4.62,4.6301,4.6301,4.6301,4.6301,4.6301,4.6301,4.6301,4.6301,4.6301,4.6301,4.6301,4.6301,4.6301,4.6301,4.6301,4.6301,4.6301,4.6301,4.6301,4.6301,4.6301,4.6301,4.6421,4.6686,4.6959,4.7324,4.756,4.788,4.8172,4.8172,4.8172,4.8172,4.8172,4.8172,4.8172,4.8172,4.8172,2.9603,0.0,0.0,0.0,0.0,0.0,0.0,3.3319,0.0,0.0,0.0,0.0,0.0,0.0,0.0,0.0,0.0,0.0,0.0,0.0,0.0,0.0,0.0,0.0,0.0,3.6405,3.6405,3.6405,3.6026,3.5715,3.5715,3.5331,3.4775,3.4141,3.3078,3.2044,3.094,3.0287,3.0836,3.2549,3.1432,3.2605,3.5573,3.4012,3.3768,3.458,3.5881,3.5443,3.3939,3.6409,3.8263,3.9585,3.9171,3.9894,4.1043,4.05,4.0639,4.11,4.11,4.1923,4.2986,4.2986,4.3137,4.3388,4.3714,4.4141,4.4644,4.5296,4.5648,4.5899,4.6225,4.6301,4.6301,4.6301,4.6301,4.6301,4.6301,4.6301,4.6301,4.6301,4.6301,4.6301,4.6301,4.6301,4.6301,4.6301,4.6301,4.6301,4.6301,4.6301,4.6301,4.6301,4.6301,4.6301,4.6301,4.6301,4.6301,4.6301,4.6626,4.69,4.7205,4.7501,4.788,4.8172,4.8172,4.8172,4.8172,4.8172,4.8172,4.8172,4.8172,4.8172,2.9955,2.998,0.0,0.0,0.0,0.0,3.2491,3.2842,3.3043,0.0,0.0,0.0,0.0,0.0,0.0,0.0,0.0,0.0,0.0,0.0,0.0,0.0,0.0,0.0,3.6405,3.6405,3.6405,3.6405,3.5427,3.4727,3.4629,3.3747,3.3151,3.3051,3.2095,3.1094,2.9994,2.9994,3.0547,3.1586,3.0537,3.1632,3.4409,3.2415,3.2564,3.4469,3.4469,3.3918,3.308,3.502,3.7133,3.9054,3.7806,3.8662,4.0558,3.9569,3.9919,4.0928,4.1043,4.1923,4.2986,4.2986,4.3338,4.3815,4.3865,4.4644,4.5497,4.5573,4.5924,4.6301,4.6301,4.6301,4.6301,4.6301,4.6301,4.6301,4.6301,4.6301,4.6301,4.6301,4.6301,4.6301,4.6301,4.6301,4.6301,4.6301,4.6301,4.6301,4.6301,4.6301,4.6301,4.6301,4.6301,4.6301,4.6301,4.6301,4.6326,4.6361,4.6661,4.6959,4.7265,4.756,4.788,4.8172,4.8172,4.8172,4.8172,4.8172,4.8172,4.8172,4.8172,4.8172,3.0959,3.1085,0.0,0.0,0.0,0.0,3.111,3.1411,3.1863,0.0,0.0,0.0,0.0,0.0,0.0,0.0,0.0,0.0,0.0,0.0,0.0,0.0,0.0,0.0,3.6405,3.6405,3.6405,3.6405,3.5427,3.4434,3.3549,3.33,3.2801,3.1942,3.1739,3.1094,2.9994,2.9994,3.0547,3.1586,3.0874,3.1497,3.3219,3.2319,3.286,3.4469,3.4469,3.4519,3.4682,3.5497,3.6143,3.6751,3.7176,3.7588,3.8127,3.8921,3.9334,3.9686,4.0731,4.1923,4.2986,4.2986,4.3338,4.389,4.4317,4.4945,4.5573,4.6024,4.6225,4.6301,4.6301,4.6301,4.6301,4.6301,4.6301,4.6301,4.6301,4.6301,4.6301,4.6301,4.6301,4.6301,4.6301,4.6301,4.6301,4.6301,4.6301,4.6301,4.6301,4.6301,4.6301,4.6301,4.6301,4.6301,4.6301,4.6301,4.6446,4.6686,4.6934,4.7265,4.756,4.7938,4.8114,4.8172,4.8172,4.8172,4.8172,4.8172,4.8172,4.8172,4.8172,4.8172,3.1085,3.1185,0.0,3.106,0.0,0.0,0.0,3.1009,3.1235,3.2039,0.0,0.0,0.0,0.0,0.0,0.0,0.0,0.0,0.0,0.0,0.0,0.0,0.0,0.0,3.4921,3.5283,3.5162,3.4068,3.3525,3.2978,3.2448,3.1891,3.1586,3.1586,3.1094,3.0547,2.9994,2.9994,3.0287,3.0785,3.0715,3.1228,3.2156,3.2038,3.2609,3.3614,3.3614,3.387,3.4316,3.4726,3.5125,3.5482,3.6104,3.6703,3.7467,3.8744,3.8803,3.8566,4.0442,4.1501,4.2086,4.2356,4.3226,4.4317,4.4895,4.5447,4.5949,4.6225,4.6301,4.6301,4.6301,4.6301,4.6301,4.6301,4.6301,4.6301,4.6301,4.6301,4.6301,4.6301,4.6301,4.6301,4.6301,4.6301,4.6301,4.6301,4.6301,4.6301,4.6301,4.6301,4.6301,4.6301,4.6301,4.6301,4.6301,4.6301,4.6446,4.6806,4.7053,4.7324,4.7703,4.7997,4.8172,4.8172,4.8172,4.8172,4.8172,4.8172,4.8172,4.8172,4.8172,4.8172,0.0,0.0,0.0,0.0,0.0,3.1085,0.0,0.0,0.0,3.1587,0.0,0.0,0.0,0.0,0.0,0.0,0.0,0.0,0.0,0.0,0.0,0.0,0.0,0.0,0.0,3.4145,3.3826,3.1768,3.1549,3.1425,3.1278,3.0495,3.0391,3.1278,3.0443,2.9994,2.9994,2.9994,2.9994,2.9994,3.0553,3.1008,3.1402,3.1919,3.2488,3.3069,3.2867,3.3215,3.3884,3.4129,3.4465,3.4921,3.5273,3.6197,3.7467,3.8744,3.8566,3.8007,4.0558,4.1329,4.1254,4.2016,4.3407,4.4895,4.5472,4.5949,4.6301,4.6301,4.6301,4.6301,4.6301,4.6301,4.6301,4.6301,4.6301,4.6301,4.6301,4.6301,4.6301,4.6301,4.6301,4.6301,4.6301,4.6301,4.6301,4.6301,4.6301,4.6301,4.6301,4.6301,4.6301,4.6301,4.6301,4.6301,4.6301,4.6301,4.6446,4.6806,4.6993,4.729,4.7677,4.7997,4.8172,4.8172,4.8172,4.8172,4.8172,4.8172,4.8172,4.8172,4.8172,4.8172,0.0,0.0,0.0,0.0,3.2089,0.0,0.0,0.0,3.0507,3.0156,0.0,0.0,0.0,0.0,0.0,0.0,0.0,0.0,0.0,0.0,0.0,0.0,0.0,0.0,0.0,3.4125,3.3476,3.1746,3.1221,3.0723,3.0214,3.0047,3.0047,3.0203,3.0047,2.9994,2.9994,2.9994,2.9994,3.0015,3.0884,3.1319,3.1402,3.2271,3.3233,3.4289,3.3581,3.4138,3.5518,3.4945,3.4941,3.5355,3.5397,3.6197,3.7467,3.8744,3.9098,3.9334,4.1923,4.2037,4.1369,4.302,4.4402,4.5497,4.605,4.625,4.6301,4.6301,4.6301,4.6301,4.6301,4.6301,4.6301,4.6301,4.6301,4.6301,4.6301,4.6301,4.6301,4.6301,4.6301,4.6301,4.6301,4.6301,4.6301,4.6301,4.6301,4.6301,4.6301,4.6301,4.6301,4.6301,4.6301,4.6301,4.6301,4.6301,4.6446,4.6806,4.6866,4.7078,4.7703,4.7997,4.8172,4.8172,4.8172,4.8172,4.8172,4.8172,4.8172,4.8172,4.8172,4.8172,0.0,0.0,0.0,0.0,0.0,0.0,3.0633,0.0,3.0557,0.0,0.0,0.0,0.0,0.0,0.0,0.0,0.0,0.0,0.0,0.0,0.0,0.0,0.0,0.0,0.0,0.0,0.0,0.0,3.0088,2.9884,2.958,2.9849,2.9994,2.9994,2.9994,2.9994,2.9994,2.9994,2.9994,3.0015,3.0946,3.1381,3.1402,3.2313,3.3012,3.3466,3.3413,3.393,3.4783,3.481,3.5024,3.5418,3.5418,3.6197,3.7467,3.8744,3.8744,3.8424,4.1019,4.1043,4.0468,4.3334,4.5045,4.5999,4.6225,4.6301,4.6301,4.6301,4.6301,4.6301,4.6301,4.6301,4.6301,4.6301,4.6301,4.6301,4.6301,4.6301,4.6301,4.6301,4.6301,4.6301,4.6301,4.6301,4.6301,4.6301,4.6301,4.6301,4.6301,4.6301,4.6301,4.6301,4.6301,4.6301,4.6301,4.6301,4.6446,4.6806,4.7138,4.7409,4.7703,4.7997,4.8172,4.8172,4.8172,4.8172,4.8172,4.8172,4.8172,4.8172,4.8172,4.8172,3.2817,0.0,0.0,0.0,0.0,0.0,0.0,0.0,0.0,0.0,0.0,0.0,0.0,0.0,0.0,0.0,0.0,0.0,0.0,0.0,0.0,0.0,0.0,0.0,0.0,0.0,0.0,0.0,0.0,2.9042,2.929,2.9622,2.987,2.9994,2.9994,2.9994,2.9994,2.9994,2.9994,3.0015,3.0946,3.1381,3.1402,3.2313,3.2789,3.2934,3.3368,3.3883,3.436,3.4755,3.5128,3.5418,3.5418,3.6197,3.7407,3.8328,3.8566,3.8602,4.0442,4.0946,4.1069,4.3355,4.5076,4.6301,4.6301,4.6301,4.6301,4.6301,4.6301,4.6301,4.6301,4.6301,4.6301,4.6301,4.6301,4.6301,4.6301,4.6301,4.6301,4.6301,4.6301,4.6301,4.6301,4.6301,4.6301,4.6301,4.6301,4.6301,4.6301,4.6301,4.6301,4.6301,4.6301,4.6301,4.6301,4.6301,4.6446,4.6806,4.729,4.756,4.7703,4.7997,4.8172,4.8172,4.8172,4.8172,4.8172,4.8172,4.8172,4.8172,4.8172,4.8172,0.0,0.0,0.0,3.1964,0.0,0.0,0.0,0.0,3.1361,0.0,0.0,0.0,0.0,0.0,0.0,0.0,0.0,0.0,0.0,0.0,0.0,0.0,0.0,0.0,0.0,0.0,0.0,0.0,0.0,0.0,2.9249,2.9311,2.9539,2.9973,2.9994,2.9994,2.9994,2.9994,2.9994,3.0015,3.0946,3.1381,3.1402,3.2313,3.2954,3.3389,3.3844,3.436,3.4837,3.5211,3.5418,3.5418,3.5418,3.6197,3.7309,3.7369,3.8898,4.0985,4.11,4.2552,4.4278,4.3187,4.4421,4.6301,4.6301,4.6301,4.6301,4.6301,4.6301,4.6301,4.6301,4.6301,4.6301,4.6301,4.6301,4.6301,4.6301,4.6301,4.6301,4.6301,4.6301,4.6301,4.6301,4.6301,4.6301,4.6301,4.6301,4.6301,4.6301,4.6301,4.6301,4.6301,4.6301,4.6301,4.6301,4.6301,4.6446,4.6806,4.7053,4.7383,4.7703,4.7997,4.8172,4.8172,4.8172,4.8172,4.8172,4.8172,4.8172,4.8172,4.8172,4.8172,0.0,0.0,3.4781,3.2968,0.0,0.0,0.0,0.0,0.0,0.0,0.0,0.0,0.0,0.0,0.0,0.0,0.0,0.0,0.0,0.0,0.0,0.0,0.0,0.0,0.0,0.0,0.0,0.0,2.8462,0.0,0.0,2.9601,2.9829,2.9994,2.9994,2.9994,2.9994,2.9994,3.0139,3.047,3.1091,3.1526,3.1836,3.2401,3.2975,3.341,3.3924,3.4401,3.4857,3.5231,3.5418,3.5418,3.5418,3.6197,3.7309,3.7309,3.7828,3.8602,3.8602,4.0716,4.3364,4.295,4.4421,4.6301,4.6301,4.6301,4.6301,4.6301,4.6301,4.6401,4.6753,4.6853,4.6954,4.728,4.738,4.728,4.6928,4.7129,4.7154,4.6451,4.6602,4.6753,4.6376,4.6301,4.6301,4.6301,4.6301,4.6301,4.6301,4.6301,4.6301,4.6301,4.6301,4.6301,4.6301,4.6506,4.6686,4.6806,4.7231,4.756,4.7703,4.7997,4.8172,4.8172,4.8172,4.8172,4.8172,4.8172,4.8172,4.8172,4.8172,4.8172,3.5303,3.5554,0.0,3.3553,3.3657,0.0,3.1851,0.0,0.0,0.0,0.0,0.0,0.0,0.0,0.0,0.0,0.0,0.0,0.0,0.0,0.0,0.0,0.0,0.0,0.0,0.0,2.7821,2.811,0.0,0.0,0.0,0.0,2.9829,2.9994,2.9994,2.9994,2.9994,2.9994,3.0222,3.0698,3.1153,3.1609,3.2008,3.2685,3.3203,3.3717,3.4173,3.4569,3.5024,3.5293,3.5418,3.5418,3.5418,3.589,3.6603,3.6603,3.6885,3.7391,3.8049,4.026,4.2795,4.2988,4.4508,4.6301,4.6301,4.6301,4.6301,4.6301,4.6301,4.6426,4.6943,4.7068,4.7255,4.7782,4.7908,4.7807,4.7481,4.7682,4.7657,4.6778,4.6878,4.6954,4.6401,4.6301,4.6301,4.6301,4.6301,4.6301,4.6301,4.6301,4.6301,4.6301,4.6301,4.6361,4.6506,4.6686,4.6925,4.7138,4.7468,4.7762,4.788,4.8055,4.8172,4.8172,4.8172,4.8172,4.8172,4.8172,4.8172,4.8172,4.8172,4.8172]}]]